     2              OBSERVATION DATA    GPS                 RINEX VERSION / TYPE
teqc 1999Jul19 19991123 03:26:39UTC                         PGM / RUN BY / DATE
                                                            COMMENT
Original Marker Name: SOD4                                  COMMENT
Campaign Name: HPGN 1991                                    COMMENT
4-Character Station Name: SOD4                              COMMENT
6-Character Antenna Code: TRMSST                            COMMENT
Vertical Measurement Point: TGP                             COMMENT
Vertical Offset to Rinex Ref. Point: 0.0629                 COMMENT
Radial Measurement Point: OGP                               COMMENT
Radial Offset to Rinex Ref. Point: 0.2413                   COMMENT
Antenna Height from Field Measurement: 2.2200 m             COMMENT
                                                            COMMENT
Original XYZ: -2547247.3038 -4001587.4721 4252172.6504      COMMENT
New XYZ position is based on association with SCEC monument COMMENT
E1P2S9A5+0011. Position of that monument is believed to be  COMMENT
valid to within 1 m horizontally; vertical accuracy         COMMENT
should be no worse than 3-times this value.                 COMMENT
                                                            COMMENT
Revised Rinex header created by UCSD GPS archive for        COMMENT
GSAC on 10-Mar-2000 (2000:070) 17:51:52 GMT                 COMMENT
For assistance contact dagnew@ucsd.edu or hjohnson@ucsd.edu COMMENT
                                                            COMMENT
SODA RM 4                                                   MARKER NAME
SOD4                                                        MARKER NUMBER
-Unknown- CALIF DEPT TRANSPORTATION                         OBSERVER / AGENCY
483 TRIMBLE 4000 SST NP 4.30 / SP 4.20                      REC # / TYPE / VERS
19 TR 4000SST L1/L2 GEO                                     ANT # / TYPE
 -2547249.4702 -4001592.9911  4252171.7338                  APPROX POSITION XYZ
        2.1439        0.0000        0.0000                  ANTENNA: DELTA H/E/N
     1     1     0                                          WAVELENGTH FACT L1/2
     5    C1    L1    L2    S1    S2                        # / TYPES OF OBSERV
     0                                                      INTERVAL
  1991     6    26    15    27   45.000000                  TIME OF FIRST OBS
  1991     6    26    21    30   15.000000                  TIME OF LAST OBS
                                                            END OF HEADER
 91  6 26 15 27 45.0000000  0  5G18G 2G11G16G19
  20788407.164          -0.02717        -0.23632        27.750           2.344
  24264417.664          -0.39115        -0.19731         9.750           0.313
  24360840.156          -0.12415        -0.15131        10.000           0.438
  23884201.172          -0.03515                        11.250
  20481468.141          -0.88016                        19.250
 91  6 26 15 28  0.0000000  0  5G18G 2G11G16G19
  20793672.016       27671.662 8     21562.10022        28.000           2.313
  24255025.039      -49358.835 5    -38461.29321        10.250           0.250
  24353530.500      -38390.892 5    -29914.98321        10.000           0.406
  23878558.109      -29643.480 5        -0.24231        10.000           0.156
  20481473.984          41.820 6                        19.500
 91  6 26 15 28 15.0000000  0  5G18G 2G11G16G19
  20798950.258       55403.165 8     43171.04722        28.500           2.344
  24245629.000      -98733.655 5    -76935.11621         9.750           0.281
  24346231.375      -76757.568 5    -59811.03821        10.500           0.469
  23872928.633      -59218.838 5    -23045.98121         9.000           0.156
  20481487.281         107.141 6                        19.000
 91  6 26 15 28 30.0000000  0  5G18G 2G11G16G19
  20804239.891       83206.198 8     64835.73522        28.500           2.313
  24236229.852     -148112.846 5   -115412.39721         9.500           0.281
  24338939.211     -115088.050 5    -89678.89121        11.500           0.469
  23867319.211      -88714.286 5    -46029.47121         8.750           0.219
  20481503.820         206.859 6                        19.500
 91  6 26 15 28 45.0000000  0  5G18G 2G11G16G19
  20809545.625      111087.396 8     86561.32522        28.500           2.375
  24226833.477     -197489.690 5   -153887.81721         9.500           0.250
  24331654.883     -153375.354 5   -119513.09221        11.750           0.406
  23861721.023     -118122.890 5    -68945.23621         8.500           0.125
  20481533.547         347.467 6                        19.000
 91  6 26 15 29  0.0000000  0  5G18G 2G11G16G19
  20814867.352      139051.041 8    108351.15922        28.750           2.406
  24217438.711     -246859.583 5   -192357.82521         9.500           0.250
  24324375.180     -191614.823 5   -149310.04821        11.500           0.469
  23856143.578     -147440.123 5    -91789.84621         8.250           0.219
  20481569.109         533.353 6                        18.750
 91  6 26 15 29 15.0000000  0  5G18G 2G11G16G19
  20820206.055      167104.744 8    130211.17122        28.000           2.375
  24208048.859     -296214.306 5   -230816.01021        10.000           0.313
  24317109.313     -229798.093 6   -179063.18621        12.500           0.438
  23850580.945     -176657.930 5   -114556.97021         8.000           0.156
  20481608.492         772.435 6                        19.500
 91  6 26 15 29 30.0000000  0  5G18G 2G11G16G19
  20825562.398      195249.613 8    152142.21923        28.500           2.531
  24198658.781     -345552.589 5   -269261.37821        10.000           0.438
  24309855.500     -267923.533 6   -208771.27421        12.750           0.469
  23845039.805     -205774.748 5   -137245.36821         7.500           0.250
  20481666.836        1065.857 6        -0.38932        19.500           1.531
 91  6 26 15 29 45.0000000  0  5G18G 2G11G16G19
  20830936.500      223493.991 8    174150.80822        28.250           2.438
  24189273.023     -394866.106 5   -307687.44521         9.750           0.375
  24302613.367     -305982.533 6   -238427.58621        13.000           0.500
  23839519.469     -234782.316 5   -159848.65821         7.500           0.313
  20481737.742        1421.693 6       276.88522        19.500           1.563
 91  6 26 15 30  0.0000000  0  5G18G 2G11G16G19
  20836328.469      251832.605 8    196232.83122        28.000           2.469
  24179891.609     -444159.730 5   -346098.00021         9.750           0.313
  24295381.430     -343979.916 6   -268035.90021        12.750           0.531
  23834021.516     -263685.508 5   -182370.59621         7.750           0.406
  20481814.273        1834.571 6       598.60421        19.750           1.469
 91  6 26 15 30 15.0000000  0  5G18G 2G11G16G19
  20841739.320      280261.061 8    218384.85322        28.000           2.469
  24170515.938     -493437.467 5   -384496.19121        10.250           0.375
  24288163.930     -381919.478 6   -297599.14721        13.000           0.438
  23828539.141     -292488.008 5   -204814.10621         8.000           0.375
  20481904.742        2300.441 6       961.61921        19.250           1.344
 91  6 26 15 30 30.0000000  0  5G18G 2G11G16G19
  20847165.734      308780.468 7    240607.74523        27.500           2.500
  24161144.508     -542697.793 5   -422880.80421        11.250           0.313
  24280954.570     -419799.484 6   -327115.99421        13.000           0.469
  23823077.039     -321188.408 5   -227178.02421         8.250           0.438
  20482000.836        2820.643 7      1366.96621        20.000           1.406
 91  6 26 15 30 45.0000000  0  5G18G 2G11G16G19
  20852609.313      337385.497 7    262897.35323        27.250           2.531
  24151775.008     -591945.772 5   -461255.78721        11.750           0.344
  24273759.188     -457624.770 6   -356590.19921        13.500           0.469
  23817636.547     -349791.675 5   -249466.25621         9.000           0.406
  20482110.742        3389.819 6      1810.48221        18.750           1.469
 91  6 26 15 31  0.0000000  0  5G18G 2G11G16G19
  20858070.039      366085.301 7    285260.82023        27.250           2.531
  24142407.953     -641171.983 6   -499613.81421        12.000           0.375
  24266572.367     -495385.636 6   -386014.21721        12.750           0.531
  23812213.484     -378288.432 5   -271671.50621         9.250           0.406
  20482229.898        4017.313 6      2299.43821        19.750           1.406
 91  6 26 15 31 15.0000000  0  5G18G 2G11G16G19
  20863550.438      394879.871 7    307698.13423        27.750           2.531
  24133042.820     -690376.335 6   -537954.83021        12.500           0.313
  24259398.336     -533081.645 5   -415387.70621        11.750           0.594
  23806810.438     -406678.471 5   -293793.61421         8.750           0.438
  20482361.047        4702.928 6      2833.68321        19.000           1.313
 91  6 26 15 31 30.0000000  0  5G18G 2G11G16G19
  20869047.219      423769.438 7    330209.46323        27.500           2.563
  24123684.383     -739558.331 6   -576278.39221        12.750           0.344
  24252233.898     -570712.342 5   -444710.27621        10.750           0.594
  23801428.727     -434961.391 5   -315832.22721         9.250           0.313
  20482500.289        5446.854 7      3413.35721        20.000           1.313
 91  6 26 15 31 45.0000000  0  5G18G 2G11G16G19
  20874564.273      452754.341 7    352795.08323        27.500           2.656
  24114331.102     -788717.012 6   -614583.80221        12.750           0.313
  24245086.219     -608276.460 5   -473980.98621        10.500           0.625
  23796067.188     -463136.072 5   -337786.53121         9.500           0.281
  20482656.086        6249.612 6      4038.88021        19.000           1.438
 91  6 26 15 32  0.0000000  0  5G18G 2G11G16G19
  20880097.188      481837.210 7    375457.03723        27.000           2.594
  24104979.367     -837849.768 6   -652869.00721        12.500           0.344
  24237951.773     -645771.314 5   -503197.70321        10.750           0.500
  23790726.563     -491199.769 5   -359654.34021        10.250           0.281
  20482819.500        7113.387 6      4711.94321        19.750           1.375
 91  6 26 15 32 15.0000000  0  5G18G 2G11G16G19
  20885649.953      511013.488 7    398191.78222        27.000           2.438
  24095637.633     -886960.898 6   -691137.38021        12.750           0.313
  24230828.898     -683200.985 5   -532363.64721        10.250           0.469
  23785406.977     -519156.919 5   -381439.17621        11.000           0.250
  20482992.578        8033.839 6      5429.17621        19.250           1.406
 91  6 26 15 32 30.0000000  0  5G18G 2G11G16G19
  20891218.922      540282.504 7    420998.79222        27.000           2.375
  24086293.117     -936050.504 6   -729388.94921        12.250           0.313
  24223720.539     -720565.300 5   -561478.68621         9.750           0.531
  23780109.172     -547007.788 5   -403141.11521        11.250           0.406
  20483178.195        9010.519 6      6190.22322        19.250           1.500
 91  6 26 15 32 45.0000000  0  5G18G 2G11G16G19
  20896806.758      569650.677 7    443883.06422        26.500           2.375
  24076956.297     -985112.137 6   -767618.73121        12.500           0.375
  24216622.172     -757857.463 5   -590537.47921         9.750           0.594
  23774829.039     -574745.832 5   -424755.16621        11.500           0.250
  20483378.977       10050.048 6      7000.24621        19.000           1.469
 91  6 26 15 33  0.0000000  0  5G18G 2G11G16G19
  20902413.359      599113.013 7    466840.70822        26.250           2.344
  24067625.953    -1034150.263 6   -805830.19721        13.000           0.281
  24209540.023     -795082.011 5   -619543.61821        10.000           0.531
  23769574.328     -602375.412 5   -446284.72421        11.750           0.219
  20483586.820       11147.393 7      7855.31721        20.250           1.344
 91  6 26 15 33 15.0000000  0  5G18G 2G11G16G19
  20908039.117      628669.869 7    489872.00322        26.250           2.375
  24058298.734    -1083164.303 6   -844022.90221        13.250           0.344
  24202468.680     -832238.116 5   -648496.40821        10.000           0.531
  23764334.375     -629895.808 5   -467729.18921        11.000           0.250
  20483808.625       12303.110 6      8755.87121        19.750           1.438
 91  6 26 15 33 30.0000000  0  5G18G 2G11G16G19
  20913679.828      658329.422 7    512983.32422        25.500           2.250
  24048977.664    -1132145.705 6   -882190.17121        12.500           0.313
  24195410.039     -869316.947 5   -677388.96221        10.000           0.406
  23759120.570     -657298.260 5   -489081.75521        10.250           0.344
  20484039.305       13525.513 7      9708.38321        21.000           1.406
 91  6 26 15 33 45.0000000  0  5G18G 2G11G16G19
  20919345.609      688090.211 7    536173.53122        26.250           2.219
  24039662.500    -1181095.601 6   -920332.88021        12.500           0.219
  24188368.273     -906319.547 5   -706222.13221        10.250           0.500
  23753928.086     -684584.098 5   -510343.43521        10.750           0.281
  20484285.922       14813.026 7     10711.64022        20.000           1.500
 91  6 26 15 34  0.0000000  0  5G18G 2G11G16G19
  20925025.734      717945.773 7    559437.58822        26.000           2.344
  24030353.492    -1230020.155 6   -958455.85021        12.750           0.250
  24181344.617     -943251.734 5   -735000.43521        11.000           0.406
  23748754.672     -711759.498 5   -531519.09221        10.250           0.344
  20484540.375       16159.484 7     11760.82821        20.250           1.469
 91  6 26 15 34 15.0000000  0  5G18G 2G11G16G19
  20930726.758      747897.696 7    582776.73322        26.500           2.250
  24021047.422    -1278917.710 6   -996557.76321        12.000           0.250
  24174329.039     -980111.744 5   -763722.50621        11.500           0.563
  23743608.461     -738822.749 5   -552607.33221        11.500           0.375
  20484809.539       17566.317 6     12857.06721        19.250           1.406
 91  6 26 15 34 30.0000000  0  5G18G 2G11G16G19
  20936442.898      777938.162 7    606184.86122        26.500           2.313
  24011745.320    -1327795.745 5  -1034644.49421        11.750           0.344
  24167328.297    -1016906.747 6   -792393.91421        12.250           0.469
  23738475.891     -765781.402 5   -573614.06221        11.500           0.313
  20485084.469       19025.718 7     13994.26721        20.000           1.438
 91  6 26 15 34 45.0000000  0  5G18G 2G11G16G19
  20942176.203      808067.918 7    629662.57422        25.750           2.438
  24002449.336    -1376653.328 5  -1072715.27421        11.500           0.344
  24160338.688    -1053635.682 6   -821013.86521        12.750           0.438
  23733368.445     -792634.375 5   -594538.44021        11.500           0.375
  20485375.969       20538.404 6     15172.97721        19.500           1.438
 91  6 26 15 35  0.0000000  0  5G18G 2G11G16G19
  20947928.664      838293.627 7    653215.06222        25.750           2.375
  23993154.813    -1425483.219 5  -1110764.48621        11.250           0.250
  24153363.500    -1090291.014 6   -849576.44321        13.500           0.500
  23728279.211     -819374.243 5   -615374.71621        11.000           0.438
  20485672.313       22111.333 7     16398.62921        20.000           1.406
 91  6 26 15 35 15.0000000  0  5G18G 2G11G16G19
  20953697.688      868613.716 7    676841.08323        26.000           2.500
  23983867.430    -1474286.628 5  -1148793.06121        11.250           0.375
  24146401.508    -1126873.861 6   -878082.54821        14.000           0.344
  23723211.148     -846002.425 5   -636123.93021        10.250           0.469
  20485982.141       23743.042 6     17670.09021        19.750           1.375
 91  6 26 15 35 30.0000000  0  5G18G 2G11G16G19
  20959487.727      899030.189 7    700542.20122        26.500           2.406
  23974585.414    -1523061.678 5  -1186799.54221        11.750           0.344
  24139455.070    -1163382.004 6   -906530.42821        14.000           0.375
  23718165.961     -872516.826 5   -656784.49321        10.250           0.438
  20486307.234       25435.235 6     18988.67721        19.000           1.281
 91  6 26 15 35 45.0000000  0  5G18G 2G11G16G19
  20965291.211      929537.016 7    724313.73023        26.000           2.625
  23965310.570    -1571813.959 6  -1224788.28821        12.000           0.438
  24132523.453    -1199820.966 6   -934924.42221        14.750           0.500
  23713137.055     -898922.996 5   -677360.74321         9.500           0.406
  20486638.703       27181.988 6     20349.78221        18.750           1.281
 91  6 26 15 36  0.0000000  0  5G18G 2G11G16G19
  20971114.734      960137.520 7    748158.26523        26.000           2.594
  23956038.352    -1620539.914 5  -1262756.49921        11.500           0.375
  24125601.938    -1236187.063 6   -963261.60621        14.750           0.313
  23708134.242     -925217.390 5   -697849.90321         9.000           0.500
  20486979.859       28986.704 7     21756.05221        20.500           1.313
 91  6 26 15 36 15.0000000  0  5G18G 2G11G16G19
  20976955.742      990828.992 7    772073.67223        26.250           2.531
  23946769.352    -1669241.469 5  -1300705.71621        11.500           0.375
  24118696.828    -1272482.032 6   -991543.40721        15.000           0.469
  23703152.391     -951402.250 5   -718253.68221         8.750           0.438
  20487337.828       30847.158 6     23205.75421        19.750           1.313
 91  6 26 15 36 30.0000000  0  5G18G 2G11G16G19
  20982812.188     1021614.026 7    796061.98323        25.750           2.500
  23937505.188    -1717916.172 5  -1338634.01021        11.250           0.406
  24111803.828    -1308703.143 6  -1019767.63721        15.500           0.406
  23698190.094     -977474.752 5   -738569.90521         9.000           0.469
  20487702.297       32765.710 7     24700.72221        20.000           1.375
 91  6 26 15 36 45.0000000  0  5G18G 2G11G16G19
  20988690.742     1052493.355 7    820123.77923        26.250           2.500
  23928248.719    -1766562.909 5  -1376540.50521        11.000           0.438
  24104925.148    -1344849.062 6  -1047933.25921        15.000           0.500
  23693251.609    -1003433.900 5   -758797.80021         9.250           0.313
  20488079.117       34743.288 6     26241.69721        19.500           1.313
 91  6 26 15 37  0.0000000  0  5G18G 2G11G16G19
  20994583.930     1083466.948 7    844259.02423        26.250           2.625
  23919000.813    -1815181.273 5  -1414424.88921        11.250           0.375
  24098060.422    -1380919.146 6  -1076039.81721        14.250           0.500
  23688335.477    -1029279.410 5   -778937.15621         9.500           0.344
  20488466.453       36779.838 6     27828.61521        19.500           1.375
 91  6 26 15 37 15.0000000  0  5G18G 2G11G16G19
  21000495.461     1114533.251 7    868466.50922        26.250           2.469
  23909751.039    -1863772.516 5  -1452288.14021        11.000           0.500
  24091210.180    -1416914.508 6  -1104088.11621        13.750           0.594
  23683437.508    -1055012.189 5   -798988.67621         9.250           0.250
  20488863.594       38873.946 6     29460.38721        19.500           1.281
 91  6 26 15 37 30.0000000  0  5G18G 2G11G16G19
  21006424.727     1145691.974 7    892746.01823        26.250           2.563
  23900508.539    -1912336.655 5  -1490130.27321        10.750           0.406
  24084374.008    -1452835.061 6  -1132078.14221        13.000           0.625
  23678562.297    -1080632.278 5   -818952.37721         9.500           0.281
  20489274.492       41025.387 7     31136.83621        20.000           1.188
 91  6 26 15 37 45.0000000  0  5G18G 2G11G16G19
  21012371.445     1176945.496 7    917099.38923        26.250           2.500
  23891273.148    -1960871.022 5  -1527949.19921        10.500           0.313
  24077553.898    -1488677.891 6  -1160007.60521        12.250           0.656
  23673706.828    -1106136.863 5   -838826.10821         9.500           0.313
  20489695.516       43236.565 7     32859.82621        20.000           1.281
 91  6 26 15 38  0.0000000  0  5G18G 2G11G16G19
  21018336.727     1208290.578 7    941524.10622        26.250           2.344
  23882041.805    -2009378.520 5  -1565747.18721        10.500           0.406
  24070746.281    -1524445.710 6  -1187878.61521        12.000           0.594
  23668876.922    -1131528.922 5   -858612.13421         9.750           0.375
  20490127.898       45504.293 6     34626.88221        19.500           1.250
 91  6 26 15 38 15.0000000  0  5G18G 2G11G16G19
  21024318.656     1239724.890 7    966018.34322        26.250           2.313
  23872819.242    -2057861.064 5  -1603525.74821        11.000           0.469
  24063954.328    -1560140.216 6  -1215692.49521        12.000           0.719
  23664064.172    -1156810.534 5   -878312.10521        10.000           0.313
  20490568.398       47826.465 7     36436.36021        20.000           1.375
 91  6 26 15 38 30.0000000  0  5G18G 2G11G16G19
  21030319.250     1271257.184 7    990588.93422        26.250           2.406
  23863601.406    -2106309.699 5  -1641277.87021        11.500           0.469
  24057178.453    -1595752.237 5  -1243442.10021        11.750           0.719
  23659276.383    -1181972.719 5   -897919.01921         9.500           0.375
  20491019.102       50211.799 7     38295.05821        20.750           1.469
 91  6 26 15 38 45.0000000  0  5G18G 2G11G16G19
  21036338.117     1302885.209 7   1015234.12722        26.000           2.406
  23854387.875    -2154726.579 6  -1679005.25621        12.250           0.438
  24050416.195    -1631283.670 5  -1271128.90821        11.500           0.656
  23654513.508    -1207017.918 5   -917434.75721        10.250           0.313
  20491488.117       52658.007 6     40201.19121        19.750           1.469
 91  6 26 15 39  0.0000000  0  5G18G 2G11G16G19
  21042374.953     1334610.802 7   1039955.34822        26.000           2.469
  23845178.969    -2203109.102 6  -1716705.87421        12.250           0.406
  24043668.313    -1666731.860 5  -1298750.84621        11.500           0.625
  23649766.391    -1231943.171 5   -936857.06521        10.000           0.250
  20491966.633       55167.263 6     42156.45122        19.000           1.500
 91  6 26 15 39 15.0000000  0  5G18G 2G11G16G19
  21048429.320     1366425.333 7   1064745.87122        26.250           2.469
  23835978.133    -2251465.941 6  -1754386.46721        12.250           0.406
  24036940.766    -1702105.061 5  -1326314.35521        11.250           0.688
  23645045.383    -1256757.030 5   -956192.51821         9.750           0.406
  20492452.500       57730.913 6     44154.09521        19.000           1.375
 91  6 26 15 39 30.0000000  0  5G18G 2G11G16G19
  21054501.789     1398333.965 7   1089609.71822        26.250           2.469
  23826782.094    -2299791.703 6  -1792042.86321        12.250           0.375
  24030222.070    -1737397.927 5  -1353815.25421        10.750           0.781
  23640346.383    -1281454.039 5   -975436.93421        10.750           0.375
  20492948.375       60353.992 6     46198.04821        19.250           1.406
 91  6 26 15 39 45.0000000  0  5G18G 2G11G16G19
  21060590.039     1430334.720 7   1114545.34323        26.000           2.625
  23817589.797    -2348087.928 6  -1829676.25221        12.250           0.375
  24023522.875    -1772611.623 5  -1381254.45521        11.000           0.750
  23635670.672    -1306036.025 5   -994591.75921        11.000           0.344
  20493461.977       63034.705 6     48286.91021        18.250           1.219
 91  6 26 15 40  0.0000000  0  5G18G 2G11G16G19
  21066697.023     1462425.246 7   1139550.92223        26.250           2.563
  23808404.250    -2396356.542 5  -1867288.10121        11.500           0.406
  24016834.938    -1807748.051 5  -1408633.45721        11.250           0.719
  23631014.031    -1330504.855 5  -1013658.37821        10.750           0.344
  20493978.531       65770.963 6     50419.05821        19.500           1.250
 91  6 26 15 40 15.0000000  0  5G18G 2G11G16G19
  21072821.180     1494607.197 7   1164627.74323        26.000           2.500
  23799223.328    -2444595.673 5  -1904877.00921        11.750           0.469
  24010164.289    -1842805.020 6  -1435950.54121        12.000           0.781
  23626378.969    -1354858.450 5  -1032635.18521        11.000           0.219
  20494513.570       68564.462 6     52595.79721        18.750           1.250
 91  6 26 15 40 30.0000000  0  5G18G 2G11G16G19
  21078962.656     1526882.586 7   1189777.37423        25.750           2.531
  23790052.508    -2492803.087 5  -1942441.18421        11.750           0.406
  24003510.516    -1877780.114 6  -1463203.82621        12.500           0.719
  23621766.688    -1379094.555 5  -1051520.46921        10.500           0.406
  20495057.055       71417.067 6     54818.59821        19.250           1.313
 91  6 26 15 40 45.0000000  0  5G18G 2G11G16G19
  21085123.570     1559250.493 7   1214999.09422        26.750           2.375
  23780884.781    -2540979.058 5  -1979980.85721        11.500           0.438
  23996866.703    -1912673.561 6  -1490393.48021        12.000           0.656
  23617178.867    -1403213.647 5  -1070314.55221        10.500           0.469
  20495610.813       74328.385 6     57087.15321        18.750           1.094
 91  6 26 15 41  0.0000000  0  5G18G 2G11G16G19
  21091300.203     1591711.387 7   1240293.28022        26.750           2.313
  23771721.164    -2589123.302 5  -2017495.81521        11.250           0.500
  23990243.875    -1947484.628 6  -1517518.94521        12.000           0.719
  23612608.000    -1427215.399 5  -1089017.22521         9.750           0.563
  20496174.711       77298.451 6     59401.49921        19.500           1.250
 91  6 26 15 41 15.0000000  0  5G18G 2G11G16G19
  21097492.891     1624264.109 7   1265659.00422        26.500           2.313
  23762567.836    -2637236.269 5  -2054986.38421        11.500           0.438
  23983634.289    -1982213.660 6  -1544580.47921        12.750           0.563
  23608064.836    -1451099.907 5  -1107628.53221         9.750           0.469
  20496752.125       80326.586 6     61761.07921        18.750           1.125
 91  6 26 15 41 30.0000000  0  5G18G 2G11G16G19
  21103707.594     1656911.075 7   1291098.17322        27.250           2.313
  23753416.336    -2685315.411 5  -2092450.61521        11.000           0.406
  23977041.906    -2016857.945 6  -1571575.97621        12.500           0.625
  23603543.188    -1474864.882 5  -1126146.69821         9.000           0.500
  20497340.984       83415.084 6     64167.70221        18.750           1.281
 91  6 26 15 41 45.0000000  0  5G18G 2G11G16G19
  21109939.102     1689656.374 7   1316613.96122        27.250           2.281
  23744273.328    -2733356.283 5  -2129885.00421        10.750           0.500
  23970467.594    -2051412.790 6  -1598501.78421        13.000           0.625
  23599040.055    -1498505.853 5  -1144568.21921         8.500           0.375
  20497941.164       86568.240 6     66624.70721        19.000           1.375
 91  6 26 15 42  0.0000000  0  5G18G 2G11G16G19
  21116185.375     1722492.270 7   1342200.35422        26.750           2.344
  23735137.711    -2781366.206 5  -2167295.29321        11.250           0.500
  23963906.055    -2085885.386 6  -1625363.50421        12.750           0.563
  23594569.711    -1522030.247 5  -1162898.94221         9.500           0.313
  20498549.234       89778.422 6     69126.14921        19.250           1.344
 91  6 26 15 42 15.0000000  0  5G18G 2G11G16G19
  21122453.141     1755421.027 7   1367859.10522        27.250           2.375
  23726008.836    -2829342.713 5  -2204679.55121        11.500           0.531
  23957362.383    -2120272.991 6  -1652158.99421        13.250           0.656
  23590111.734    -1545435.487 5  -1181136.81421         9.000           0.313
  20499173.859       93048.040 6     71673.89621        18.750           1.313
 91  6 26 15 42 30.0000000  0  5G18G 2G11G16G19
  21128737.336     1788442.056 7   1393589.74922        27.000           2.281
  23716886.219    -2877286.068 5  -2242037.96721        11.000           0.438
  23950835.188    -2154575.681 6  -1678888.32321        13.750           0.594
  23585679.500    -1568721.848 5  -1199282.02921         9.500           0.375
  20499805.969       96376.432 6     74267.44721        19.250           1.281
 91  6 26 15 42 45.0000000  0  5G18G 2G11G16G19
  21135037.328     1821555.572 7   1419392.45622        26.250           2.156
  23707768.305    -2925195.988 5  -2279370.34221        11.000           0.438
  23944326.227    -2188792.975 6  -1705551.10521        14.750           0.656
  23581274.352    -1591889.011 5  -1217334.36821        10.250           0.344
  20500451.195       99763.733 6     76906.89121        18.500           1.344
 91  6 26 15 43  0.0000000  0  5G18G 2G11G16G19
  21141354.898     1854758.573 7   1445264.90022        26.250           2.250
  23698655.883    -2973074.800 5  -2316678.48121        10.750           0.469
  23937830.320    -2222927.211 6  -1732149.16021        15.000           0.625
  23576884.703    -1614939.438 5  -1235295.73721        10.250           0.469
  20501105.281      103207.238 6     79590.13521        19.000           1.344
 91  6 26 15 43 15.0000000  0  5G18G 2G11G16G19
  21147692.891     1888056.493 7   1471211.30822        26.750           2.313
  23689551.367    -3020916.798 5  -2353957.92621        11.000           0.500
  23931351.539    -2256972.329 6  -1758677.79321        15.250           0.594
  23572522.953    -1637867.474 5  -1253161.75021        10.000           0.344
  20501774.578      106712.613 6     82321.59621        18.250           1.344
 91  6 26 15 43 30.0000000  0  5G18G 2G11G16G19
  21154046.734     1921445.289 7   1497228.53722        26.750           2.313
  23680454.391    -3068725.804 5  -2391211.65721        11.250           0.406
  23924888.938    -2290932.023 6  -1785139.84221        15.000           0.688
  23568181.719    -1660676.896 5  -1270935.34221        10.000           0.313
  20502450.727      110275.734 6     85098.05121        18.750           1.344
 91  6 26 15 43 45.0000000  0  5G18G 2G11G16G19
  21160417.203     1954928.933 7   1523319.66322        26.000           2.188
  23671362.977    -3116497.258 5  -2428436.14021        11.250           0.406
  23918443.344    -2324801.492 6  -1811531.58621        14.250           0.563
  23563865.586    -1683363.037 5  -1288612.86821        11.250           0.406
  20503141.258      113900.966 6     87922.90121        18.250           1.375
 91  6 26 15 44  0.0000000  0  5G18G 2G11G16G19
  21166807.352     1988502.541 7   1549480.89622        26.250           2.344
  23662281.328    -3164236.051 5  -2465635.15821        11.500           0.563
  23912015.703    -2358585.337 6  -1837856.61521        14.000           0.656
  23559574.875    -1705930.668 6  -1306198.05021        12.000           0.438
  20503840.250      117583.292 6     90792.23821        19.250           1.375
 91  6 26 15 44 15.0000000  0  5G18G 2G11G16G19
  21173212.852     2022168.009 7   1575713.69222        26.000           2.219
  23653204.211    -3211939.973 6  -2502807.01221        12.250           0.438
  23905601.938    -2392281.260 6  -1864113.12921        13.250           0.531
  23555301.742    -1728377.520 5  -1323689.10221        11.750           0.313
  20504554.969      121324.690 6     93707.60821        18.250           1.344
 91  6 26 15 44 30.0000000  0  5G18G 2G11G16G19
  21179637.086     2055922.392 7   1602015.77922        26.250           2.156
  23644132.563    -3259611.386 6  -2539953.53721        12.750           0.531
  23899206.617    -2425891.593 6  -1890302.94721        13.250           0.594
  23551053.242    -1750706.155 5  -1341088.05421        11.500           0.344
  20505274.359      125122.433 6     96666.88021        19.000           1.281
 91  6 26 15 44 45.0000000  0  5G18G 2G11G16G19
  21186078.469     2089767.826 7   1628388.82022        26.250           2.063
  23635067.063    -3307248.106 6  -2577073.02721        12.750           0.531
  23892828.500    -2459413.729 6  -1916424.04021        13.250           0.656
  23546824.453    -1772914.159 5  -1358392.97921        11.250           0.438
  20506008.719      128978.616 6     99671.69521        18.000           1.281
 91  6 26 15 45  0.0000000  0  5G18G 2G11G16G19
  21192535.688     2123703.363 7   1654832.06622        25.750           2.094
  23626006.266    -3354850.605 6  -2614165.83221        12.750           0.563
  23886467.516    -2492848.147 6  -1942476.79121        14.000           0.656
  23542621.156    -1795002.494 5  -1375604.69021        11.000           0.406
  20506753.469      132892.322 6    102721.33021        18.750           1.219
 91  6 26 15 45 15.0000000  0  5G18G 2G11G16G19
  21199009.086     2157727.906 7   1681344.67122        26.000           2.094
  23616955.133    -3402419.742 6  -2651232.66021        13.250           0.625
  23880120.508    -2526195.543 6  -1968461.72021        13.750           0.688
  23538441.203    -1816971.823 5  -1392723.64121        10.500           0.469
  20507511.188      136862.459 6    105814.94521        18.250           1.281
 91  6 26 15 45 30.0000000  0  5G18G 2G11G16G19
  21205501.602     2191843.573 7   1707928.27422        25.750           2.156
  23607909.953    -3449953.293 6  -2688271.74121        13.500           0.594
  23873789.211    -2559453.334 6  -1994376.84121        12.750           0.719
  23534281.875    -1838819.882 5  -1409748.11321        11.000           0.406
  20508277.391      140891.002 6    108954.06321        18.750           1.313
 91  6 26 15 45 45.0000000  0  5G18G 2G11G16G19
  21212011.742     2226050.426 7   1734582.93322        26.000           2.063
  23598871.609    -3497450.783 6  -2725282.73121        13.750           0.563
  23867478.781    -2592620.926 6  -2020221.68421        13.000           0.719
  23530149.023    -1860546.042 5  -1426677.59221        11.000           0.438
  20509055.961      144978.437 6    112139.07921        18.000           1.250
 91  6 26 15 46  0.0000000  0  5G18G 2G11G16G19
  21218537.078     2260348.306 7   1761308.52622        26.250           2.094
  23589840.430    -3544911.807 6  -2762265.31621        13.750           0.563
  23861184.594    -2625697.764 6  -2045995.79821        12.750           0.750
  23526037.992    -1882150.165 5  -1443511.97221        11.500           0.500
  20509842.258      149124.930 6    115370.10321        18.500           1.313
 91  6 26 15 46 15.0000000  0  5G18G 2G11G16G19
  21225081.195     2294735.132 7   1788103.43422        26.000           2.125
  23580814.516    -3592338.003 6  -2799220.74621        14.000           0.625
  23854906.672    -2658685.258 6  -2071700.29721        12.500           0.656
  23521952.234    -1903633.964 6  -1460252.60821        12.000           0.438
  20510644.070      153328.626 6    118645.71021        17.750           1.438
 91  6 26 15 46 30.0000000  0  5G18G 2G11G16G19
  21231639.563     2329205.181 7   1814963.19022        25.750           2.031
  23571794.492    -3639734.812 6  -2836153.29421        14.250           0.531
  23848646.016    -2691588.882 6  -2097339.44921        13.000           0.656
  23517884.227    -1925003.085 6  -1476903.86721        12.000           0.469
  20511452.320      157583.544 6    121961.22721        18.000           1.219
 91  6 26 15 46 45.0000000  0  5G18G 2G11G16G19
  21238217.102     2363765.889 7   1841893.58722        26.250           2.344
  23562787.828    -3687094.593 6  -2873056.99221        14.500           0.563
  23842401.945    -2724400.649 6  -2122907.01821        13.250           0.719
  23513840.641    -1946249.307 5  -1493459.38121        11.750           0.406
  20512273.758      161897.247 6    125322.55221        17.250           1.375
 91  6 26 15 47  0.0000000  0  5G18G 2G11G16G19
  21244812.438     2398420.622 7   1868897.24222        26.250           2.375
  23553780.664    -3734413.787 6  -2909929.05221        14.250           0.625
  23836173.570    -2757116.717 6  -2148400.01521        13.000           0.719
  23509822.820    -1967369.142 5  -1509916.39321        11.750           0.469
  20513105.336      166273.339 6    128732.48521        18.000           1.250
 91  6 26 15 47 15.0000000  0  5G18G 2G11G16G19
  21251425.000     2433171.417 7   1895975.75722        25.750           2.438
  23544782.836    -3781689.851 6  -2946767.50821        14.250           0.625
  23829969.445    -2789734.452 6  -2173816.40121        13.750           0.688
  23505827.711    -1988360.281 5  -1526273.12721        11.750           0.406
  20513953.211      170714.093 6    132192.81321        17.750           1.375
 91  6 26 15 47 30.0000000  0  5G18G 2G11G16G19
  21258054.281     2468012.113 7   1923124.33222        25.250           2.375
  23535795.156    -3828928.686 6  -2983576.95921        14.750           0.563
  23823781.102    -2822259.470 6  -2199160.54221        13.750           0.719
  23501856.742    -2009228.789 6  -1542534.31721        12.000           0.469
  20514806.641      175213.353 6    135698.73121        18.250           1.438
 91  6 26 15 47 45.0000000  0  5G18G 2G11G16G19
  21264701.797     2502945.640 7   1950345.23222        25.000           2.375
  23526813.914    -3876127.253 6  -3020355.03121        14.750           0.500
  23817609.539    -2854688.581 6  -2224429.94621        13.500           0.563
  23497909.789    -2029971.373 5  -1558697.37721        11.500           0.500
  20515678.117      179773.912 6    139252.41021        18.250           1.313
 91  6 26 15 48  0.0000000  0  5G18G 2G11G16G19
  21271367.117     2537971.150 7   1977637.81122        24.750           2.469
  23517839.859    -3923286.163 6  -3057102.19621        14.750           0.594
  23811458.070    -2887022.091 6  -2249624.85621        14.000           0.688
  23493985.484    -2050588.584 5  -1574762.74121        11.000           0.531
  20516557.695      184394.843 6    142853.13221        18.000           1.375
 91  6 26 15 48 15.0000000  0  5G18G 2G11G16G19
  21278052.227     2573098.630 7   2005009.84923        25.250           2.594
  23508874.422    -3970394.553 6  -3093810.00621        14.000           0.531
  23805324.281    -2919249.107 6  -2274736.77721        13.750           0.750
  23490088.125    -2071069.779 5  -1590722.13321        11.250           0.531
  20517450.047      189086.731 6    146509.14921        18.250           1.281
 91  6 26 15 48 30.0000000  0  5G18G 2G11G16G19
  21284754.484     2608327.593 7   2032460.96122        25.000           2.406
  23499917.320    -4017452.942 6  -3130478.84621        14.000           0.531
  23799211.945    -2951369.932 6  -2299765.97321        14.000           0.719
  23486214.578    -2091415.338 5  -1606575.82321        11.000           0.438
  20518351.273      193849.150 6    150220.12921        19.000           1.438
 91  6 26 15 48 45.0000000  0  5G18G 2G11G16G19
  21291477.547     2643645.488 7   2059981.36622        25.250           2.406
  23490971.297    -4064473.526 6  -3167118.23521        14.250           0.500
  23793116.781    -2983396.633 6  -2324721.81421        14.250           0.688
  23482369.297    -2111637.661 5  -1622333.50521        11.500           0.406
  20519273.719      198669.671 6    153976.38121        17.750           1.375
 91  6 26 15 49  0.0000000  0  5G18G 2G11G16G19
  21298214.891     2679056.510 7   2087574.33522        25.000           2.469
  23482031.531    -4111451.567 6  -3203724.45521        14.750           0.625
  23787038.344    -3015324.397 6  -2349600.55721        14.250           0.656
  23478544.664    -2131732.038 5  -1637991.46021        11.500           0.531
  20520201.570      203552.598 6    157781.25121        17.500           1.375
 91  6 26 15 49 15.0000000  0  5G18G 2G11G16G19
  21304970.797     2714558.612 7   2115238.28623        25.500           2.531
  23473099.609    -4158388.714 6  -3240298.81921        14.750           0.594
  23780982.570    -3047154.611 6  -2374403.27921        14.250           0.656
  23474744.836    -2151700.359 5  -1653551.19421        11.000           0.500
  20521142.539      208496.064 6    161633.30721        17.500           1.406
 91  6 26 15 49 30.0000000  0  5G18G 2G11G16G19
  21311744.867     2750148.932 7   2142970.97023        25.500           2.500
  23464176.594    -4205287.656 6  -3276843.40821        15.000           0.531
  23774945.609    -3078889.638 6  -2399131.83821        14.500           0.688
  23470968.406    -2171544.823 5  -1669014.40921        10.500           0.469
  20522095.125      213497.407 6    165530.44821        17.750           1.281
 91  6 26 15 49 45.0000000  0  5G18G 2G11G16G19
  21318533.688     2785836.162 7   2170779.17422        25.750           2.406
  23455260.367    -4252139.529 6  -3313351.33121        14.500           0.625
  23768925.070    -3110520.558 6  -2423779.28021        14.500           0.688
  23467217.023    -2191256.763 5  -1684374.36521        10.000           0.406
  20523057.195      218565.234 6    169479.40821        17.250           1.406
 91  6 26 15 50  0.0000000  0  5G18G 2G11G16G19
  21325344.539     2821616.922 7   2198660.26022        25.750           2.313
  23446353.242    -4298947.477 6  -3349825.00521        15.000           0.656
  23762924.867    -3142050.294 6  -2448347.88121        14.500           0.625
  23463489.492    -2210839.539 5  -1699633.66921        10.000           0.500
  20524035.977      223696.016 6    173477.41621        17.250           1.375
 91  6 26 15 50 15.0000000  0  5G18G 2G11G16G19
  21332168.531     2857483.674 7   2226608.34022        25.250           2.469
  23437451.570    -4345718.482 6  -3386269.90521        14.750           0.625
  23756943.914    -3173485.601 6  -2472842.89121        15.000           0.719
  23459787.586    -2230299.864 5  -1714797.55621        10.500           0.500
  20525021.969      228882.676 6    177518.97221        17.000           1.313
 91  6 26 15 50 30.0000000  0  5G18G 2G11G16G19
  21339011.578     2893439.200 7   2254625.60322        25.500           2.313
  23428558.336    -4392449.415 6  -3422683.58721        14.500           0.625
  23750980.617    -3204823.171 6  -2497261.75221        15.250           0.688
  23456107.789    -2249634.698 5  -1729863.68721        10.750           0.500
  20526021.852      234128.035 6    181606.26621        16.750           1.313
 91  6 26 15 50 45.0000000  0  5G18G 2G11G16G19
  21345872.078     2929486.419 7   2282714.31522        25.250           2.344
  23419674.766    -4439137.180 6  -3459063.62021        15.000           0.563
  23745033.680    -3236059.803 6  -2521601.96521        14.500           0.750
  23452455.250    -2268841.171 6  -1744829.76121        12.250           0.406
  20527029.859      239434.939 6    185741.51421        16.750           1.344
 91  6 26 15 51  0.0000000  0  5G18G 2G11G16G19
  21352746.570     2965623.566 7   2310873.10222        24.750           2.344
  23410799.898    -4485783.134 6  -3495411.08021        15.250           0.594
  23739113.211    -3267196.646 6  -2545864.42321        15.750           0.625
  23448824.086    -2287920.354 6  -1759696.66621        12.500           0.469
  20528047.422      244802.004 6    189923.63321        17.750           1.281
 91  6 26 15 51 15.0000000  0  5G18G 2G11G16G19
  21359640.695     3001850.428 7   2339101.80122        24.750           2.281
  23401930.930    -4532387.212 6  -3531725.90621        15.000           0.625
  23733206.953    -3298233.511 6  -2570048.96521        15.250           0.688
  23445218.344    -2306872.332 6  -1774464.44321        13.250           0.375
  20529082.789      250228.927 6    194152.40321        17.000           1.281
 91  6 26 15 51 30.0000000  0  5G18G 2G11G16G19
  21366553.242     3038167.387 7   2367400.70022        25.250           2.313
  23393069.844    -4578948.614 6  -3568007.46021        14.750           0.594
  23727318.547    -3329169.446 6  -2594154.85921        15.000           0.594
  23441634.359    -2325696.674 6  -1789132.76721        12.750           0.469
  20530129.602      255716.339 6    198428.30721        17.000           1.281
 91  6 26 15 51 45.0000000  0  5G18G 2G11G16G19
  21373480.125     3074576.790 7   2395771.62022        24.500           2.344
  23384217.438    -4625464.638 6  -3604253.66821        14.500           0.750
  23721452.898    -3360001.576 6  -2618179.86821        14.750           0.625
  23438079.242    -2344390.427 6  -1803699.32421        13.250           0.500
  20531184.750      261266.648 6    202753.21321        18.000           1.375
 91  6 26 15 52  0.0000000  0  5G18G 2G11G16G19
  21380427.063     3111078.140 7   2424214.19222        25.000           2.094
  23375374.930    -4671935.540 6  -3640464.70021        15.000           0.813
  23715603.609    -3390729.976 6  -2642124.05021        13.750           0.594
  23434544.391    -2362953.924 6  -1818164.41021        12.250           0.500
  20532251.086      266879.429 6    207126.80521        18.750           1.438
 91  6 26 15 52 15.0000000  0  5G18G 2G11G16G19
  21387391.320     3147671.511 7   2452728.47222        25.500           2.156
  23366541.047    -4718360.728 6  -3676640.12521        15.250           0.750
  23709775.750    -3421353.884 6  -2665986.82421        14.000           0.688
  23431036.953    -2381386.621 5  -1832527.56521        11.250           0.469
  20533333.031      272554.999 6    211549.32421        18.500           1.406
 91  6 26 15 52 30.0000000  0  5G18G 2G11G16G19
  21394369.719     3184349.412 7   2481308.62522        25.500           2.094
  23357713.625    -4764747.690 6  -3712785.75621        15.000           0.750
  23703966.727    -3451880.419 6  -2689773.71821        14.500           0.688
  23427552.734    -2399696.084 5  -1846794.68621        10.750           0.563
  20534420.766      278285.817 6    216014.88822        19.500           1.500
 91  6 26 15 52 45.0000000  0  5G18G 2G11G16G19
  21401364.930     3221109.980 7   2509953.18922        25.750           2.063
  23348893.141    -4811097.876 6  -3748902.73721        15.250           0.750
  23698174.391    -3482311.027 6  -2713485.86521        13.500           0.656
  23424093.164    -2417883.571 5  -1860966.75821        11.250           0.625
  20535523.570      284070.261 6    220522.25022        18.500           1.563
 91  6 26 15 53  0.0000000  0  5G18G 2G11G16G19
  21408376.945     3257958.958 7   2538666.64122        25.500           2.125
  23340082.563    -4857405.064 6  -3784986.22321        15.250           0.813
  23692402.609    -3512639.457 6  -2737118.38021        13.750           0.719
  23420656.188    -2435943.206 5  -1875039.20521        11.250           0.563
  20536635.828      289914.170 6    225075.94622        18.750           1.594
 91  6 26 15 53 15.0000000  0  5G18G 2G11G16G19
  21415405.523     3294896.168 7   2567448.84222        25.250           2.063
  23331278.063    -4903669.092 6  -3821036.04921        14.750           0.656
  23686651.898    -3542865.130 6  -2760670.83721        13.750           0.719
  23417243.203    -2453874.708 5  -1889011.79521        11.500           0.625
  20537760.492      295817.690 6    229676.08421        18.500           1.469
 91  6 26 15 53 30.0000000  0  5G18G 2G11G16G19
  21422452.766     3331920.099 7   2596298.62122        25.500           2.063
  23322481.102    -4949891.037 6  -3857053.12021        15.000           0.781
  23680918.414    -3572989.013 6  -2784143.97221        13.250           0.719
  23413856.117    -2471679.226 5  -1902885.43021        11.750           0.594
  20538892.555      301779.456 6    234321.60921        19.000           1.313
 91  6 26 15 53 45.0000000  0  5G18G 2G11G16G19
  21429514.648     3369035.901 7   2625219.98322        25.250           2.031
  23313695.039    -4996065.707 6  -3893033.34621        14.750           0.594
  23675205.289    -3603005.732 6  -2807533.60221        13.250           0.813
  23410493.945    -2489351.407 6  -1916655.95521        12.500           0.531
  20540040.563      307804.501 6    239016.44221        18.250           1.375
 91  6 26 15 54  0.0000000  0  5G18G 2G11G16G19
  21436596.703     3406242.768 7   2654212.30922        26.000           2.188
  23304916.938    -5042193.254 6  -3928976.85721        15.000           0.719
  23669512.031    -3632915.407 6  -2830839.82821        12.750           0.750
  23407154.438    -2506891.851 5  -1930323.85821        11.750           0.656
  20541200.461      313892.270 6    243760.15421        18.000           1.438
 91  6 26 15 54 15.0000000  0  5G18G 2G11G16G19
  21443691.352     3443539.609 7   2683274.75522        25.000           2.125
  23296146.625    -5088274.702 6  -3964884.44521        15.250           0.750
  23663845.242    -3662718.834 6  -2854063.25521        13.750           0.781
  23403838.945    -2524301.388 6  -1943889.75921        12.000           0.563
  20542368.422      320041.677 6    248551.89321        17.750           1.375
 91  6 26 15 54 30.0000000  0  5G18G 2G11G16G19
  21450805.664     3480927.184 7   2712407.90022        24.750           2.125
  23287388.086    -5134308.638 6  -4000755.01521        15.000           0.750
  23658192.586    -3692414.430 6  -2877202.66221        14.000           0.844
  23400555.813    -2541578.652 6  -1957352.56421        12.500           0.719
  20543548.695      326253.993 6    253392.65321        18.000           1.313
 91  6 26 15 54 45.0000000  0  5G18G 2G11G16G19
  21457938.234     3518401.355 7   2741608.51122        25.250           2.219
  23278637.734    -5180299.210 6  -4036591.77821        15.000           0.688
  23652563.813    -3722006.130 6  -2900261.11921        14.250           0.844
  23397291.711    -2558727.713 6  -1970715.47221        12.500           0.688
  20544743.734      332524.851 6    258279.03521        17.500           1.219
 91  6 26 15 55  0.0000000  0  5G18G 2G11G16G19
  21465085.500     3555963.222 7   2770877.44922        25.000           2.219
  23269893.469    -5226244.931 6  -4072393.61121        14.750           0.625
  23646952.695    -3751492.218 6  -2923237.26721        15.250           1.000
  23394051.836    -2575747.057 6  -1983977.29921        12.000           0.656
  20545947.711      338855.589 6    263212.07321        18.000           1.250
 91  6 26 15 55 15.0000000  0  5G18G 2G11G16G19
  21472248.391     3593611.632 7   2800213.82822        24.250           2.156
  23261158.664    -5272146.549 6  -4108161.06521        14.750           0.750
  23641362.523    -3780873.368 6  -2946131.66021        15.750           0.969
  23390837.016    -2592637.693 5  -1997138.84121        11.750           0.563
  20547165.438      345245.064 6    268190.88621        18.000           1.375
 91  6 26 15 55 30.0000000  0  5G18G 2G11G16G19
  21479431.023     3631346.814 7   2829617.82322        24.000           2.281
  23252433.938    -5318003.573 6  -4143893.76821        14.500           0.688
  23635790.680    -3810148.898 6  -2968943.74721        15.750           1.000
  23387647.742    -2609399.245 6  -2010199.80221        12.000           0.500
  20548389.758      351693.677 6    273215.76721        18.750           1.313
 91  6 26 15 55 45.0000000  0  5G18G 2G11G16G19
  21486627.016     3669168.283 7   2859089.05722        23.750           2.250
  23243713.375    -5363815.927 6  -4179591.67321        14.250           0.688
  23630240.586    -3839318.500 6  -2991673.28921        15.750           1.125
  23384483.266    -2626031.318 6  -2023159.86421        12.250           0.469
  20549631.063      358201.374 6    278286.70121        18.500           1.344
 91  6 26 15 56  0.0000000  0  5G18G 2G11G16G19
  21493841.352     3707069.409 7   2888622.36022        24.750           2.094
  23235002.383    -5409590.050 6  -4215259.78621        13.750           0.781
  23624708.094    -3868388.685 6  -3014325.37421        15.500           1.219
  23381342.938    -2642540.783 6  -2036024.35421        12.500           0.438
  20550877.477      364761.307 6    283398.32521        19.000           1.406
 91  6 26 15 56 15.0000000  0  5G18G 2G11G16G19
  21501071.039     3745057.578 7   2918223.47822        25.000           2.094
  23226302.695    -5455318.207 6  -4250892.07221        14.000           0.719
  23619194.922    -3897351.334 6  -3036893.66221        15.000           1.188
  23378224.305    -2658919.855 6  -2048787.27721        12.000           0.531
  20552139.266      371380.953 6    288556.48822        18.500           1.500
 91  6 26 15 56 30.0000000  0  5G18G 2G11G16G19
  21508313.367     3783128.883 7   2947889.38322        24.250           2.063
  23217609.398    -5501003.872 6  -4286491.23221        14.250           0.719
  23613704.672    -3926209.822 6  -3059380.77621        15.500           1.063
  23375131.070    -2675171.799 5  -2061451.14321        11.750           0.406
  20553406.859      378056.727 6    293758.38421        19.500           1.469
 91  6 26 15 56 45.0000000  0  5G18G 2G11G16G19
  21515573.898     3821285.225 7   2977621.55622        24.250           2.125
  23208921.469    -5546644.797 6  -4322055.53621        14.000           0.781
  23608232.500    -3954961.588 6  -3081784.73421        15.750           1.156
  23372064.641    -2691294.881 6  -2074014.58721        12.250           0.313
  20554691.195      384790.797 6    299005.70622        18.750           1.594
 91  6 26 15 57  0.0000000  0  5G18G 2G11G16G19
  21522854.352     3859536.272 7   3007427.53522        24.500           2.219
  23200247.648    -5592230.952 6  -4357577.17321        13.500           0.750
  23602784.711    -3983596.637 6  -3104097.73521        16.750           1.094
  23369021.836    -2707278.987 6  -2086469.75721        12.250           0.406
  20555982.602      391593.103 6    304306.19322        18.750           1.500
 91  6 26 15 57 15.0000000  0  5G18G 2G11G16G19
  21530151.281     3897877.907 7   3037304.09222        25.000           2.063
  23191582.898    -5637766.332 6  -4393059.24421        14.250           0.844
  23597358.156    -4012118.715 6  -3126322.71621        17.250           1.063
  23366007.570    -2723127.887 6  -2098819.57221        12.500           0.375
  20557290.852      398459.300 6    309656.47122        17.250           1.594
 91  6 26 15 57 30.0000000  0  5G18G 2G11G16G19
  21537462.047     3936306.668 7   3067248.54722        24.500           1.969
  23182926.094    -5683253.815 6  -4428503.98621        14.250           0.875
  23591950.625    -4040530.591 6  -3148461.82321        17.000           1.188
  23363014.164    -2738844.719 6  -2111066.44621        12.000           0.344
  20558607.742      405386.246 6    315054.08921        18.250           1.438
 91  6 26 15 57 45.0000000  0  5G18G 2G11G16G19
  21544793.422     3974822.173 7   3097260.59122        24.750           1.844
  23174277.711    -5728693.801 6  -4463911.71121        14.000           0.844
  23586564.625    -4068832.409 6  -3170515.16321        17.250           1.156
  23360048.492    -2754429.937 5  -2123210.77121        11.250           0.500
  20559938.977      412373.411 6    320498.62622        17.500           1.594
 91  6 26 15 58  0.0000000  0  5G18G 2G11G16G19
  21552138.094     4013421.887 7   3127338.24922        24.250           1.938
  23165641.234    -5774088.047 6  -4499283.80621        14.250           0.813
  23581199.531    -4097025.903 6  -3192484.09321        16.750           1.188
  23357107.688    -2769885.404 5  -2135253.99221        11.750           0.531
  20561279.156      419418.795 6    325988.52721        18.250           1.406
 91  6 26 15 58 15.0000000  0  5G18G 2G11G16G19
  21559500.734     4052112.740 7   3157486.91622        24.750           1.906
  23157013.414    -5819429.512 6  -4534614.76021        15.000           1.000
  23575857.453    -4125103.862 6  -3214363.01921        17.000           1.219
  23354191.164    -2785204.068 5  -2147190.61721        10.750           0.656
  20562634.148      426529.203 6    331529.09822        17.750           1.594
 91  6 26 15 58 30.0000000  0  5G18G 2G11G16G19
  21566880.195     4090892.877 7   3187705.16322        24.500           2.000
  23148393.563    -5864719.696 6  -4569905.76621        14.750           0.906
  23570536.156    -4153067.579 6  -3236152.91021        17.250           1.156
  23351305.813    -2800387.493 5  -2159021.84121        11.750           0.500
  20563995.344      433702.938 6    337119.00822        18.500           1.625
 91  6 26 15 58 45.0000000  0  5G18G 2G11G16G19
  21574276.367     4129760.894 7   3217991.89322        24.250           1.969
  23139785.188    -5909959.732 6  -4605157.69621        15.250           1.000
  23565237.039    -4180918.051 6  -3257854.55521        17.250           1.125
  23348438.836    -2815436.989 5  -2170748.72821        11.750           0.531
  20565373.875      440938.710 6    342757.27022        17.750           1.531
 91  6 26 15 59  0.0000000  0  5G18G 2G11G16G19
  21581688.305     4168715.452 7   3248346.05722        23.750           1.938
  23131186.336    -5955150.508 6  -4640371.23421        15.500           1.000
  23559955.859    -4208656.113 6  -3279468.60721        16.750           1.094
  23345601.297    -2830353.818 6  -2182372.24221        12.000           0.500
  20566762.148      448235.317 6    348442.92522        18.750           1.500
 91  6 26 15 59 15.0000000  0  5G18G 2G11G16G19
  21589117.914     4207755.626 7   3278766.93222        23.750           1.781
  23122595.953    -6000292.791 6  -4675546.98921        15.500           1.063
  23554701.188    -4236282.037 6  -3300995.28921        17.000           1.063
  23342788.156    -2845138.199 5  -2193892.53121        11.500           0.563
  20568161.594      455592.190 6    354175.54621        18.000           1.438
 91  6 26 15 59 30.0000000  0  5G18G 2G11G16G19
  21596562.320     4246874.903 7   3309249.44222        23.750           1.875
  23114013.094    -6045392.870 6  -4710689.85821        15.500           1.094
  23549461.664    -4263802.187 6  -3322439.53621        16.750           1.156
  23339999.906    -2859796.382 5  -2205314.48121        11.750           0.563
  20569570.063      463002.645 6    359949.92521        18.500           1.438
 91  6 26 15 59 45.0000000  0  5G18G 2G11G16G19
  21604023.273     4286081.348 7   3339799.87222        23.500           1.938
  23105441.156    -6090441.905 6  -4745792.95021        15.500           0.938
  23544246.531    -4291207.548 6  -3343794.33921        16.500           1.031
  23337235.047    -2874319.910 6  -2216631.53221        12.000           0.500
  20570994.695      470475.207 6    365772.69921        18.000           1.406
 91  6 26 16  0  0.0000000  0  5G18G 2G11G16G19
  21611499.969     4325372.425 7   3370416.26122        23.500           1.938
  23096875.188    -6135442.073 6  -4780857.97721        15.250           1.094
  23539052.688    -4318500.163 6  -3365061.29721        15.750           0.938
  23334496.273    -2888711.071 5  -2227845.43621        11.750           0.469
  20572427.555      478007.550 6    371642.05021        19.000           1.406
 91  6 26 16  0 15.0000000  0  5G18G 2G11G16G19
  21618992.445     4364749.893 7   3401099.96822        22.750           1.938
  23088324.250    -6180391.601 6  -4815883.53621        15.750           0.969
  23533880.570    -4345678.037 6  -3386238.83221        15.250           0.969
  23331783.695    -2902968.025 6  -2238954.75721        12.500           0.531
  20573873.430      485601.366 6    377559.30621        19.000           1.406
 91  6 26 16  0 30.0000000  0  5G18G 2G11G16G19
  21626501.805     4404215.360 7   3431852.24022        23.000           1.875
  23079781.102    -6225288.222 6  -4850867.87721        16.000           0.969
  23528730.664    -4372738.871 6  -3407325.16121        15.000           1.031
  23329096.156    -2917088.891 5  -2249958.05321        11.250           0.500
  20575333.086      493258.563 6    383525.95321        19.000           1.344
 91  6 26 16  0 45.0000000  0  5G18G 2G11G16G19
  21634028.828     4443766.320 7   3462671.11022        23.500           1.938
  23071247.180    -6270134.322 6  -4885812.83521        15.500           0.906
  23523603.992    -4399684.764 6  -3428321.94321        15.750           0.938
  23326433.820    -2931075.785 5  -2260856.93421        11.000           0.438
  20576800.141      500976.764 6    389540.12821        19.000           1.375
 91  6 26 16  1  0.0000000  0  5G18G 2G11G16G19
  21641572.352     4483400.205 7   3493554.61022        23.750           1.938
  23062720.273    -6314932.025 6  -4920720.09521        14.750           0.938
  23518498.047    -4426517.645 6  -3449230.65321        16.250           0.938
  23323798.031    -2944930.651 5  -2271652.91721        11.250           0.469
  20578276.289      508753.614 7    395600.00421        20.000           1.438
 91  6 26 16  1 15.0000000  0  5G18G 2G11G16G19
  21649130.063     4523123.026 7   3524507.41422        24.000           1.906
  23054207.648    -6359675.145 6  -4955584.81921        15.500           0.969
  23513413.227    -4453231.270 6  -3470046.44321        16.250           1.000
  23321187.508    -2958647.755 5  -2282341.58521        11.250           0.500
  20579770.523      516595.093 6    401710.24422        18.500           1.531
 91  6 26 16  1 30.0000000  0  5G18G 2G11G16G19
  21656704.633     4562928.534 7   3555524.64922        24.250           1.969
  23045701.836    -6404369.459 6  -4990411.51421        16.000           0.875
  23508352.938    -4479831.167 6  -3490773.59621        16.250           0.938
  23318604.086    -2972232.917 5  -2292927.41121        11.750           0.500
  20581275.430      524495.038 6    407866.04222        18.250           1.563
 91  6 26 16  1 45.0000000  0  5G18G 2G11G16G19
  21664298.227     4602819.138 7   3586608.18622        25.000           1.906
  23037205.289    -6449012.171 6  -5025198.00821        15.500           0.875
  23503315.195    -4506314.535 6  -3511409.96021        16.750           0.938
  23316041.047    -2985683.497 5  -2303408.40621        11.250           0.375
  20582789.625      532456.073 6    414069.44122        17.750           1.531
 91  6 26 16  2  0.0000000  0  5G18G 2G11G16G19
  21671903.258     4642793.771 7   3617757.20622        24.000           1.875
  23028721.172    -6493603.896 6  -5059944.75321        16.000           0.938
  23498297.328    -4532681.901 6  -3531955.92721        16.500           0.875
  23313507.172    -2999000.090 5  -2313784.97021        11.750           0.344
  20584316.313      540477.317 6    420319.75322        18.000           1.563
 91  6 26 16  2 15.0000000  0  5G18G 2G11G16G19
  21679526.961     4682855.349 7   3648973.97522        23.750           1.938
  23020245.680    -6538141.486 6  -5094649.32121        16.250           0.844
  23493302.063    -4558929.868 6  -3552408.86221        16.250           0.844
  23311002.398    -3012179.764 6  -2324054.86021        12.000           0.313
  20585854.789      548561.865 6    426619.39422        17.750           1.531
 91  6 26 16  2 30.0000000  0  5G18G 2G11G16G19
  21687165.898     4723000.599 7   3680255.94822        23.750           1.938
  23011780.898    -6582628.093 6  -5129314.16321        16.250           0.938
  23488327.047    -4585061.332 6  -3572771.00421        15.500           0.813
  23308519.406    -3025225.554 6  -2334220.41921        12.000           0.406
  20587405.977      556706.652 6    432965.97422        18.250           1.531
 91  6 26 16  2 45.0000000  0  5G18G 2G11G16G19
  21694821.414     4763230.259 7   3711603.68822        24.000           1.969
  23003325.813    -6627062.451 6  -5163938.29521        16.250           0.938
  23483378.602    -4611074.900 6  -3593041.29221        15.750           0.844
  23306061.773    -3038136.016 5  -2344280.51921        11.750           0.531
  20588965.938      564912.635 6    439360.23922        18.250           1.563
 91  6 26 16  3  0.0000000  0  5G18G 2G11G16G19
  21702493.172     4803539.887 7   3743013.73922        24.000           1.969
  22994878.492    -6671448.705 6  -5198524.93221        16.250           0.875
  23478451.547    -4636974.789 6  -3613222.98321        16.750           0.688
  23303630.602    -3050915.654 5  -2354238.71021        11.500           0.344
  20590540.117      573175.250 6    445798.63321        17.750           1.469
 91  6 26 16  3 15.0000000  0  5G18G 2G11G16G19
  21710180.648     4843934.778 7   3774490.22922        23.500           1.875
  22986441.773    -6715781.065 6  -5233069.58321        15.750           0.906
  23473545.164    -4662754.970 6  -3633311.40321        17.000           0.844
  23301225.125    -3063558.939 6  -2364090.63521        12.000           0.469
  20592122.555      581500.078 6    452285.50922        18.500           1.531
 91  6 26 16  3 30.0000000  0  5G18G 2G11G16G19
  21717880.609     4884410.806 7   3806029.94022        22.500           1.938
  22978017.039    -6760063.448 6  -5267575.27421        16.250           0.906
  23468660.141    -4688419.209 6  -3653309.49321        17.000           0.813
  23298841.484    -3076069.870 5  -2373839.44421        11.750           0.406
  20593716.203      589883.072 6    458817.70721        19.500           1.438
 91  6 26 16  3 45.0000000  0  5G18G 2G11G16G19
  21725598.938     4924968.739 7   3837633.48322        22.500           1.938
  22969597.984    -6804294.546 6  -5302041.02021        16.250           0.969
  23463800.234    -4713966.075 6  -3673216.10921        17.250           0.938
  23296490.313    -3088446.957 6  -2383483.93821        12.750           0.500
  20595324.727      598325.407 6    465396.14721        18.500           1.469
 91  6 26 16  4  0.0000000  0  5G18G 2G11G16G19
  21733334.000     4965610.108 7   3869302.03322        23.000           1.844
  22961190.430    -6848472.675 6  -5336465.49021        16.000           0.781
  23458958.922    -4739393.538 6  -3693029.68721        17.000           0.844
  23294161.578    -3100688.418 6  -2393022.74421        12.500           0.531
  20596944.719      606828.959 6    472022.29522        17.500           1.500
 91  6 26 16  4 15.0000000  0  5G18G 2G11G16G19
  21741083.461     5006331.298 7   3901032.78122        23.000           1.781
  22952794.297    -6892601.108 6  -5370851.23721        16.250           0.906
  23454142.836    -4764704.985 6  -3712752.85521        17.250           0.781
  23291854.594    -3112797.916 6  -2402458.73621        12.500           0.438
  20598571.516      615389.883 6    478693.13621        18.000           1.344
 91  6 26 16  4 30.0000000  0  5G18G 2G11G16G19
  21748848.102     5047138.550 7   3932830.58322        22.000           1.938
  22944408.039    -6936673.169 6  -5405193.05221        16.500           0.875
  23449351.648    -4789893.650 6  -3732380.35421        17.500           0.781
  23289576.805    -3124769.245 6  -2411787.04821        12.250           0.563
  20600211.523      624014.540 6    485413.64421        18.500           1.406
 91  6 26 16  4 45.0000000  0  5G18G 2G11G16G19
  21756629.234     5088027.590 7   3964692.11722        21.750           1.906
  22936031.289    -6980692.776 6  -5439493.99021        16.750           0.844
  23444578.391    -4814963.090 6  -3751914.94721        17.250           0.875
  23287323.898    -3136605.913 5  -2421010.43021        11.500           0.438
  20601863.805      632698.876 6    492180.65121        17.500           1.469
 91  6 26 16  5  0.0000000  0  5G18G 2G11G16G19
  21764425.664     5129000.803 7   3996619.25022        22.000           2.031
  22927665.617    -7024657.242 6  -5473751.96221        17.000           0.844
  23439831.883    -4839910.456 6  -3771354.42921        17.500           0.750
  23285097.367    -3148305.101 5  -2430126.68621        10.750           0.469
  20603526.477      641445.404 6    498996.13221        18.500           1.375
 91  6 26 16  5 15.0000000  0  5G18G 2G11G16G19
  21772239.438     5170059.270 7   4028612.80522        22.750           1.969
  22919310.672    -7068565.290 6  -5507965.97021        16.750           1.000
  23435107.063    -4864734.427 6  -3790697.75021        17.500           0.813
  23282893.289    -3159865.956 5  -2439135.15321         9.000           0.594
  20605206.133      650255.479 6    505861.12121        17.750           1.469
 91  6 26 16  5 30.0000000  0  5G18G 2G11G16G19
  21780067.859     5211198.669 7   4060669.42422        22.500           2.031
  22910965.023    -7112420.711 6  -5542138.96621        16.750           0.875
  23430406.719    -4889438.766 6  -3809947.86521        17.500           0.750
  23280721.953    -3171292.368 5  -2448038.84221         9.750           0.563
  20606895.359      659124.842 6    512772.30321        18.250           1.375
 91  6 26 16  5 45.0000000  0  5G18G 2G11G16G19
  21787913.391     5252422.386 7   4092791.75122        22.000           1.938
  22902629.180    -7156219.653 6  -5576267.97421        16.750           0.906
  23425728.594    -4914019.507 6  -3829101.65621        17.500           0.813
  23278575.578    -3182580.767 5  -2456835.00921        11.000           0.531
  20608594.977      668057.168 6    519732.54221        18.000           1.375
 91  6 26 16  6  0.0000000  0  5G18G 2G11G16G19
  21795774.102     5293726.594 7   4124976.80622        21.750           2.000
  22894303.953    -7199965.697 6  -5610355.74721        17.000           0.969
  23421076.445    -4938479.914 6  -3848161.68121        18.000           0.813
  23276455.164    -3193734.532 5  -2465526.25721        11.750           0.656
  20610303.273      677048.867 6    526739.05221        18.000           1.438
 91  6 26 16  6 15.0000000  0  5G18G 2G11G16G19
  21803647.789     5335109.241 7   4157222.97322        22.250           1.844
  22885991.305    -7243660.573 6  -5644403.65121        17.500           1.000
  23416444.578    -4962821.617 6  -3867129.21521        18.000           0.781
  23274356.477    -3204755.291 6  -2474113.87421        12.000           0.656
  20612026.953      686098.067 6    533790.37521        17.250           1.375
 91  6 26 16  6 30.0000000  0  5G18G 2G11G16G19
  21811539.406     5376577.006 7   4189535.48122        23.000           1.938
  22877684.969    -7287297.114 6  -5678406.09821        17.000           0.906
  23411835.875    -4987037.359 6  -3885998.58521        17.500           0.781
  23272288.195    -3215636.256 6  -2482592.55921        12.750           0.625
  20613760.969      695211.586 6    540891.81321        16.500           1.469
 91  6 26 16  6 45.0000000  0  5G18G 2G11G16G19
  21819446.352     5418126.313 7   4221911.50822        23.250           1.969
  22869390.648    -7330878.775 6  -5712365.79221        17.000           1.000
  23407251.953    -5011130.364 6  -3904772.33421        17.250           0.844
  23270239.969    -3226381.104 5  -2490965.18721        11.750           0.656
  20615505.578      704385.787 6    548040.53721        16.750           1.438
 91  6 26 16  7  0.0000000  0  5G18G 2G11G16G19
  21827368.102     5459755.406 7   4254349.72122        22.500           1.969
  22861110.195    -7374406.850 6  -5746283.72421        17.500           1.000
  23402691.375    -5035101.723 6  -3923451.29221        17.500           0.813
  23268221.695    -3236991.027 5  -2499232.66221        11.750           0.531
  20617262.914      713619.204 6    555235.40322        18.000           1.531
 91  6 26 16  7 15.0000000  0  5G18G 2G11G16G19
  21835303.023     5501465.479 7   4286851.02822        21.250           1.875
  22852836.148    -7417880.071 6  -5780158.91321        17.500           1.000
  23398153.086    -5058950.132 6  -3942034.45421        17.500           0.875
  23266227.969    -3247464.634 5  -2507393.93121        11.500           0.438
  20619032.586      722913.020 6    562477.33221        18.250           1.469
 91  6 26 16  7 30.0000000  0  5G18G 2G11G16G19
  21843257.828     5543259.285 7   4319417.59122        22.000           1.688
  22844573.867    -7461295.136 6  -5813988.78621        17.000           1.125
  23393638.180    -5082672.344 6  -3960519.26921        17.000           0.781
  23264263.555    -3257799.005 5  -2515446.68821        11.750           0.438
  20620811.906      732270.321 6    569768.72922        18.500           1.594
 91  6 26 16  7 45.0000000  0  5G18G 2G11G16G19
  21851225.195     5585132.659 7   4352046.13822        22.250           1.656
  22836324.070    -7504655.894 6  -5847776.34521        17.500           1.094
  23389146.789    -5106271.981 6  -3978908.57421        16.750           0.875
  23262321.453    -3267998.086 5  -2523394.03321        11.000           0.406
  20622606.547      741686.980 6    577106.37722        18.750           1.500
 91  6 26 16  8  0.0000000  0  5G18G 2G11G16G19
  21859208.734     5627084.052 7   4384735.48322        22.500           1.750
  22828083.477    -7547963.228 6  -5881522.27021        17.500           1.156
  23384678.773    -5129749.786 6  -3997202.94921        16.500           0.781
  23260406.469    -3278062.840 5  -2531236.69921        11.000           0.406
  20624408.031      751161.914 6    584489.43322        19.250           1.656
 91  6 26 16  8 15.0000000  0  5G18G 2G11G16G19
  21867208.422     5669115.579 7   4417487.27422        22.750           1.719
  22819853.070    -7591214.737 6  -5915224.68221        17.250           1.188
  23380233.344    -5153103.092 6  -4015400.29721        16.500           0.906
  23258517.867    -3287991.112 5  -2538973.01621        11.250           0.500
  20626222.711      760697.442 6    591919.70522        18.750           1.594
 91  6 26 16  8 30.0000000  0  5G18G 2G11G16G19
  21875220.539     5711229.732 7   4450303.44822        22.250           1.719
  22811632.094    -7634407.739 6  -5948881.52121        17.250           1.219
  23375816.008    -5176329.222 6  -4033498.55621        16.250           0.906
  23256651.422    -3297780.055 5  -2546600.78121        11.000           0.563
  20628048.430      770296.231 6    599399.27022        19.000           1.563
 91  6 26 16  8 45.0000000  0  5G18G 2G11G16G19
  21883250.375     5753423.528 7   4483181.68422        22.750           1.750
  22803425.109    -7677545.098 6  -5982494.98821        17.250           1.281
  23371419.594    -5199430.826 6  -4051499.78021        16.000           0.906
  23254820.359    -3307432.508 6  -2554122.17821        12.250           0.563
  20629887.445      779955.212 6    606925.75322        18.000           1.625
 91  6 26 16  9  0.0000000  0  5G18G 2G11G16G19
  21891296.656     5795701.396 7   4516125.42522        23.250           1.625
  22795227.719    -7720621.589 6  -6016061.03321        17.750           1.281
  23367046.164    -5222402.556 6  -4069399.80821        15.000           0.813
  23253007.047    -3316943.620 6  -2561533.45121        12.000           0.656
  20631736.047      789679.171 6    614502.86022        18.500           1.500
 91  6 26 16  9 15.0000000  0  5G18G 2G11G16G19
  21899355.516     5838057.406 7   4549130.05721        23.250           1.438
  22787040.016    -7763642.860 6  -6049584.05721        17.500           1.406
  23362696.938    -5245250.057 6  -4087203.04421        14.750           0.844
  23251220.477    -3326319.184 5  -2568839.08421        11.750           0.625
  20633599.289      799462.308 6    622126.08221        17.750           1.406
 91  6 26 16  9 30.0000000  0  5G18G 2G11G16G19
  21907430.750     5880492.110 7   4582196.00421        22.750           1.406
  22778865.422    -7806608.259 6  -6083063.52821        17.500           1.375
  23358373.539    -5267972.378 6  -4104908.74021        14.500           0.844
  23249465.125    -3335558.538 6  -2576038.57921        12.750           0.594
  20635471.586      809305.282 6    629795.92322        18.250           1.500
 91  6 26 16  9 45.0000000  0  5G18G 2G11G16G19
  21915520.742     5923005.445 7   4615323.22322        22.500           1.531
  22770698.383    -7849517.490 6  -6116499.24021        17.000           1.344
  23354075.531    -5290569.061 6  -4122516.52621        15.000           0.813
  23247731.586    -3344661.582 6  -2583131.87121        12.250           0.531
  20637357.508      819208.239 6    637512.50721        18.000           1.406
 91  6 26 16 10  0.0000000  0  5G18G 2G11G16G19
  21923625.742     5965592.099 7   4648507.58522        23.000           1.563
  22762542.227    -7892375.639 6  -6149895.14821        16.750           1.281
  23349798.813    -5313045.109 6  -4140030.32221        15.000           0.813
  23246024.773    -3353633.300 5  -2590122.84721        11.750           0.438
  20639251.953      829166.004 6    645271.79521        19.000           1.406
 91  6 26 16 10 15.0000000  0  5G18G 2G11G16G19
  21931743.305     6008258.945 7   4681754.43222        22.750           1.563
  22754398.641    -7935175.225 6  -6183245.42021        17.250           1.344
  23345545.125    -5335393.037 6  -4157444.27321        15.750           0.813
  23244344.203    -3362466.360 6  -2597005.76621        12.500           0.406
  20641158.328      839185.637 6    653079.29422        18.500           1.500
 91  6 26 16 10 30.0000000  0  5G18G 2G11G16G19
  21939879.508     6051003.797 7   4715062.06721        22.750           1.438
  22746263.242    -7977917.915 6  -6216551.36721        17.000           1.406
  23341316.242    -5357614.381 6  -4174759.58421        15.750           0.813
  23242690.461    -3371162.667 6  -2603782.13621        12.750           0.344
  20643076.063      849265.367 6    660933.62021        18.500           1.469
 91  6 26 16 10 45.0000000  0  5G18G 2G11G16G19
  21948028.844     6093829.543 7   4748432.72422        22.500           1.500
  22738142.055    -8020600.735 6  -6249810.65921        17.250           1.281
  23337112.641    -5379706.133 6  -4191973.92421        16.000           0.906
  23241062.219    -3379719.290 6  -2610449.66621        12.500           0.406
  20645006.711      859407.995 6    668836.96122        18.000           1.594
 91  6 26 16 11  0.0000000  0  5G18G 2G11G16G19
  21956192.844     6136733.972 7   4781864.68921        22.500           1.313
  22730031.984    -8063225.516 6  -6283024.72521        17.500           1.313
  23332933.391    -5401669.918 6  -4209088.54821        15.750           0.969
  23239459.805    -3388138.243 6  -2617009.89621        12.000           0.438
  20646947.164      869611.569 6    676787.79322        18.000           1.625
 91  6 26 16 11 15.0000000  0  5G18G 2G11G16G19
  21964372.156     6179719.231 7   4815359.64321        22.750           1.313
  22721929.570    -8105789.746 6  -6316191.60521        17.500           1.250
  23328778.453    -5423502.935 6  -4226101.27721        15.250           0.906
  23237883.813    -3396417.032 5  -2623460.92821        11.750           0.500
  20648902.156      879878.520 6    684788.01222        17.500           1.531
 91  6 26 16 11 30.0000000  0  5G18G 2G11G16G19
  21972567.695     6222783.821 7   4848916.41521        22.750           1.406
  22713843.500    -8148294.615 6  -6349312.23421        18.250           1.219
  23324648.453    -5445206.489 6  -4243013.11721        15.000           0.969
  23236332.789    -3404556.882 5  -2629803.68321        11.750           0.656
  20650866.016      890207.376 6    692836.46422        18.000           1.594
 91  6 26 16 11 45.0000000  0  5G18G 2G11G16G19
  21980778.289     6265928.311 7   4882535.45821        22.500           1.438
  22705765.258    -8190739.174 6  -6382385.86821        17.750           1.313
  23320540.695    -5466779.360 6  -4259823.14021        13.500           0.875
  23234812.906    -3412557.044 6  -2636037.59621        12.750           0.688
  20652845.484      900598.934 6    700933.78522        17.750           1.563
 91  6 26 16 12  0.0000000  0  5G18G 2G11G16G19
  21989001.289     6309148.707 7   4916213.63621        22.250           1.344
  22697699.016    -8233126.745 6  -6415415.09421        18.000           1.344
  23316459.719    -5488224.864 6  -4276533.92421        13.250           0.906
  23233317.281    -3420421.128 6  -2642165.49721        13.250           0.719
  20654833.250      911049.457 6    709077.04022        18.500           1.594
 91  6 26 16 12 15.0000000  0  5G18G 2G11G16G19
  21997241.602     6352445.923 7   4949951.68021        22.500           1.344
  22689643.250    -8275456.463 6  -6448399.24021        18.000           1.281
  23312404.266    -5509542.046 6  -4293144.70821        13.500           0.969
  23231847.234    -3428148.420 6  -2648186.78121        13.000           0.813
  20656834.711      921559.884 6    717266.97122        18.250           1.719
 91  6 26 16 12 30.0000000  0  5G18G 2G11G16G19
  22005497.383     6395825.295 7   4983753.74121        22.750           1.313
  22681602.414    -8317722.493 6  -6481333.75521        18.750           1.281
  23308374.203    -5530724.931 6  -4309650.84021        13.500           0.969
  23230402.266    -3435733.028 6  -2654096.90121        12.750           0.656
  20658845.508      932135.700 6    725507.86322        18.500           1.688
 91  6 26 16 12 45.0000000  0  5G18G 2G11G16G19
  22013766.844     6439280.389 7   5017614.80021        23.250           1.281
  22673570.945    -8359930.849 6  -6514223.32521        19.000           1.344
  23304367.586    -5551779.429 6  -4326056.93721        13.750           0.906
  23228984.617    -3443181.157 6  -2659900.66121        12.750           0.656
  20660870.609      942770.932 6    733795.05222        17.750           1.656
 91  6 26 16 13  0.0000000  0  5G18G 2G11G16G19
  22022050.156     6482812.908 7   5051536.19421        23.000           1.469
  22665548.898    -8402079.585 6  -6547066.44322        18.750           1.500
  23300385.953    -5572703.588 6  -4342361.47121        14.250           0.969
  23227594.648    -3450491.100 6  -2665596.73921        12.750           0.594
  20662907.414      953467.364 6    742129.92222        17.000           1.656
 91  6 26 16 13 15.0000000  0  5G18G 2G11G16G19
  22030348.125     6526417.397 7   5085513.67521        23.000           1.438
  22657539.758    -8444173.710 6  -6579867.00622        19.500           1.500
  23296427.375    -5593502.279 6  -4358568.23421        14.250           0.969
  23226228.906    -3457668.004 6  -2671189.13621        12.750           0.688
  20664952.023      964219.671 6    750508.34122        16.750           1.625
 91  6 26 16 13 30.0000000  0  5G18G 2G11G16G19
  22038660.406     6570097.480 7   5119550.06321        23.000           1.438
  22649539.586    -8486209.357 6  -6612622.01021        19.750           1.219
  23292494.719    -5614171.397 6  -4374674.03821        14.000           1.031
  23224887.781    -3464707.881 6  -2676674.77921        12.000           0.656
  20667005.648      975031.737 6    758933.32222        17.250           1.688
 91  6 26 16 13 45.0000000  0  5G18G 2G11G16G19
  22046986.836     6613858.036 7   5153649.14821        23.250           1.375
  22641552.594    -8528181.406 6  -6645327.44321        19.750           1.375
  23288587.883    -5634705.474 6  -4390674.61521        14.250           1.000
  23223575.984    -3471605.732 6  -2682049.73421        12.250           0.656
  20669078.852      985908.512 6    767408.72422        16.500           1.688
 91  6 26 16 14  0.0000000  0  5G18G 2G11G16G19
  22055330.367     6657697.424 7   5187809.66821        23.750           1.250
  22633576.594    -8570091.246 6  -6677984.40521        19.250           1.313
  23284704.711    -5655106.061 6  -4406571.17321        13.500           0.969
  23222288.609    -3478363.111 5  -2687315.25621        11.750           0.563
  20671161.969      996848.231 6    775933.17222        16.750           1.625
 91  6 26 16 14 15.0000000  0  5G18G 2G11G16G19
  22063687.047     6701616.395 7   5222032.19321        23.500           1.219
  22625614.961    -8611937.309 6  -6710591.67321        19.250           1.313
  23280848.477    -5675371.647 6  -4422362.54121        14.000           0.969
  23221029.938    -3484978.669 6  -2692470.26921        12.250           0.688
  20673254.367     1007852.231 6    784507.70722        16.500           1.500
 91  6 26 16 14 30.0000000  0  5G18G 2G11G16G19
  22072059.695     6745618.098 7   5256319.19421        23.000           1.313
  22617662.977    -8653716.354 6  -6743146.71422        19.000           1.500
  23277020.836    -5695498.669 6  -4438045.93921        14.750           0.969
  23219799.406    -3491449.209 6  -2697512.27121        12.500           0.625
  20675363.648     1018923.800 6    793134.89722        17.000           1.625
 91  6 26 16 14 45.0000000  0  5G18G 2G11G16G19
  22080449.203     6789697.636 7   5290666.85021        23.000           1.344
  22609725.305    -8695432.891 6  -6775653.04621        19.500           1.406
  23273212.523    -5715491.444 6  -4453624.70921        14.500           0.875
  23218597.273    -3497779.417 6  -2702444.91121        13.500           0.688
  20677480.953     1030058.214 6    801811.05422        16.500           1.563
 91  6 26 16 15  0.0000000  0  5G18G 2G11G16G19
  22088850.133     6833855.034 7   5325075.17221        22.250           1.344
  22601800.945    -8737086.343 7  -6808110.22421        20.000           1.375
  23269435.773    -5735349.482 6  -4469098.50121        15.500           0.813
  23217417.922    -3503968.935 6  -2707267.95621        13.250           0.594
  20679611.367     1041255.773 6    810536.40921        16.500           1.469
 91  6 26 16 15 15.0000000  0  5G18G 2G11G16G19
  22097267.695     6878091.817 7   5359545.35921        22.000           1.344
  22593884.078    -8778674.940 6  -6840516.87021        19.000           1.281
  23265681.992    -5755070.822 6  -4484465.77221        16.000           0.844
  23216267.914    -3510016.204 6  -2711980.16221        13.500           0.625
  20681754.328     1052518.049 6    819312.20121        16.750           1.469
 91  6 26 16 15 30.0000000  0  5G18G 2G11G16G19
  22105701.266     6922401.786 7   5394072.56421        22.750           1.250
  22585982.523    -8820204.562 6  -6872877.55421        18.250           1.156
  23261957.594    -5774661.297 6  -4499731.08021        16.750           0.781
  23215145.031    -3515927.117 6  -2716586.10821        13.000           0.500
  20683911.203     1063839.129 6    828133.81322        16.000           1.563
 91  6 26 16 15 45.0000000  0  5G18G 2G11G16G19
  22114146.500     6966778.887 7   5428652.07021        22.500           1.313
  22578089.422    -8861680.806 6  -6905196.64221        18.000           1.156
  23258250.609    -5794126.470 6  -4514898.73621        17.000           0.875
  23214043.734    -3521707.168 6  -2721090.05621        13.000           0.406
  20686072.977     1075213.416 6    836996.88621        16.750           1.375
 91  6 26 16 16  0.0000000  0  5G18G 2G11G16G19
  22122603.023     7011228.533 7   5463288.10221        21.500           1.313
  22570207.242    -8903098.298 6  -6937469.95921        18.500           1.188
  23254570.414    -5813460.609 6  -4529964.30021        16.500           0.844
  23212968.977    -3527351.185 6  -2725487.99621        13.000           0.469
  20688246.461     1086646.090 6    845905.45021        17.500           1.469
 91  6 26 16 16 15.0000000  0  5G18G 2G11G16G19
  22131076.984     7055752.839 7   5497982.32821        21.500           1.375
  22562339.281    -8944454.495 6  -6969695.51721        18.250           1.219
  23250918.289    -5832661.176 6  -4544925.78021        17.000           0.875
  23211919.867    -3532856.812 6  -2729778.12121        12.500           0.469
  20690435.250     1098139.553 6    854861.38722        16.750           1.531
 91  6 26 16 16 30.0000000  0  5G18G 2G11G16G19
  22139564.219     7100357.343 7   5532739.03921        21.500           1.469
  22554480.828    -8985743.182 6  -7001868.45921        18.000           1.188
  23247292.305    -5851721.944 6  -4559778.33321        17.500           0.969
  23210901.398    -3538217.840 6  -2733955.55521        12.750           0.563
  20692636.953     1109699.675 6    863869.27022        16.250           1.531
 91  6 26 16 16 45.0000000  0  5G18G 2G11G16G19
  22148066.336     7145035.913 7   5567553.46721        21.750           1.313
  22546634.461    -9026970.353 6  -7033993.47721        17.500           1.219
  23243687.969    -5870648.827 6  -4574526.55721        17.250           0.875
  23209906.500    -3543440.804 6  -2738025.43621        12.750           0.594
  20694847.086     1121320.341 6    872924.32422        17.000           1.594
 91  6 26 16 17  0.0000000  0  5G18G 2G11G16G19
  22156583.445     7189786.637 7   5602424.11421        21.750           1.375
  22538801.992    -9068137.275 6  -7066071.54821        18.750           1.250
  23240113.938    -5889442.972 6  -4589171.35421        17.500           0.938
  23208938.547    -3548527.107 6  -2741988.83521        12.500           0.656
  20697068.523     1133000.106 6    882025.42622        17.250           1.531
 91  6 26 16 17 15.0000000  0  5G18G 2G11G16G19
  22165112.523     7234614.571 7   5637354.91821        21.250           1.313
  22530979.883    -9109238.750 6  -7098098.61121        19.000           1.281
  23236562.523    -5908099.042 6  -4603708.54921        17.250           0.938
  23207998.484    -3553471.271 6  -2745841.50321        12.750           0.625
  20699306.086     1144743.979 6    891176.48922        16.750           1.531
 91  6 26 16 17 30.0000000  0  5G18G 2G11G16G19
  22173656.844     7279514.944 7   5672342.17621        20.750           1.281
  22523171.000    -9150279.204 6  -7130078.12521        19.250           1.344
  23233037.828    -5926621.247 6  -4618141.44621        17.750           0.906
  23207084.148    -3558278.046 6  -2749587.08521        12.750           0.531
  20701548.852     1156547.647 6    900374.14421        17.500           1.438
 91  6 26 16 17 45.0000000  0  5G18G 2G11G16G19
  22182217.094     7324497.719 7   5707393.64121        20.750           1.281
  22515373.797    -9191248.283 6  -7162002.03821        19.500           1.313
  23229540.078    -5944999.242 6  -4632461.95621        18.500           0.875
  23206195.914    -3562937.318 5  -2753217.72721        11.750           0.625
  20703812.398     1168421.121 6    909626.19422        17.000           1.594
 91  6 26 16 18  0.0000000  0  5G18G 2G11G16G19
  22190791.781     7369555.694 7   5742503.71021        20.750           1.313
  22507590.016    -9232152.955 6  -7193875.75321        19.500           1.438
  23226070.563    -5963240.011 6  -4646675.54721        18.250           0.813
  23205337.758    -3567456.189 6  -2756738.94421        12.250           0.531
  20706081.977     1180357.190 6    918927.02221        16.750           1.438
 91  6 26 16 18 15.0000000  0  5G18G 2G11G16G19
  22199377.891     7414681.054 7   5777666.28621        20.750           1.313
  22499817.180    -9273000.483 6  -7225704.94821        19.250           1.438
  23222623.648    -5981350.656 6  -4660787.74121        18.000           0.781
  23204503.758    -3571841.916 6  -2760156.42421        12.500           0.625
  20708364.555     1192348.409 6    928270.81421        17.000           1.438
 91  6 26 16 18 30.0000000  0  5G18G 2G11G16G19
  22207980.445     7459880.889 7   5812886.88621        21.250           1.313
  22492057.594    -9313783.457 6  -7257483.82621        19.250           1.406
  23219200.758    -5999323.602 6  -4674792.61421        17.500           0.750
  23203694.578    -3576087.301 6  -2763464.53721        12.250           0.688
  20710657.227     1204402.228 6    937663.38822        17.000           1.531
 91  6 26 16 18 45.0000000  0  5G18G 2G11G16G19
  22216594.523     7505150.538 7   5848161.88921        21.000           1.125
  22484307.250    -9354506.154 6  -7289215.73421        19.250           1.406
  23215807.000    -6017163.069 6  -4688693.49721        17.750           0.688
  23202914.875    -3580196.715 6  -2766666.69821        12.500           0.625
  20712962.500     1216514.186 6    947101.26722        16.250           1.531
 91  6 26 16 19  0.0000000  0  5G18G 2G11G16G19
  22225223.742     7550493.919 7   5883494.34721        21.000           1.250
  22476569.250    -9395164.556 6  -7320897.55921        18.500           1.406
  23212439.625    -6034864.903 6  -4702487.13521        18.250           0.719
  23202155.164    -3584166.309 6  -2769759.91421        12.000           0.500
  20715279.375     1228688.072 6    956587.39822        15.750           1.594
 91  6 26 16 19 15.0000000  0  5G18G 2G11G16G19
  22233867.469     7595918.713 7   5918890.24221        21.000           1.313
  22468847.242    -9435750.656 6  -7352523.03421        19.000           1.438
  23209099.648    -6052421.114 6  -4716167.28121        18.000           0.781
  23201429.852    -3587988.415 6  -2772738.22421        12.000           0.563
  20717606.953     1240931.611 6    966127.80422        15.750           1.531
 91  6 26 16 19 30.0000000  0  5G18G 2G11G16G19
  22242525.664     7641418.484 7   5954344.56121        21.250           1.188
  22461135.492    -9476270.267 6  -7384096.70621        19.000           1.438
  23205785.430    -6069837.405 6  -4729738.41521        18.250           0.750
  23200729.539    -3591668.998 6  -2775606.25221        12.250           0.531
  20719948.898     1253239.006 6    975717.96721        15.750           1.438
 91  6 26 16 19 45.0000000  0  5G18G 2G11G16G19
  22251199.672     7686991.955 7   5989856.30321        21.250           1.281
  22453437.891    -9516724.223 6  -7415619.21821        19.000           1.313
  23202498.625    -6087114.551 6  -4743201.13021        18.500           0.813
  23200057.195    -3595209.089 6  -2778364.79921        13.000           0.563
  20722303.313     1265609.187 6    985357.06521        15.750           1.469
 91  6 26 16 20  0.0000000  0  5G18G 2G11G16G19
  22259882.719     7732637.997 7   6025424.59721        20.000           1.250
  22445752.859    -9557113.508 6  -7447091.33521        19.250           1.313
  23199237.195    -6104253.476 6  -4756556.13221        19.000           0.844
  23199409.398    -3598609.666 6  -2781014.62321        13.500           0.500
  20724669.555     1278041.013 6    995044.19521        16.000           1.313
 91  6 26 16 20 15.0000000  0  5G18G 2G11G16G19
  22268584.133     7778357.248 6   6061049.93821        19.750           1.219
  22438079.422    -9597436.926 6  -7478512.13221        19.500           1.344
  23196002.383    -6121252.802 6  -4769802.35721        19.000           0.906
  23198790.164    -3601869.673 6  -2783554.90421        14.000           0.563
  20727047.227     1290535.669 6   1004780.28121        16.000           1.375
 91  6 26 16 20 30.0000000  0  5G18G 2G11G16G19
  22277295.047     7824139.485 6   6096724.35721        19.500           1.125
  22430417.992    -9637704.378 7  -7509889.32021        20.250           1.344
  23192792.664    -6138122.439 6  -4782947.52621        19.500           0.813
  23198192.359    -3604999.089 6  -2785993.47021        12.750           0.625
  20729435.094     1303083.007 6   1014557.41621        17.000           1.344
 91  6 26 16 20 45.0000000  0  5G18G 2G11G16G19
  22286025.328     7869998.577 7   6132458.67121        21.000           1.156
  22422766.375    -9677901.762 6  -7541211.90422        19.750           1.500
  23189608.313    -6154848.150 6  -4795980.54721        19.250           0.906
  23197625.547    -3607983.837 6  -2788319.26221        12.000           0.719
  20731837.570     1315697.069 6   1024386.54521        16.500           1.438
 91  6 26 16 21  0.0000000  0  5G18G 2G11G16G19
  22294764.430     7915925.112 7   6168245.52521        20.750           1.219
  22415129.141    -9718037.984 6  -7572486.83922        19.750           1.531
  23186450.688    -6171438.777 6  -4808908.30421        19.000           0.938
  23197084.141    -3610833.078 6  -2790539.49121        12.250           0.594
  20734247.328     1328368.646 6   1034260.48421        16.750           1.281
 91  6 26 16 21 15.0000000  0  5G18G 2G11G16G19
  22303516.836     7961921.852 7   6204087.09021        20.750           1.219
  22407502.055    -9758109.988 6  -7603711.72921        19.500           1.469
  23183320.570    -6187891.049 6  -4821728.25321        19.250           0.906
  23196563.789    -3613544.229 5  -2792652.12721        11.750           0.625
  20736670.586     1341100.767 6   1044181.60721        16.250           1.344
 91  6 26 16 21 30.0000000  0  5G18G 2G11G16G19
  22312282.938     8007999.048 7   6239991.34921        20.250           1.125
  22399891.586    -9798107.360 6  -7634878.46221        19.750           1.438
  23180217.281    -6204194.576 6  -4834432.28321        18.500           0.875
  23196079.656    -3616106.742 6  -2794648.91321        13.000           0.531
  20739103.484     1353903.565 6   1054157.80621        16.500           1.438
 91  6 26 16 21 45.0000000  0  5G18G 2G11G16G19
  22321065.789     8054148.869 7   6275952.20421        20.000           1.156
  22392294.195    -9838037.573 6  -7665992.86922        19.750           1.500
  23177141.883    -6220356.715 6  -4847026.15321        18.500           0.875
  23195617.047    -3618528.281 6  -2796535.86121        13.250           0.531
  20741555.195     1366769.563 6   1064183.24321        15.750           1.375
 91  6 26 16 22  0.0000000  0  5G18G 2G11G16G19
  22329860.961     8100366.362 7   6311965.78721        20.500           1.031
  22384707.406    -9877905.153 6  -7697058.46221        19.750           1.406
  23174094.680    -6236381.869 6  -4859513.28421        18.250           0.750
  23195185.242    -3620813.582 6  -2798316.63421        13.250           0.563
  20744012.813     1379694.138 6   1074254.33821        16.250           1.344
 91  6 26 16 22 15.0000000  0  5G18G 2G11G16G19
  22338668.703     8146651.949 7   6348032.43921        20.750           1.063
  22377133.094    -9917709.175 7  -7728074.52521        20.250           1.375
  23171069.625    -6252269.066 6  -4871892.90221        17.750           0.875
  23194773.680    -3622961.834 6  -2799990.66421        12.750           0.594
  20746484.500     1392677.946 6   1084371.58221        15.750           1.344
 91  6 26 16 22 30.0000000  0  5G18G 2G11G16G19
  22347490.586     8193006.175 7   6384152.56521        20.750           1.031
  22369570.406    -9957448.895 7  -7759040.48821        20.250           1.438
  23168071.594    -6268017.555 6  -4884164.43921        17.750           0.938
  23194394.789    -3624972.472 6  -2801557.44321        13.000           0.625
  20748964.633     1405721.610 6   1094535.46621        16.000           1.438
 91  6 26 16 22 45.0000000  0  5G18G 2G11G16G19
  22356324.148     8239428.317 7   6420325.60621        20.000           0.938
  22362020.984    -9997124.652 7  -7789956.61721        20.000           1.375
  23165100.719    -6283627.642 6  -4896328.13321        18.000           0.906
  23194034.008    -3626845.983 6  -2803017.36821        12.250           0.625
  20751459.047     1418824.450 6   1104745.46322        16.000           1.531
 91  6 26 16 23  0.0000000  0  5G18G 2G11G16G19
  22365171.109     8285919.671 6   6456552.58421        19.250           0.906
  22354482.344   -10036734.839 7  -7820821.64521        20.250           1.344
  23162157.297    -6299097.631 6  -4908382.65521        18.250           0.969
  23193703.805    -3628581.116 6  -2804369.46621        12.000           0.563
  20753964.805     1431988.026 6   1115002.78421        16.250           1.469
 91  6 26 16 23 15.0000000  0  5G18G 2G11G16G19
  22374031.234     8332482.430 6   6492835.20421        19.750           1.000
  22346958.352   -10076276.889 7  -7851633.58121        21.000           1.375
  23159240.438    -6314424.778 6  -4920325.87421        18.250           0.938
  23193402.188    -3630175.550 5  -2805611.93321        11.750           0.500
  20756481.570     1445214.751 6   1125309.31321        15.750           1.375
 91  6 26 16 23 30.0000000  0  5G18G 2G11G16G19
  22382904.508     8379117.255 6   6529173.98221        19.750           0.813
  22339447.797   -10115749.602 7  -7882391.49221        21.250           1.469
  23156351.813    -6329607.938 6  -4932156.90021        18.250           1.094
  23193125.375    -3631628.104 6  -2806743.82621        12.500           0.563
  20759009.898     1458505.830 6   1135665.99021        16.000           1.344
 91  6 26 16 23 45.0000000  0  5G18G 2G11G16G19
  22391795.570     8425821.280 7   6565566.68121        20.250           0.906
  22331948.539   -10155155.553 7  -7913097.37821        21.000           1.406
  23153490.750    -6344649.549 6  -4943877.62321        18.500           1.188
  23192877.055    -3632941.221 6  -2807767.04721        13.500           0.500
  20761553.656     1471858.587 6   1146070.72921        16.000           1.406
 91  6 26 16 24  0.0000000  0  5G18G 2G11G16G19
  22400693.555     8472591.548 7   6602010.99421        20.250           0.844
  22324462.320   -10194497.470 7  -7943753.36821        21.000           1.438
  23150654.000    -6359552.286 6  -4955490.14021        17.500           1.125
  23192652.414    -3634117.970 6  -2808684.04921        14.000           0.563
  20764104.078     1485270.092 6   1156521.23121        16.250           1.438
 91  6 26 16 24 15.0000000  0  5G18G 2G11G16G19
  22409606.117     8519431.905 6   6638509.92421        19.500           0.875
  22316987.531   -10233770.852 7  -7974355.96321        20.750           1.375
  23147844.102    -6374311.725 6  -4966990.99021        17.250           1.031
  23192456.289    -3635154.225 6  -2809491.54721        14.250           0.625
  20766667.477     1498744.517 6   1167020.77621        15.500           1.344
 91  6 26 16 24 30.0000000  0  5G18G 2G11G16G19
  22418532.797     8566343.613 6   6675064.45021        19.250           0.906
  22309530.773   -10272974.446 7  -8004904.16522        21.500           1.500
  23145063.641    -6388926.483 6  -4978379.10221        17.250           1.125
  23192285.969    -3636048.726 6  -2810188.60021        13.000           0.563
  20769242.719     1512283.140 6   1177570.33521        15.750           1.469
 91  6 26 16 24 45.0000000  0  5G18G 2G11G16G19
  22427473.727     8613324.572 7   6711672.93921        20.000           1.000
  22302080.469   -10312110.035 7  -8035399.37322        20.500           1.500
  23142309.297    -6403398.160 6  -4989655.71721        16.750           0.906
  23192144.320    -3636803.492 6  -2810776.77021        12.750           0.375
  20771833.281     1525883.967 6   1188168.37721        15.500           1.469
 91  6 26 16 25  0.0000000  0  5G18G 2G11G16G19
  22436429.320     8660374.941 7   6748335.50521        21.000           1.000
  22294646.367   -10351176.857 7  -8065841.00322        20.500           1.563
  23139583.344    -6417725.964 6  -5000820.23421        16.250           1.000
  23192023.594    -3637417.797 5  -2811255.48221        11.750           0.469
  20774431.680     1539547.742 6   1198815.46421        16.000           1.438
 91  6 26 16 25 15.0000000  0  5G18G 2G11G16G19
  22445394.438     8707492.860 7   6785050.70721        21.000           1.031
  22287225.547   -10390176.517 7  -8096230.28822        20.750           1.594
  23136883.227    -6431911.384 6  -5011873.79821        16.000           1.000
  23191933.875    -3637893.493 6  -2811626.19021        13.000           0.531
  20777044.469     1553272.660 6   1209510.20022        15.750           1.500
 91  6 26 16 25 30.0000000  0  5G18G 2G11G16G19
  22454372.633     8754678.969 7   6821819.04921        20.250           1.063
  22279816.703   -10429107.968 7  -8126566.42522        21.250           1.656
  23134211.844    -6445953.361 6  -5022815.58021        16.500           0.875
  23191871.648    -3638229.642 6  -2811888.15121        14.000           0.438
  20779669.305     1567059.488 6   1220253.17821        15.500           1.406
 91  6 26 16 25 45.0000000  0  5G18G 2G11G16G19
  22463365.453     8801929.665 6   6858637.71921        19.750           1.031
  22272421.141   -10467974.592 7  -8156852.05622        21.500           1.656
  23131566.070    -6459855.185 6  -5033648.15821        16.500           0.875
  23191831.891    -3638429.923 6                        14.250
  20782304.297     1580904.762 6   1231041.69521        16.250           1.375
 91  6 26 16 26  0.0000000  0  5G18G 2G11G16G19
  22472371.508     8849250.060 6   6895510.69921        19.750           1.031
  22265036.664   -10506770.713 7  -8187082.74022        21.500           1.688
  23128948.391    -6473611.158 6  -5044367.07621        16.750           1.125
  23191820.164    -3638488.815 6                        13.250
  20784947.648     1594814.153 6   1241880.16621        17.500           1.375
 91  6 26 16 26 15.0000000  0  5G18G 2G11G16G19
  22481387.406     8896637.225 6   6932435.70321        19.500           0.906
  22257668.992   -10545499.021 7  -8217260.58922        22.000           1.656
  23126358.492    -6487223.891 6  -5054974.38421        17.500           1.188
  23191837.133    -3638408.975 6                        12.000
  20787609.797     1608784.702 6   1252766.29921        16.250           1.375
 91  6 26 16 26 30.0000000  0  5G18G 2G11G16G19
  22490417.203     8944090.202 6   6969411.98921        19.750           0.969
  22250311.242   -10584159.970 7  -8247385.94922        22.250           1.563
  23123796.164    -6500693.989 6  -5065470.54521        18.000           1.125
  23191876.016    -3638191.465 5                        11.000
  20790279.172     1622815.789 6   1263699.60421        16.000           1.281
 91  6 26 16 26 45.0000000  0  5G18G 2G11G16G19
  22499460.070     8991608.819 6   7006439.42521        19.500           0.969
  22242965.641   -10622753.589 7  -8277458.84822        22.250           1.625
  23121260.602    -6514021.356 6  -5075855.48821        18.250           1.344
  23191942.031    -3637836.554 5                        11.000
  20792960.516     1636907.335 6   1274680.01921        16.250           1.469
 91  6 26 16 27  0.0000000  0  5G18G 2G11G16G19
  22508513.445     9039193.594 6   7043518.40921        18.750           1.031
  22235634.945   -10661279.062 7  -8307478.65322        22.500           1.750
  23118751.492    -6527205.107 6  -5086128.52421        18.250           1.281
  23192038.031    -3637343.443 5  -2811197.84021        11.250           0.563
  20795652.453     1651059.848 6   1285707.94921        16.250           1.438
 91  6 26 16 27 15.0000000  0  5G18G 2G11G16G19
  22517581.000     9086846.429 6   7080650.43721        18.250           1.063
  22228317.977   -10699733.939 7  -8337443.44922        22.500           1.844
  23116270.328    -6540242.622 6  -5096287.61221        18.000           1.313
  23192156.570    -3636709.779 5  -2810704.09821        11.750           0.500
  20798357.906     1665275.715 6   1296785.23722        16.250           1.531
 91  6 26 16 27 30.0000000  0  5G18G 2G11G16G19
  22526663.438     9134567.540 6   7117835.66121        18.000           1.000
  22221014.297   -10738117.609 7  -8367352.76322        22.500           1.844
  23113816.391    -6553133.284 6  -5106332.27421        17.250           1.344
  23192307.328    -3635935.055 6  -2810100.44121        12.750           0.531
  20801076.266     1679555.515 6   1307912.34721        16.250           1.375
 91  6 26 16 27 45.0000000  0  5G18G 2G11G16G19
  22535758.102     9182353.345 6   7155071.29621        18.750           1.063
  22213722.805   -10776433.527 7  -8397209.27922        22.250           1.719
  23111389.586    -6565880.352 6  -5116265.04321        16.750           1.281
  23192480.789    -3635022.972 6  -2809389.75721        12.500           0.594
  20803805.867     1693895.805 6   1319086.60221        16.500           1.344
 91  6 26 16 28  0.0000000  0  5G18G 2G11G16G19
  22544865.336     9230205.483 6   7192358.61721        19.250           1.031
  22206442.875   -10814679.615 7  -8427011.38722        21.750           1.844
  23108993.789    -6578481.809 6  -5126084.34821        17.000           1.281
  23192679.938    -3633971.631 6  -2808570.57021        12.500           0.531
  20806547.352     1708298.443 6   1330309.42621        16.250           1.469
 91  6 26 16 28 15.0000000  0  5G18G 2G11G16G19
  22553982.539     9278121.991 6   7229696.09321        18.500           1.063
  22199178.633   -10852857.521 7  -8456760.36422        22.250           1.875
  23106621.648    -6590939.391 6  -5135791.53421        16.250           1.219
  23192907.195    -3632783.057 6  -2807644.44721        12.750           0.563
  20809298.000     1722761.465 6   1341579.30721        16.750           1.406
 91  6 26 16 28 30.0000000  0  5G18G 2G11G16G19
  22563111.375     9326104.721 6   7267085.16921        17.750           0.906
  22191928.516   -10890965.124 7  -8486454.56022        22.500           1.969
  23104280.313    -6603250.605 6  -5145384.68121        16.750           1.188
  23193160.242    -3631455.105 6  -2806609.72621        12.750           0.625
  20812061.305     1737287.116 6   1352897.98921        17.500           1.438
 91  6 26 16 28 45.0000000  0  5G18G 2G11G16G19
  22572257.617     9374155.521 6   7304527.29721        17.500           1.063
  22184689.742   -10928999.984 7  -8516092.07222        22.750           1.813
  23101964.641    -6615413.262 6  -5154862.06021        17.000           1.125
  23193439.219    -3629985.355 6  -2805464.52621        12.500           0.563
  20814838.164     1751877.499 6   1364267.11021        16.500           1.469
 91  6 26 16 29  0.0000000  0  5G18G 2G11G16G19
  22581412.516     9422270.782 6   7342019.65921        17.500           0.844
  22177464.672   -10966965.314 7  -8545675.40522        22.750           1.781
  23099676.633    -6627430.464 6  -5164226.09121        17.500           1.000
  23193745.789    -3628377.553 6  -2804211.71421        12.750           0.563
  20817628.789     1766529.237 6   1375684.04921        15.500           1.375
 91  6 26 16 29 15.0000000  0  5G18G 2G11G16G19
  22590580.484     9470451.787 6   7379563.24521        18.000           0.875
  22170254.234   -11004859.420 7  -8575203.24822        22.000           1.844
  23097419.727    -6639300.425 6  -5173475.39621        17.750           1.063
  23194079.922    -3626630.007 6  -2802850.02021        13.750           0.563
  20820428.094     1781243.958 6   1387150.05421        15.750           1.281
 91  6 26 16 29 30.0000000  0  5G18G 2G11G16G19
  22599761.188     9518697.998 6   7417157.64021        18.250           1.000
  22163056.820   -11042682.779 7  -8604675.95222        22.250           1.750
  23095188.109    -6651023.509 6  -5182610.25121        18.000           0.969
  23194438.477    -3624743.368 6  -2801379.94221        13.750           0.531
  20823236.734     1796021.183 6   1398664.77321        16.250           1.438
 91  6 26 16 29 45.0000000  0  5G18G 2G11G16G19
  22608954.945     9567009.167 6   7454802.64521        18.250           0.969
  22155873.594   -11080435.361 7  -8634093.50222        22.500           1.781
  23092986.484    -6662599.754 6  -5191630.68421        18.500           0.906
  23194822.930    -3622717.973 6  -2799801.76521        13.250           0.500
  20826062.117     1810860.579 6   1410227.93521        15.500           1.344
 91  6 26 16 30  0.0000000  0  5G18G 2G11G16G19
  22618162.742     9615385.403 6   7492498.35721        18.250           0.813
  22148703.258   -11118116.440 7  -8663455.33222        22.250           1.813
  23090810.844    -6674028.463 6  -5200536.15321        18.750           1.031
  23195235.805    -3620553.254 6  -2798115.00521        13.000           0.500
  20828896.516     1825762.672 6   1421839.95021        16.250           1.250
 91  6 26 16 30 15.0000000  0  5G18G 2G11G16G19
  22627380.016     9663825.698 6   7530243.98921        18.500           0.938
  22141543.102   -11155726.666 7  -8692761.95422        21.750           1.938
  23088662.789    -6685310.211 6  -5209327.10621        18.500           1.125
  23195672.914    -3618250.125 6  -2796320.40421        12.500           0.469
  20831745.930     1840726.729 6   1433500.25021        16.000           1.438
 91  6 26 16 30 30.0000000  0  5G18G 2G11G16G19
  22636609.930     9712327.391 6   7568037.46021        19.000           0.781
  22134401.961   -11193268.410 7  -8722015.21422        22.250           1.844
  23086545.297    -6696447.233 6  -5218005.29221        18.500           1.063
  23196137.031    -3615811.155 6  -2794419.93021        12.500           0.625
  20834605.383     1855750.454 6   1445207.04221        15.750           1.250
 91  6 26 16 30 45.0000000  0  5G18G 2G11G16G19
  22645851.750     9760897.006 6   7605883.85121        18.750           0.813
  22127272.172   -11230734.716 7  -8751209.69022        23.000           1.813
  23084452.570    -6707432.507 6  -5226565.23021        17.750           1.063
  23196628.063    -3613229.541 6  -2792408.31721        12.000           0.563
  20837477.164     1870840.526 6   1456965.53521        16.000           1.313
 91  6 26 16 31  0.0000000  0  5G18G 2G11G16G19
  22655105.469     9809527.988 6   7643778.05921        18.500           1.000
  22120155.133   -11268131.825 7  -8780350.24422        23.250           2.000
  23082390.820    -6718272.268 6  -5235011.78621        17.750           1.094
  23197143.359    -3610511.475 5  -2790290.38421        11.500           0.625
  20840359.227     1885990.667 6   1468770.82521        16.250           1.406
 91  6 26 16 31 15.0000000  0  5G18G 2G11G16G19
  22664372.813     9858222.568 6   7681721.82521        18.500           0.906
  22113051.914   -11305457.194 7  -8809434.90222        23.250           1.969
  23080357.422    -6728963.896 6  -5243342.92321        17.500           1.188
  23197686.891    -3607654.575 5  -2788064.26721        11.750           0.625
  20843254.586     1901203.453 6   1480624.94321        16.250           1.406
 91  6 26 16 31 30.0000000  0  5G18G 2G11G16G19
  22673649.977     9906979.335 6   7719714.04721        18.250           0.906
  22105962.680   -11342712.086 7  -8838464.64622        23.250           2.156
  23078348.938    -6739508.682 6  -5251559.63121        17.000           1.156
  23198259.773    -3604660.546 6  -2785731.29521        12.000           0.500
  20846163.078     1916477.327 6   1492526.65521        16.000           1.469
 91  6 26 16 31 45.0000000  0  5G18G 2G11G16G19
  22682940.180     9955796.099 6   7757753.03121        18.250           0.875
  22098885.086   -11379898.347 7  -8867440.91322        23.000           2.000
  23076369.938    -6749908.400 6  -5259663.30921        17.500           1.094
  23198851.820    -3601531.319 5  -2783292.97221        11.000           0.500
  20849079.508     1931810.343 6   1504474.44522        16.750           1.500
 91  6 26 16 32  0.0000000  0  5G18G 2G11G16G19
  22692240.953    10004679.138 6   7795843.65321        18.250           0.781
  22091824.516   -11417008.944 7  -8896358.21322        22.500           1.938
  23074421.320    -6760156.149 6  -5267648.55621        18.000           1.000
  23199476.242    -3598260.143 5  -2780744.02521        11.000           0.406
  20852009.203     1947209.234 6   1516473.57421        16.750           1.469
 91  6 26 16 32 15.0000000  0  5G18G 2G11G16G19
  22701556.445    10053626.170 6   7833984.13921        18.750           0.750
  22084777.328   -11454045.855 7  -8925218.09122        22.250           2.094
  23072499.234    -6770253.869 6  -5275516.90021        18.250           1.031
  23200125.367    -3594849.117 5  -2778086.11221        11.750           0.500
  20854951.898     1962671.968 6   1528522.45122        16.250           1.531
 91  6 26 16 32 30.0000000  0  5G18G 2G11G16G19
  22710883.836    10102632.160 6   7872170.55721        19.000           0.875
  22077741.680   -11491013.814 7  -8954024.24722        21.750           1.969
  23070605.016    -6780206.068 6  -5283271.84921        18.750           0.969
  23200800.375    -3591303.325 6  -2775323.19521        12.250           0.594
  20857904.711     1978193.868 6   1540617.43722        16.250           1.656
 91  6 26 16 32 45.0000000  0  5G18G 2G11G16G19
  22720219.867    10151700.222 6   7910405.34321        18.000           0.875
  22070719.867   -11527909.562 7  -8982774.13622        21.750           1.938
  23068740.602    -6790009.528 6  -5290910.89421        19.500           0.938
  23201502.328    -3587619.629 6  -2772452.82321        12.250           0.500
  20860870.750     1993778.014 6   1552760.92122        16.750           1.656
 91  6 26 16 33  0.0000000  0  5G18G 2G11G16G19
  22729567.109    10200830.319 6   7948688.47421        16.500           0.938
  22063713.797   -11564732.353 7  -9011467.17022        22.000           1.875
  23066903.742    -6799663.740 7  -5298433.63521        20.000           0.906
  23202230.539    -3583797.685 6  -2769474.72421        13.000           0.594
  20863847.500     2009424.739 6   1564953.16222        17.250           1.563
 91  6 26 16 33 15.0000000  0  5G18G 2G11G16G19
  22738927.398    10250014.962 6   7987014.10421        16.500           0.938
  22056719.750   -11601489.521 7  -9040109.06722        21.500           1.844
  23065093.141    -6809175.715 7  -5305845.54121        20.000           0.813
  23202981.141    -3579844.860 6  -2766394.64521        12.750           0.625
  20866836.258     2025126.882 6   1577188.59222        17.250           1.625
 91  6 26 16 33 30.0000000  0  5G18G 2G11G16G19
  22748299.406    10299261.512 6   8025387.97121        16.750           1.063
  22049737.414   -11638173.698 7  -9068694.09122        20.500           1.969
  23063312.180    -6818538.064 7  -5313140.86321        20.000           0.938
  23203758.672    -3575753.976 6  -2763206.98321        12.000           0.563
  20869835.688     2040891.681 6   1589472.84322        17.750           1.719
 91  6 26 16 33 45.0000000  0  5G18G 2G11G16G19
  22757681.570    10348569.686 6   8063809.85521        17.000           0.969
  22042769.547   -11674784.699 7  -9097222.09822        21.000           2.094
  23061560.336    -6827750.641 6  -5320319.46721        19.500           0.781
  23204565.039    -3571525.145 6  -2759911.82221        12.250           0.594
  20872849.672     2056719.120 6   1601805.90422        17.250           1.750
 91  6 26 16 34  0.0000000  0  5G18G 2G11G16G19
  22767075.734    10397938.235 6   8102278.77721        16.750           0.906
  22035817.328   -11711323.458 7  -9125693.81522        22.000           2.000
  23059834.164    -6836814.270 6  -5327382.02821        19.000           0.906
  23205397.781    -3567159.641 6  -2756510.17221        12.000           0.469
  20875870.281     2072608.024 6   1614186.85422        17.500           1.594
 91  6 26 16 34 15.0000000  0  5G18G 2G11G16G19
  22776482.836    10447366.957 6   8140794.60121        16.750           0.969
  22028877.703   -11747789.775 7  -9154109.07322        22.500           2.125
  23058136.398    -6845728.810 6  -5334328.40821        18.250           0.844
  23206251.656    -3562657.443 5  -2753001.99621        11.750           0.531
  20878907.172     2088558.638 6   1626615.89822        16.750           1.688
 91  6 26 16 34 30.0000000  0  5G18G 2G11G16G19
  22785900.383    10496858.776 6   8179359.59021        16.500           0.875
  22021952.945   -11784180.145 7  -9182465.15522        22.500           2.094
  23056470.516    -6854490.756 6  -5341155.89621        17.750           1.031
  23207137.969    -3558015.098 5  -2749384.64021        11.750           0.563
  20881952.648     2104574.391 6   1639095.69722        17.250           1.750
 91  6 26 16 34 45.0000000  0  5G18G 2G11G16G19
  22795331.344    10546412.426 6   8217972.76321        16.750           0.969
  22015042.336   -11820495.643 7  -9210762.88922        22.500           2.156
  23054832.641    -6863101.035 6  -5347865.20621        18.000           1.125
  23208045.727    -3553234.129 6  -2745659.23121        12.000           0.563
  20885014.594     2120654.063 6   1651625.30422        17.000           1.750
 91  6 26 16 35  0.0000000  0  5G18G 2G11G16G19
  22804771.758    10596022.627 6   8256630.00221        17.000           1.031
  22008145.203   -11856741.053 7  -9239006.01822        22.500           2.156
  23053221.867    -6871564.582 6  -5354460.17921        18.000           1.156
  23208982.227    -3548319.490 6  -2741829.68321        12.500           0.656
  20888085.188     2136792.443 6   1664200.65522        17.250           1.750
 91  6 26 16 35 15.0000000  0  5G18G 2G11G16G19
  22814224.453    10645694.816 6   8295335.53521        17.250           0.969
  22001262.078   -11892910.582 7  -9267190.01622        22.250           2.188
  23051638.820    -6879875.648 6  -5360936.33721        17.750           1.094
  23209940.891    -3543265.254 6  -2737891.35721        12.500           0.625
  20891168.289     2152995.375 6   1676826.30722        16.750           1.688
 91  6 26 16 35 30.0000000  0  5G18G 2G11G16G19
  22823689.359    10695428.164 6   8334088.73021        17.250           0.906
  21994394.078   -11929004.908 7  -9295315.42122        22.250           2.125
  23050087.070    -6888034.771 6  -5367294.09621        17.750           1.250
  23210930.742    -3538072.289 6  -2733844.92821        12.500           0.656
  20894265.578     2169262.140 6   1689501.70322        17.000           1.844
 91  6 26 16 35 45.0000000  0  5G18G 2G11G16G19
  22833161.406    10745218.879 6   8372886.62021        16.500           0.969
  21987540.422   -11965027.565 7  -9323384.97522        22.500           2.031
  23048562.133    -6896045.384 6  -5373536.13921        18.250           1.156
  23211945.852    -3532744.717 6  -2729693.61021        12.000           0.563
  20897372.250     2185589.184 6   1702224.06122        17.000           1.813
 91  6 26 16 36  0.0000000  0  5G18G 2G11G16G19
  22842647.898    10795067.098 6   8411729.31821        16.500           0.938
  21980698.578   -12000977.899 7  -9351398.17722        22.750           2.063
  23047065.703    -6903906.658 6  -5379661.79821        18.500           1.156
  23212982.977    -3527281.855 6  -2725436.87821        12.000           0.594
  20900488.719     2201977.237 6   1714993.96422        17.000           1.938
 91  6 26 16 36 15.0000000  0  5G18G 2G11G16G19
  22852147.609    10844975.284 6   8450618.75121        16.750           0.938
  21973871.328   -12036853.133 7  -9379352.86222        22.500           2.094
  23045598.500    -6911616.056 6  -5385669.12821        18.750           1.094
  23214051.633    -3521681.171 6  -2721072.75821        12.250           0.625
  20903620.719     2218428.773 6   1727813.33122        16.500           1.906
 91  6 26 16 36 30.0000000  0  5G18G 2G11G16G19
  22861652.891    10894943.499 6   8489554.95021        16.250           0.969
  21967057.797   -12072652.819 7  -9407248.69022        22.000           2.156
  23044161.969    -6919173.313 6  -5391557.88221        19.000           1.063
  23215141.750    -3515942.512 6  -2716601.13221        12.000           0.594
  20906764.164     2234944.012 6   1740682.33522        17.250           1.844
 91  6 26 16 36 45.0000000  0  5G18G 2G11G16G19
  22871173.047    10944972.115 6   8528538.22221        16.000           1.000
  21960261.008   -12108376.107 7  -9435084.97822        22.500           2.094
  23042750.742    -6926577.409 6  -5397327.30421        18.750           0.938
  23216260.563    -3510065.066 6  -2712021.34021        12.250           0.375
  20909918.508     2251523.566 6   1753601.45422        17.000           1.813
 91  6 26 16 37  0.0000000  0  5G18G 2G11G16G19
  22880705.625    10995059.744 6   8567567.47721        16.000           0.938
  21953477.844   -12144024.187 7  -9462862.65622        22.750           2.063
  23041372.273    -6933829.448 6  -5402978.23721        18.500           0.844
  23217406.516    -3504050.557 6  -2707334.74721        12.750           0.500
  20913083.648     2268166.133 6   1766569.67322        17.250           1.719
 91  6 26 16 37 15.0000000  0  5G18G 2G11G16G19
  22890248.352    11045207.746 6   8606643.78421        16.000           0.906
  21946709.102   -12179595.280 7  -9490580.35122        22.000           2.125
  23040020.164    -6940927.544 6  -5408509.21621        17.750           0.688
  23218576.211    -3497897.321 6  -2702540.04321        12.750           0.469
  20916264.539     2284873.641 6   1779588.49622        16.500           1.844
 91  6 26 16 37 30.0000000  0  5G18G 2G11G16G19
  22899801.031    11095410.022 6   8645762.38221        15.750           0.813
  21939950.898   -12215095.236 7  -9518242.61022        22.000           2.219
  23038699.641    -6947877.677 6  -5413924.89421        17.500           0.688
  23219772.188    -3491611.475 6  -2697642.00321        12.750           0.500
  20919455.883     2301640.074 6   1792653.24322        17.000           1.656
 91  6 26 16 37 45.0000000  0  5G18G 2G11G16G19
  22909366.547    11145670.466 6   8684926.29321        15.250           0.719
  21933213.195   -12250520.007 7  -9545846.29122        22.250           2.188
  23037405.063    -6954675.646 6  -5419222.00021        17.250           0.625
  23220995.203    -3485189.157 6  -2692637.61721        12.750           0.656
  20922658.219     2318469.422 6   1805767.00922        16.250           1.625
 91  6 26 16 38  0.0000000  0  5G18G 2G11G16G19
  22918939.648    11195985.955 6   8724133.09221        14.750           0.813
  21926485.078   -12285871.933 7  -9573393.20122        23.250           2.281
  23036140.648    -6961323.919 6  -5424402.47821        17.000           0.656
  23222241.141    -3478632.859 5  -2687528.86021        11.750           0.625
  20925871.203     2335359.050 6   1818927.74722        15.750           1.625
 91  6 26 16 38 15.0000000  0  5G18G 2G11G16G19
  22928525.367    11246359.406 6   8763385.06621        14.500           0.750
  21919771.227   -12321147.775 7  -9600880.82322        23.000           2.125
  23034904.211    -6967819.441 6  -5429463.91121        16.500           0.594
  23223514.430    -3471939.541 5  -2682313.32521        11.000           0.656
  20929097.773     2352312.039 6   1832137.86622        16.250           1.656
 91  6 26 16 38 30.0000000  0  5G18G 2G11G16G19
  22938123.664    11296790.580 6   8802682.01321        15.000           0.656
  21913072.094   -12356347.502 7  -9628309.13522        21.750           2.156
  23033697.492    -6974162.125 6  -5434406.26721        17.250           0.781
  23224813.258    -3465109.589 5  -2676991.33821        11.000           0.656
  20932335.328     2369328.339 6   1845397.30822        17.750           1.625
 91  6 26 16 38 45.0000000  0  5G18G 2G11G16G19
  22947733.344    11347280.084 6   8842024.41821        15.250           0.719
  21906389.164   -12391470.316 7  -9655677.52422        21.750           2.344
  23032519.273    -6980351.102 6  -5439228.84221        17.000           0.875
  23226141.898    -3458142.472 5  -2671562.45921        11.500           0.625
  20935585.180     2386408.720 6   1858706.68422        16.250           1.563
 91  6 26 16 39  0.0000000  0  5G18G 2G11G16G19
  22957348.836    11397823.217 6   8881408.60721        15.000           0.719
  21899720.320   -12426520.449 7  -9682989.27122        22.000           2.281
  23031370.148    -6986390.712 6  -5443935.03521        17.750           0.813
  23227492.992    -3451042.704 5  -2666030.21821        11.750           0.563
  20938850.000     2403548.619 6   1872062.44622        16.250           1.625
 91  6 26 16 39 15.0000000  0  5G18G 2G11G16G19
  22966977.055    11448426.705 6   8920839.82621        15.000           0.750
  21893065.422   -12461490.720 7  -9710238.78122        21.500           2.313
  23030250.438    -6992273.650 6  -5448519.14621        18.000           1.000
  23228869.734    -3443803.368 6  -2660389.20521        12.500           0.500
  20942122.664     2420755.179 6   1885470.14021        16.500           1.469
 91  6 26 16 39 30.0000000  0  5G18G 2G11G16G19
  22976619.656    11499086.923 6   8960315.25821        15.250           0.781
  21886423.633   -12496384.495 7  -9737428.69122        20.500           2.250
  23029160.000    -6998003.139 6  -5452983.68321        18.500           1.000
  23230273.313    -3436427.618 6  -2654641.91221        12.750           0.500
  20945409.289     2438025.165 6   1898927.26522        16.250           1.594
 91  6 26 16 39 45.0000000  0  5G18G 2G11G16G19
  22986270.203    11549804.583 6   8999835.43321        14.750           0.750
  21879799.000   -12531200.886 7  -9764558.30622        20.750           2.188
  23028099.766    -7003578.343 6  -5457327.99821        19.000           1.094
  23231701.102    -3428914.952 5  -2648787.91221        11.750           0.438
  20948707.172     2455359.352 6   1912434.41422        16.250           1.688
 91  6 26 16 40  0.0000000  0  5G18G 2G11G16G19
  22995931.344    11600578.904 6   9039399.77321        14.750           0.750
  21873187.906   -12565940.122 7  -9791627.79522        22.000           2.281
  23027068.133    -7008999.840 6  -5461552.53721        19.250           1.156
  23233159.414    -3421265.756 5  -2642827.53121        11.500           0.438
  20952017.633     2472757.221 6   1925991.18822        16.000           1.594
 91  6 26 16 40 15.0000000  0  5G18G 2G11G16G19
  23005605.961    11651410.817 6   9079008.99021        15.250           0.625
  21866593.453   -12600601.251 7  -9818636.41822        21.750           2.250
  23026065.117    -7014266.440 6  -5465656.38021        19.250           1.031
  23234638.039    -3413479.386 5  -2636760.26921        10.000           0.406
  20955340.539     2490219.812 6   1939598.39222        16.000           1.563
 91  6 26 16 40 30.0000000  0  5G18G 2G11G16G19
  23015288.219    11702297.409 6   9118660.80321        15.500           0.594
  21860011.430   -12635186.619 7  -9845586.01522        21.000           2.094
  23025093.695    -7019380.590 6  -5469641.43221        19.750           1.000
  23236149.531    -3405558.671 5  -2630588.34721        10.750           0.469
  20958678.078     2507744.553 6   1953254.02622        15.750           1.688
 91  6 26 16 40 45.0000000  0  5G18G 2G11G16G19
  23024982.641    11753243.292 6   9158358.82321        15.500           0.656
  21853445.641   -12669691.051 7  -9872472.55022        21.750           2.313
  23024149.047    -7024337.085 6  -5473503.62921        18.250           0.969
  23237684.391    -3397498.592 5  -2624307.81821        11.500           0.438
  20962024.609     2525336.513 6   1966962.03722        16.250           1.813
 91  6 26 16 41  0.0000000  0  5G18G 2G11G16G19
  23034690.125    11804244.660 6   9198100.07521        15.750           0.688
  21846893.922   -12704117.979 7  -9899298.68122        23.000           2.281
  23023235.156    -7029139.332 6  -5477245.63421        17.250           1.063
  23239242.750    -3389303.171 6  -2617921.82221        12.000           0.500
  20965382.359     2542992.100 6   1980719.62622        17.000           1.813
 91  6 26 16 41 15.0000000  0  5G18G 2G11G16G19
  23044407.172    11855301.564 6   9237884.60021        16.000           0.656
  21840359.234   -12738467.247 7  -9926064.29322        22.500           2.313
  23022350.344    -7033787.160 6  -5480867.32221        16.250           0.906
  23240826.508    -3380972.045 6  -2611430.06721        12.500           0.406
  20968755.031     2560711.453 6   1994526.90722        16.250           1.781
 91  6 26 16 41 30.0000000  0  5G18G 2G11G16G19
  23054132.531    11906419.572 6   9277716.74721        15.750           0.625
  21833836.039   -12772733.108 7  -9952764.92522        21.500           2.438
  23021494.148    -7038274.815 6  -5484364.19221        16.000           0.875
  23242440.320    -3372499.570 6  -2604828.17621        13.000           0.563
  20972144.523     2578500.241 6   2008388.29322        16.000           1.781
 91  6 26 16 41 45.0000000  0  5G18G 2G11G16G19
  23063868.117    11957589.202 6   9317589.12421        15.500           0.750
  21827329.820   -12806924.428 7  -9979407.48422        22.750           2.313
  23020670.328    -7042611.246 6  -5487743.21621        15.000           0.813
  23244075.664    -3363895.206 6  -2598123.51521        12.250           0.438
  20975537.750     2596349.268 6   2022296.61722        17.250           1.656
 91  6 26 16 42  0.0000000  0  5G18G 2G11G16G19
  23073617.297    12008812.266 6   9357503.12821        15.750           0.656
  21820839.672   -12841039.187 7 -10005990.36422        23.500           2.188
  23019874.672    -7046794.346 6  -5491002.78421        14.750           0.781
  23245738.164    -3355156.911 5  -2591314.48821        11.750           0.469
  20978944.977     2614260.564 6   2036253.45622        17.750           1.750
 91  6 26 16 42 15.0000000  0  5G18G 2G11G16G19
  23083376.141    12060088.708 6   9397458.71721        16.000           0.594
  21814360.625   -12875077.170 7 -10032513.42422        23.000           2.219
  23019110.055    -7050823.972 6  -5494142.74121        15.000           0.656
  23247430.109    -3346284.774 5  -2584401.17921        11.750           0.469
  20982365.289     2632234.265 6   2050258.93522        17.250           1.719
 91  6 26 16 42 30.0000000  0  5G18G 2G11G16G19
  23093143.578    12111419.844 6   9437456.92321        16.000           0.750
  21807897.492   -12909036.431 7 -10058975.14822        22.500           2.375
  23018370.484    -7054698.265 6  -5497161.64921        15.000           0.656
  23249141.516    -3337277.103 5  -2577382.25921        11.250           0.531
  20985796.453     2650272.196 6   2064314.45322        17.750           1.750
 91  6 26 16 42 45.0000000  0  5G18G 2G11G16G19
  23102919.211    12162800.857 6   9477494.01221        15.500           0.656
  21801450.680   -12942921.629 7 -10085379.17223        23.250           2.563
  23017663.109    -7058421.718 6  -5500063.03121        16.000           0.656
  23250882.734    -3328138.577 5  -2570261.35521        11.750           0.406
  20989241.289     2668369.801 6   2078416.47722        17.000           1.813
 91  6 26 16 43  0.0000000  0  5G18G 2G11G16G19
  23112708.805    12214238.033 6   9517574.86621        15.500           0.625
  21795018.680   -12976726.174 7 -10111720.32922        24.000           2.313
  23016984.047    -7061987.917 6  -5502841.88221        16.500           0.625
  23252648.609    -3318863.145 6  -2563033.79421        12.000           0.500
  20992698.328     2686533.360 6   2092569.89622        16.750           1.750
 91  6 26 16 43 15.0000000  0  5G18G 2G11G16G19
  23122509.727    12265732.338 6   9557700.23221        16.250           0.656
  21788601.227   -13010448.794 7 -10137997.64522        23.000           2.219
  23016336.117    -7065395.595 6  -5505497.20221        17.500           0.688
  23254435.391    -3309449.850 5  -2555698.80221        11.250           0.563
  20996167.898     2704764.171 6   2106775.71822        16.750           1.844
 91  6 26 16 43 30.0000000  0  5G18G 2G11G16G19
  23132318.344    12317281.657 6   9597868.45621        16.000           0.563
  21782198.938   -13044091.277 7 -10164212.53022        22.500           2.188
  23015717.352    -7068646.456 6  -5508030.32721        18.000           0.813
  23256253.539    -3299900.513 5  -2548257.79321        11.750           0.594
  20999648.508     2723060.438 6   2121032.54522        17.000           1.781
 91  6 26 16 43 45.0000000  0  5G18G 2G11G16G19
  23142136.234    12368882.965 6   9638077.19021        16.250           0.563
  21775813.133   -13077656.119 7 -10190366.91522        22.750           2.250
  23015129.766    -7071743.051 6  -5510443.25121        19.000           0.906
  23258095.789    -3290217.905 5  -2540712.93321        11.500           0.656
  21003142.656     2741419.408 6   2135338.22522        16.500           1.875
 91  6 26 16 44  0.0000000  0  5G18G 2G11G16G19
  23151968.523    12420541.037 6   9678330.16221        16.500           0.594
  21769441.938   -13111137.941 7 -10216456.59922        23.750           2.250
  23014570.203    -7074680.241 6  -5512731.95821        19.500           0.906
  23259965.125    -3280397.036 5  -2533060.34221        11.750           0.563
  21006651.289     2759846.250 6   2149696.79422        16.000           1.813
 91  6 26 16 44 15.0000000  0  5G18G 2G11G16G19
  23161806.938    12472251.677 6   9718624.09921        16.000           0.594
  21763084.828   -13144540.791 7 -10242484.75222        23.000           2.250
  23014041.320    -7077461.838 7  -5514899.42621        20.000           1.094
  23261860.789    -3270442.168 5  -2525303.34421        11.500           0.594
  21010168.219     2778336.891 6   2164105.07722        17.000           1.813
 91  6 26 16 44 30.0000000  0  5G18G 2G11G16G19
  23171658.477    12524018.684 6   9758961.95221        16.000           0.531
  21756744.414   -13177860.747 7 -10268448.31622        22.250           2.250
  23013540.297    -7080084.122 6  -5516942.75621        19.250           1.125
  23263781.305    -3260349.614 5  -2517439.08221        11.000           0.656
  21013699.836     2796895.099 6   2178566.00422        17.750           1.844
 91  6 26 16 44 45.0000000  0  5G18G 2G11G16G19
  23181519.125    12575837.571 6   9799340.23721        16.000           0.531
  21750416.805   -13211101.927 7 -10294350.49822        22.500           2.156
  23013070.297    -7082551.225 6  -5518865.17421        18.750           1.313
  23265726.766    -3250123.878 5  -2509471.02921        10.000           0.531
  21017243.625     2815516.860 6   2193076.45522        17.000           1.969
 91  6 26 16 45  0.0000000  0  5G18G 2G11G16G19
  23191390.359    12627710.043 6   9839760.25521        16.250           0.594
  21744108.180   -13244262.293 7 -10320189.70122        23.000           2.375
  23012631.617    -7084861.063 6  -5520665.03521        18.500           1.313
  23267697.313    -3239762.869 5  -2501397.54121         9.750           0.438
  21020797.750     2834204.047 6   2207637.89122        17.500           1.938
 91  6 26 16 45 15.0000000  0  5G18G 2G11G16G19
  23201271.172    12679635.852 6   9880221.84821        16.250           0.469
  21737812.555   -13277341.579 7 -10345965.72222        22.500           2.438
  23012222.117    -7087013.445 6  -5522342.22421        18.000           1.344
  23269694.531    -3229266.697 5  -2493218.75921        10.000           0.406
  21024368.391     2852956.704 6   2222250.34222        17.500           1.938
 91  6 26 16 45 30.0000000  0  5G18G 2G11G16G19
  23211162.875    12731615.148 6   9920725.11721        16.250           0.563
  21731532.563   -13310339.563 7 -10371678.39122        22.250           2.406
  23011842.883    -7089008.208 6  -5523896.58021        17.750           1.375
  23271716.820    -3218635.701 5  -2484934.90221        10.500           0.406
  21027946.648     2871775.044 6   2236913.97422        17.750           1.875
 91  6 26 16 45 45.0000000  0  5G18G 2G11G16G19
  23221063.539    12783646.201 6   9961268.72221        16.000           0.500
  21725269.375   -13343257.601 7 -10397328.76322        23.500           2.281
  23011492.258    -7090846.710 6  -5525329.18722        16.250           1.500
  23273764.125    -3207871.128 5  -2476546.95121        10.750           0.438
  21031541.133     2890657.661 6   2251627.69222        17.000           1.875
 91  6 26 16 46  0.0000000  0  4G18G11G16G19
  23230975.656    12835727.601 6  10001851.56721        16.250           0.656
  23011173.672    -7092529.853 6  -5526640.73621        16.500           1.313
  23275841.922    -3196974.159 5  -2468055.81921        11.250           0.406
  21035144.813     2909603.632 6   2266390.78222        17.500           1.906
 91  6 26 16 46 15.0000000  0  5G18G 2G11G16G19
  23240895.375    12887857.773 6  10042472.41021        16.250           0.563
  21712787.188          -0.58017                        24.500
  23010881.758    -7094059.034 6  -5527832.31121        15.500           1.313
  23277936.813    -3185946.284 5  -2459462.72621        10.750           0.344
  21038765.141     2928611.571 6   2281202.15322        16.500           1.844
 91  6 26 16 46 30.0000000  0  5G18G 2G11G16G19
  23250826.430    12940040.889 6  10083134.49421        16.250           0.563
  21706567.477      -32679.352 7                        24.250
  23010619.008    -7095429.879 6  -5528900.51421        15.250           1.375
  23280062.727    -3174783.458 5  -2450764.46021        10.250           0.531
  21042389.977     2947685.604 6   2296065.02822        16.750           1.969
 91  6 26 16 46 45.0000000  0  5G18G 2G11G16G19
  23260766.609    12992277.698 6  10123838.42821        15.750           0.531
  21700365.883      -65274.817 7        -0.49132        25.000           2.313
  23010388.547    -7096641.239 6  -5529844.43921        15.500           1.219
  23282214.539    -3163484.812 5  -2441960.36821        10.250           0.438
  21046034.820     2966826.813 6   2310980.24822        16.250           1.906
 91  6 26 16 47  0.0000000  0  5G18G 2G11G16G19
  23270716.156    13044561.219 6  10164578.75721        15.250           0.406
  21694177.523      -97793.444 7    -25339.63122        24.500           2.219
  23010189.070    -7097699.630 6  -5530669.16821        15.750           1.000
  23284387.789    -3152057.067 5  -2433055.68421        10.500           0.344
  21049688.242     2986028.662 6   2325942.72022        17.000           1.938
 91  6 26 16 47 15.0000000  0  5G18G 2G11G16G19
  23280674.664    13096895.467 6  10205358.60121        15.250           0.531
  21688002.844     -130230.764 7    -50615.41822        23.500           2.188
  23010016.117    -7098600.647 6  -5531371.26421        16.250           1.000
  23286588.773    -3140496.026 5  -2424047.13521        11.500           0.469
  21053356.023     3005295.480 6   2340955.81522        16.750           1.969
 91  6 26 16 47 30.0000000  0  5G18G 2G11G16G19
  23290641.914    13149276.808 6  10246175.16821        14.250           0.469
  21681846.188     -162590.178 7    -75830.50422        23.750           2.438
  23009874.664    -7099347.721 6  -5531953.39821        17.250           0.938
  23288811.250    -3128805.358 6  -2414937.56421        12.250           0.375
  21057032.813     3024623.848 6   2356016.87622        17.250           1.781
 91  6 26 16 47 45.0000000  0  5G18G 2G11G16G19
  23300619.641    13201706.956 6  10287029.73521        14.000           0.500
  21675704.094     -194869.965 7   -100983.54422        24.250           2.469
  23009762.281    -7099939.180 6  -5532414.27221        17.750           0.781
  23291063.305    -3116983.500 6  -2405725.76821        13.000           0.500
  21060724.734     3044015.478 6   2371127.23122        16.500           1.844
 91  6 26 16 48  0.0000000  0  5G18G 2G11G16G19
  23310605.180    13254187.530 6  10327923.62221        14.000           0.625
  21669577.070     -227068.119 7   -126072.97423        24.750           2.531
  23009680.844    -7100373.093 6  -5532752.37921        18.000           0.813
  23293337.648    -3105028.932 6  -2396410.54521        13.000           0.563
  21064427.305     3063472.198 6   2386288.30022        17.000           1.906
 91  6 26 16 48 15.0000000  0  5G18G 2G11G16G19
  23320601.273    13306716.863 6  10368855.50921        13.500           0.594
  21663465.797     -259185.638 7   -151099.56323        24.750           2.531
  23009625.367    -7100650.468 6  -5532968.50921        19.000           0.844
  23295636.742    -3092942.795 6  -2386992.81621        12.250           0.531
  21068142.063     3082992.803 6   2401499.15722        16.500           1.844
 91  6 26 16 48 30.0000000  0  5G18G 2G11G16G19
  23330607.523    13359295.906 6  10409826.12221        13.250           0.625
  21657369.500     -291221.387 7   -176062.44322        24.750           2.438
  23009605.953    -7100770.223 6                        19.250
  23297963.398    -3080724.136 6  -2377471.82221        12.000           0.563
  21071869.570     3102578.385 6   2416760.63922        17.250           1.750
 91  6 26 16 48 45.0000000  0  5G18G 2G11G16G19
  23340623.219    13411921.115 6  10450832.70321        13.250           0.563
  21651287.758     -323178.600 7   -200964.12723        24.500           2.594
  23009610.969    -7100735.725 7                        20.000
  23300314.039    -3068376.477 5  -2367850.33021        11.250           0.594
  21075608.719     3122225.660 6   2432070.19222        16.500           1.719
 91  6 26 16 49  0.0000000  0  5G18G 2G11G16G19
  23350644.828    13464595.897 6  10491877.91421        13.000           0.594
  21645222.234     -355053.438 7   -225801.62022        24.000           2.469
  23009646.344    -7100543.181 7                        20.250
  23302686.633    -3055896.294 5  -2358125.56321        10.750           0.438
  21079357.414     3141938.265 6   2447430.65522        17.250           1.750
 91  6 26 16 49 15.0000000  0  5G18G 2G11G16G19
  23360678.969    13517316.864 6  10532959.11321        13.000           0.688
  21639170.875     -386848.958 7   -250577.31322        23.250           2.406
  23009714.352    -7100195.808 7                        20.250
  23305087.898    -3043287.296 5  -2348300.41621        10.750           0.563
  21083122.742     3161713.090 6   2462839.59722        16.250           1.656
 91  6 26 16 49 30.0000000  0  5G18G 2G11G16G19
  23370718.750    13570081.602 6  10574074.41221        13.500           0.656
  21633134.250     -418567.346 7   -275292.90222        22.750           2.281
  23009807.094    -7099695.674 7  -5532224.48721        20.000           0.938
  23307509.133    -3030551.580 5  -2338376.52821        10.250           0.594
  21086893.516     3181548.069 6   2478295.41122        16.750           1.688
 91  6 26 16 49 45.0000000  0  5G18G 2G11G16G19
  23380768.602    13622894.529 6  10615227.26021        13.250           0.750
  21627113.352     -450203.676 7   -299944.54622        23.000           2.406
  23009935.094    -7099037.867 7  -5531711.90421        20.000           1.000
  23309958.484    -3017684.649 5  -2328350.38521        10.500           0.500
  21090684.258     3201447.885 6   2493801.75322        16.250           1.656
 91  6 26 16 50  0.0000000  0  5G18G 2G11G16G19
  23390827.906    13675753.783 6  10656416.20621        13.500           0.656
  21621110.102     -481759.670 7   -324533.59122        24.000           2.375
  23010087.898    -7098224.224 6  -5531077.87821        19.250           1.094
  23312430.742    -3004688.389 5  -2318223.46721        10.750           0.531
  21094479.492     3221410.698 6   2509357.18622        16.750           1.531
 91  6 26 16 50 15.0000000  0  5G18G 2G11G16G19
  23400898.055    13728657.969 6  10697640.18021        13.750           0.656
  21615120.039     -513236.405 7   -349060.88523        24.250           2.500
  23010272.570    -7097255.819 6  -5530323.27821        19.000           1.156
  23314929.672    -2991564.014 5  -2307996.69821        11.000           0.563
  21098292.039     3241435.565 6   2524960.97322        16.000           1.688
 91  6 26 16 50 30.0000000  0  5G18G 2G11G16G19
  23410975.156    13781609.017 6  10738900.67521        14.000           0.594
  21609146.227     -544631.491 7   -373524.55323        24.500           2.656
  23010486.820    -7096130.448 6  -5529446.37121        18.000           1.063
  23317450.547    -2978309.642 5  -2297668.66321        11.000           0.500
  21102115.703     3261524.647 6   2540614.79122        16.000           1.594
 91  6 26 16 50 45.0000000  0  5G18G 2G11G16G19
  23421058.484    13834609.024 6  10780199.29721        13.500           0.563
  21603188.367     -575942.615 7   -397922.79623        25.000           2.563
  23010732.844    -7094845.802 6  -5528445.34821        17.500           1.156
  23320001.063    -2964923.008 6  -2287237.56221        12.250           0.500
  21105949.961     3281680.081 6   2556320.31922        16.000           1.688
 91  6 26 16 51  0.0000000  0  5G18G 2G11G16G19
  23431150.430    13887650.698 6  10821530.39321        13.500           0.625
  21597243.289     -607176.624 7   -422260.94423        24.750           2.531
  23011006.570    -7093408.624 6  -5527325.48121        17.500           1.313
  23322570.703    -2951411.218 5  -2276708.95321        11.750           0.438
  21109794.414     3301895.060 6   2572072.24822        17.250           1.656
 91  6 26 16 51 15.0000000  0  5G18G 2G11G16G19
  23441252.766    13940736.710 6  10862896.04121        14.000           0.469
  21591315.414     -638330.434 7   -446536.60723        24.250           2.594
  23011307.766    -7091816.131 6  -5526084.58321        16.750           1.219
  23325166.867    -2937771.587 5  -2266080.70721        11.500           0.344
  21113656.633     3322172.524 6   2587872.86022        16.750           1.656
 91  6 26 16 51 30.0000000  0  5G18G 2G11G16G19
  23451364.188    13993866.566 6  10904295.84521        13.750           0.563
  21585401.977     -669404.339 7   -470750.01022        24.250           2.438
  23011640.945    -7090068.619 6  -5524722.89721        16.500           1.313
  23327784.078    -2924004.698 5  -2255353.30521        11.000           0.438
  21117526.945     3342512.173 6   2603721.93022        17.000           1.656
 91  6 26 16 51 45.0000000  0  5G18G 2G11G16G19
  23461483.789    14047037.055 6  10945727.31121        14.250           0.531
  21579503.164     -700401.200 7   -494903.37223        23.750           2.500
  23012002.234    -7088168.926 6  -5523242.62521        15.750           1.344
  23330431.164    -2910113.639 5  -2244529.12821        10.750           0.438
  21121410.203     3362911.005 6   2619617.12222        17.000           1.625
 91  6 26 16 52  0.0000000  0  5G18G 2G11G16G19
  23471609.875    14100255.389 6  10987196.05921        14.000           0.656
  21573622.945     -731313.431 7   -518990.79122        24.250           2.438
  23012394.188    -7086109.564 6  -5521637.94021        15.500           1.406
  23333097.219    -2896091.141 5  -2233602.55621        11.500           0.500
  21125303.422     3383376.427 6   2635564.18722        17.500           1.656
 91  6 26 16 52 15.0000000  0  5G18G 2G11G16G19
  23481745.680    14153517.409 6  11028698.86121        13.250           0.531
  21567754.242     -762145.080 7   -543015.42223        24.250           2.594
  23012814.852    -7083894.624 6  -5519912.02521        15.250           1.313
  23335789.352    -2881941.406 5  -2222576.84921        11.750           0.500
  21129211.508     3403904.417 6   2651560.01322        17.500           1.656
 91  6 26 16 52 30.0000000  0  5G18G 2G11G16G19
  23491890.000    14206823.457 6  11070235.97021        13.000           0.656
  21561902.625     -792895.087 7   -566976.43023        24.000           2.563
  23013267.672    -7081523.320 6  -5518064.27021        16.000           1.438
  23338507.438    -2867663.872 6  -2211451.55721        12.500           0.438
  21133128.570     3424495.677 6   2667605.14122        17.250           1.781
 91  6 26 16 52 45.0000000  0  5G18G 2G11G16G19
  23502040.539    14260169.640 6  11111804.34221        12.500           0.594
  21556067.211     -823567.026 7   -590876.60523        24.000           2.594
  23013748.258    -7078999.290 6  -5516097.50421        16.500           1.344
  23341248.906    -2853262.479 6  -2200229.74221        13.000           0.531
  21137059.477     3445146.661 6   2683696.80922        17.250           1.625
 91  6 26 16 53  0.0000000  0  5G18G 2G11G16G19
  23512199.688    14313555.734 6  11153403.81421        12.500           0.563
  21550243.977     -854160.852 7   -614715.90623        23.250           2.656
  23014255.508    -7076322.247 6  -5514011.50421        17.250           1.375
  23344011.281    -2838737.166 6  -2188911.35921        12.750           0.563
  21141001.313     3465857.607 6   2699835.19822        17.000           1.625
 91  6 26 16 53 15.0000000  0  5G18G 2G11G16G19
  23522366.602    14366984.336 6  11195036.41321        12.500           0.438
  21544438.016     -884673.660 7   -638492.08223        24.000           2.500
  23014795.664    -7073489.573 6  -5511804.23921        18.250           1.344
  23346801.164    -2824085.456 6  -2177494.46521        12.500           0.563
  21144951.430     3486631.197 6   2716022.40122        16.750           1.563
 91  6 26 16 53 30.0000000  0  5G18G 2G11G16G19
  23532542.305    14420453.507 6  11236700.61721        12.250           0.563
  21538646.875     -915107.241 7   -662206.51923        24.000           2.625
  23015363.977    -7070503.225 6  -5509477.21521        19.000           1.219
  23349613.414    -2809309.532 6  -2165980.81821        12.000           0.531
  21148914.195     3507465.493 6   2732256.91222        17.250           1.625
 91  6 26 16 53 45.0000000  0  5G18G 2G11G16G19
  23542725.102    14473966.286 5  11278398.80321        11.750           0.563
  21532870.805     -945458.182 7   -685856.56423        24.000           2.563
  23015961.898    -7067359.777 6  -5507027.77921        19.750           1.281
  23352448.922    -2794406.213 5  -2154367.90321        11.250           0.563
  21152895.664     3528363.932 6   2748541.40122        16.500           1.688
 91  6 26 16 54  0.0000000  0  5G18G 2G11G16G19
  23552913.219    14527520.343 5  11320129.15221        11.250           0.500
  21527110.625     -975728.414 7   -709443.73422        23.500           2.406
  23016591.461    -7064061.001 7  -5504457.31821        21.250           1.094
  23355307.703    -2779377.465 5  -2142657.27821        10.750           0.563
  21156883.289     3549324.729 6   2764874.48221        16.000           1.406
 91  6 26 16 54 15.0000000  0  5G18G 2G11G16G19
  23563113.750    14581112.302 5  11361889.04921        11.000           0.563
  21521364.156    -1005921.057 7   -732970.43622        23.000           2.469
  23017248.320    -7060610.155 7  -5501768.35321        21.750           1.063
  23358191.117    -2764226.729 5  -2130851.55521        11.250           0.406
  21160880.297     3570344.439 6   2781253.47322        16.250           1.594
 91  6 26 16 54 30.0000000  0  5G18G 2G11G16G19
  23573318.258    14634746.289 5  11403681.69221        10.750           0.563
  21515635.664    -1036031.762 7   -756433.28823        23.000           2.531
  23017933.164    -7057003.191 7  -5498957.73221        21.750           1.094
  23361097.734    -2748950.193 5  -2118947.79721        11.750           0.438
  21164892.305     3591427.192 6   2797681.58822        17.250           1.625
 91  6 26 16 54 45.0000000  0  5G18G 2G11G16G19
  23583534.227    14688422.499 5  11445507.21921        11.000           0.531
  21509919.500    -1066059.775 7   -779831.69823        22.000           2.688
  23018649.492    -7053239.232 7  -5496024.78321        22.250           1.031
  23364030.508    -2733547.185 6  -2106945.49421        13.000           0.531
  21168918.781     3612573.837 6   2814159.48321        16.750           1.469
 91  6 26 16 55  0.0000000  0  5G18G 2G11G16G19
  23593755.242    14742138.701 5  11487363.92821        11.250           0.531
  21504221.938    -1096007.156 7   -803167.28623        21.750           2.719
  23019395.188    -7049320.537 7  -5492971.25521        22.000           0.906
  23366987.117    -2718020.100 6  -2094846.50421        13.750           0.500
  21172951.055     3633782.412 6   2830685.63722        17.500           1.594
 91  6 26 16 55 15.0000000  0  5G18G 2G11G16G19
  23603983.758    14795892.133 5  11529249.63021        11.000           0.469
  21498537.570    -1125876.355 7   -826441.95223        22.500           2.750
  23020169.859    -7045249.722 7  -5489799.20121        22.250           0.906
  23369964.555    -2702371.490 6  -2082652.84421        12.500           0.500
  21177000.836     3655050.214 6   2847257.94322        16.500           1.594
 91  6 26 16 55 30.0000000  0  5G18G 2G11G16G19
  23614218.828    14849682.391 5  11571164.03421        10.750           0.531
  21492868.141    -1155667.127 7   -849655.50523        22.500           2.656
  23020972.781    -7041026.662 7  -5486508.50421        22.000           0.750
  23372966.633    -2686601.738 6  -2070364.77321        12.500           0.500
  21181059.484     3676377.368 6   2863876.49922        17.250           1.625
 91  6 26 16 55 45.0000000  0  5G18G 2G11G16G19
  23624462.656    14903516.782 5  11613112.82621        10.750           0.531
  21487215.992    -1185372.025 7   -872802.14723        22.750           2.563
  23021808.664    -7036643.867 7  -5483093.34521        22.000           0.813
  23375987.594    -2670703.615 5  -2057976.70121        11.000           0.469
  21185131.594     3697771.206 6   2880547.01422        17.250           1.594
 91  6 26 16 56  0.0000000  0  5G18G 2G11G16G19
  23634717.477    14957396.596 5  11655097.02321        11.000           0.563
  21481578.906    -1214989.349 7   -895880.54923        22.750           2.688
  23022671.281    -7032099.873 7  -5479552.57221        21.500           0.844
  23379040.344    -2654675.954 5  -2045487.68021        10.750           0.469
  21189214.141     3719233.150 6   2897270.60422        17.750           1.531
 91  6 26 16 56 15.0000000  0  5G18G 2G11G16G19
  23644979.500    15011317.526 5  11697113.25621        11.500           0.500
  21475959.602    -1244523.134 7   -918893.85523        23.750           2.500
  23023567.523    -7027398.611 7  -5475889.25221        20.750           0.719
  23382110.453    -2638522.831 5  -2032900.91121        10.500           0.500
  21193311.133     3740759.454 6   2914044.34022        17.000           1.594
 91  6 26 16 56 30.0000000  0  5G18G 2G11G16G19
  23655248.055    15065277.164 6  11739159.64221        12.000           0.438
  21470355.766    -1273975.564 7   -941843.77223        24.250           2.563
  23024491.766    -7022542.314 7  -5472105.11221        20.000           0.719
  23385208.617    -2622246.560 5  -2020218.15921        11.250           0.438
  21197419.781     3762347.814 6   2930866.43722        16.500           1.688
 91  6 26 16 56 45.0000000  0  5G18G 2G11G16G19
  23665524.211    15119279.012 6  11781238.91821        12.250           0.469
  21464769.008    -1303342.653 7   -964727.18323        24.750           2.563
  23025444.898    -7017527.214 6  -5468197.22721        19.750           0.688
  23388331.461    -2605843.743 5  -2007436.78821        11.250           0.313
  21201538.539     3784002.097 6   2947739.89622        16.750           1.531
 91  6 26 16 57  0.0000000  0  5G18G 2G11G16G19
  23675806.539    15173317.078 6  11823346.42821        12.000           0.594
  21459195.039    -1332630.309 7   -987548.70323        25.000           2.531
  23026428.867    -7012359.238 6  -5464170.23921        18.750           0.844
  23391475.039    -2589320.168 5  -1994561.32021        11.750           0.375
  21205670.422     3805716.368 6   2964660.10822        16.750           1.531
 91  6 26 16 57 15.0000000  0  5G18G 2G11G16G19
  23686097.945    15227392.595 5  11865483.10921        11.750           0.500
  21453636.859    -1361836.756 7  -1010306.93823        25.000           2.531
  23027440.797    -7007036.646 6  -5460022.76321        18.250           0.781
  23394643.719    -2572674.333 5  -1981590.59421        11.500           0.438
  21209816.945     3827492.266 6   2981628.33122        16.500           1.781
 91  6 26 16 57 30.0000000  0  5G18G 2G11G16G19
  23696391.367    15281503.716 5  11907647.54421        11.750           0.500
  21448091.789    -1390963.630 7  -1033003.17523        24.250           2.594
  23028483.305    -7001561.068 6  -5455756.08221        17.750           0.750
  23397836.211    -2555908.460 6  -1968526.34121        12.000           0.500
  21213969.031     3849328.067 6   2998643.23522        16.500           1.563
 91  6 26 16 57 45.0000000  0  5G18G 2G11G16G19
  23706696.656    15335654.362 6  11949842.76221        12.250           0.563
  21442567.422    -1420006.580 7  -1055634.02023        24.000           2.531
  23029553.977    -6995928.472 6  -5451367.04021        17.000           0.844
  23401046.773    -2539018.583 6  -1955365.45821        12.250           0.406
  21218138.469     3871227.877 6   3015708.01722        16.250           1.594
 91  6 26 16 58  0.0000000  0  5G18G 2G11G16G19
  23717010.477    15389838.599 6  11992064.15521        12.250           0.625
  21437053.914    -1448971.159 7  -1078203.79122        24.000           2.469
  23030654.891    -6990144.518 6  -5446860.07121        17.000           0.750
  23404281.859    -2522010.518 5  -1942112.47521        11.750           0.594
  21222314.320     3893186.290 6   3032818.46322        17.000           1.625
 91  6 26 16 58 15.0000000  0  5G18G 2G11G16G19
  23727327.555    15444059.326 5  12034313.99221        11.250           0.531
  21431557.680    -1477854.355 7  -1100710.14222        23.500           2.438
  23031785.211    -6984206.254 6  -5442232.84821        16.500           0.781
  23407543.016    -2504881.287 6  -1928765.08621        12.000           0.531
  21226507.445     3915206.382 6   3049976.96922        16.250           1.688
 91  6 26 16 58 30.0000000  0  5G18G 2G11G16G19
  23737650.820    15498318.202 5  12076593.55821        10.750           0.500
  21426077.789    -1506654.081 7  -1123151.45422        23.750           2.438
  23032943.203    -6978111.759 6  -5437483.89121        16.000           0.875
  23410828.406    -2487629.523 5  -1915322.21721        11.750           0.531
  21230707.008     3937289.860 6   3067184.86322        16.750           1.688
 91  6 26 16 58 45.0000000  0  5G18G 2G11G16G19
  23747982.922    15552609.781 5  12118898.59621        10.250           0.375
  21420613.578    -1535375.319 7  -1145531.61422        24.500           2.469
  23034133.555    -6971866.116 6  -5432617.16121        16.500           0.844
  23414130.656    -2470260.228 5  -1901787.77121        11.000           0.531
  21234921.656     3959431.771 6   3084438.29822        16.500           1.719
 91  6 26 16 59  0.0000000  0  5G18G 2G11G16G19
  23758320.109    15606941.285 5  12161234.77421         9.750           0.500
  21415164.266    -1564010.263 7  -1167844.53223        25.750           2.563
  23035353.180    -6965461.608 6  -5427626.64521        16.750           1.031
  23417463.352    -2452765.816 5  -1888155.82021        10.750           0.406
  21239146.813     3981639.860 6   3101743.28722        17.000           1.750
 91  6 26 16 59 15.0000000  0  5G18G 2G11G16G19
  23768667.305    15661302.524 5  12203594.09821         9.750           0.469
  21409730.078    -1592569.678 7  -1190098.58923        26.500           2.625
  23036599.711    -6958908.997 6  -5422520.72421        16.000           1.000
  23420808.453    -2435157.240 5  -1874434.90721         9.750           0.438
  21243386.031     4003903.366 6   3119091.46422        16.500           1.906
 91  6 26 16 59 30.0000000  0  5G18G 2G11G16G19
  23779018.391    15715703.483 5  12245984.37121         9.500           0.469
  21404309.000    -1621043.036 7  -1212285.58623        25.250           2.656
  23037877.305    -6952197.726 6  -5417291.17221        16.750           1.031
  23424184.641    -2417424.270 5  -1860617.04921        10.000           0.375
  21247633.273     4026232.844 6   3136491.04422        17.250           1.844
 91  6 26 16 59 45.0000000  0  5G18G 2G11G16G19
  23789377.266    15770141.672 5  12288403.65321         9.500           0.438
  21398907.414    -1649432.194 7  -1234406.97323        24.000           2.688
  23039183.539    -6945329.880 6  -5411939.61221        16.750           1.063
  23427584.883    -2399569.524 5  -1846704.30721        10.750           0.406
  21251897.461     4048626.207 6   3153940.40622        17.000           1.844
 91  6 26 17  0  0.0000000  0  5G18G 2G11G16G19
  23799742.344    15824616.679 5  12330851.62121         9.750           0.438
  21393522.281    -1677737.088 7  -1256462.70523        23.750           2.719
  23040522.031    -6938305.590 6  -5406466.14621        17.250           1.094
  23431006.766    -2381592.781 5  -1832696.48821        11.000           0.469
  21256167.461     4071083.501 6   3171439.57922        17.000           1.844
 91  6 26 17  0 15.0000000  0  5G18G 2G11G16G19
  23810116.156    15879123.661 5  12373324.48421         9.750           0.500
  21388150.477    -1705962.298 7  -1278456.33323        23.750           2.656
  23041887.938    -6931129.521 6  -5400874.40521        18.250           1.188
  23434447.625    -2363498.912 5  -1818597.43221        11.250           0.531
  21260454.727     4093600.232 6   3188985.07122        16.500           1.781
 91  6 26 17  0 30.0000000  0  5G18G 2G11G16G19
  23820496.656    15933667.859 5  12415826.38221         9.500           0.250
  21382794.836    -1734102.311 7  -1300383.57823        24.000           2.531
  23043281.891    -6923796.376 6  -5395160.26821        18.750           1.250
  23437912.453    -2345283.445 5  -1804403.62121        10.250           0.563
  21264751.023     4116181.531 6   3206580.87922        16.500           1.781
 91  6 26 17  0 45.0000000  0  5G18G 2G11G16G19
  23830880.273    15988250.488 5  12458358.21321         9.250           0.406
  21377457.000    -1762155.627 7  -1322243.27823        24.000           2.531
  23044707.805    -6916304.682 6  -5389322.59221        19.250           1.313
  23441402.305    -2326944.666 5  -1790113.71121        10.250           0.594
  21269061.734     4138828.817 6   3224228.10022        16.000           1.813
 91  6 26 17  1  0.0000000  0  5G18G 2G11G16G19
  23841271.922    16042863.565 5  12500913.78121         9.000           0.406
  21372134.680    -1790129.818 7  -1344041.31423        25.500           2.719
  23046163.117    -6908662.087 6  -5383367.32421        19.250           1.344
  23444916.352    -2308490.314 5  -1775733.76921        10.500           0.469
  21273379.852     4161534.519 6   3241920.84022        16.250           1.781
 91  6 26 17  1 15.0000000  0  5G18G 2G11G16G19
  23851675.789    16097511.457 5  12543496.47421         9.750           0.469
  21366827.883    -1818020.386 7  -1365774.19023        26.250           2.719
  23047646.188    -6900864.142 6  -5377291.01021        19.750           1.406
  23448452.070    -2289916.283 5  -1761260.54821        11.250           0.469
  21277714.484     4184303.124 6   3259662.59722        16.000           1.656
 91  6 26 17  1 30.0000000  0  5G18G 2G11G16G19
  23862080.758    16152193.548 5  12586105.80821         9.750           0.313
  21361536.203    -1845827.437 7  -1387441.99723        25.750           2.719
  23049159.000    -6892911.088 6  -5371093.84022        19.750           1.500
  23452009.859    -2271223.198 5  -1746694.56821        11.750           0.469
  21282057.305     4207134.608 6   3277453.34922        16.000           1.594
 91  6 26 17  1 45.0000000  0  5G18G 2G11G16G19
  23872493.820    16206910.601 5  12628742.37721        10.250           0.344
  21356259.633    -1873550.289 7  -1409044.18223        25.250           2.594
  23050702.727    -6884802.358 7  -5364775.35221        20.500           1.406
  23455589.172    -2252410.622 5  -1732035.48421        11.500           0.438
  21286416.188     4230029.563 6   3295293.56922        15.750           1.688
 91  6 26 17  2  0.0000000  0  5G18G 2G11G16G19
  23882914.492    16261661.088 5  12671405.01821        10.250           0.313
  21351000.070    -1901189.893 7  -1430581.50823        25.000           2.531
  23052274.484    -6876538.879 7  -5358336.28121        20.500           1.438
  23459192.844    -2233479.402 5  -1717283.93921        11.250           0.531
  21290782.547     4252987.187 6   3313182.60522        16.000           1.625
 91  6 26 17  2 15.0000000  0  5G18G 2G11G16G19
  23893338.383    16316443.752 5  12714092.70321        10.500           0.375
  21345757.125    -1928747.235 7  -1452054.73622        25.500           2.406
  23053875.031    -6868121.938 7  -5351777.63121        20.500           1.406
  23462816.422    -2214431.044 5  -1702441.13321        11.500           0.375
  21295165.211     4276006.065 6   3331119.38422        15.250           1.625
 91  6 26 17  2 30.0000000  0  5G18G 2G11G16G19
  23903767.469    16371259.001 5  12756805.79821        10.500           0.344
  21340527.258    -1956221.455 7  -1473463.20123        24.750           2.500
  23055507.586    -6859550.823 7  -5345098.84221        20.750           1.281
  23466464.555    -2195265.236 5  -1687506.80321        11.500           0.594
  21299555.602     4299087.009 6   3349104.52322        15.500           1.781
 91  6 26 17  2 45.0000000  0  5G18G 2G11G16G19
  23914206.398    16426108.347 5  12799545.47721        10.750           0.406
  21335316.773    -1983611.048 7  -1494805.72123        24.750           2.719
  23057167.109    -6850824.121 7  -5338298.80621        20.250           1.406
  23470131.586    -2175980.481 5  -1672479.78021        11.500           0.469
  21303961.484     4322231.591 6   3367139.25222        15.250           1.906
 91  6 26 17  3  0.0000000  0  5G18G 2G11G16G19
  23924651.625    16480993.719 5  12842313.21721        10.750           0.438
  21330121.781    -2010913.522 7  -1516080.34823        24.500           2.844
  23058857.703    -6841939.491 7  -5331375.71721        20.250           1.375
  23473826.516    -2156574.676 5  -1657358.43121        11.500           0.500
  21308380.008     4345442.117 6   3385225.35922        15.000           1.906
 91  6 26 17  3 15.0000000  0  5G18G 2G11G16G19
  23935101.727    16535906.304 5  12885102.15821        11.000           0.344
  21324939.289    -2038137.611 7  -1537293.89223        24.750           2.875
  23060577.391    -6832905.710 7  -5324336.41021        20.750           1.438
  23477539.711    -2137057.127 5  -1642150.01921        11.000           0.469
  21312806.414     4368709.751 6   3403355.96522        15.250           1.813
 91  6 26 17  3 30.0000000  0  5G18G 2G11G16G19
  23945556.633    16590854.786 5  12927919.06821        10.500           0.469
  21319776.695    -2065273.950 7  -1558439.06823        25.500           2.813
  23062327.219    -6823713.555 7  -5317173.69121        20.500           1.281
  23481277.734    -2117418.659 5  -1626847.37421        11.000           0.594
  21317243.117     4392043.891 6   3421538.39722        16.250           1.906
 91  6 26 17  3 45.0000000  0  5G18G 2G11G16G19
  23956018.195    16645836.859 5  12970762.16121        10.250           0.438
  21314629.750    -2092324.671 7  -1579517.52723        26.500           2.875
  23064104.883    -6814365.146 7  -5309889.22921        20.000           1.281
  23485033.063    -2097661.480 5  -1611452.23121        10.000           0.406
  21321699.398     4415442.538 6   3439771.09522        15.250           1.844
 91  6 26 17  4  0.0000000  0  5G18G 2G11G16G19
  23966487.242    16700848.392 5  13013628.19421        10.000           0.406
  21309496.648    -2119293.497 7  -1600532.17223        26.250           2.813
  23065911.883    -6804864.464 6  -5302486.09221        19.250           1.219
  23488816.945    -2077789.814 5  -1595967.87821        10.250           0.469
  21326163.883     4438901.798 6   3458051.02022        15.500           1.781
 91  6 26 17  4 15.0000000  0  5G18G 2G11G16G19
  23976959.945    16755887.368 5  13056515.59921        10.000           0.375
  21304379.438    -2146182.106 7  -1621484.31523        26.000           2.594
  23067750.023    -6795213.463 6  -5294965.83821        19.250           1.281
  23492621.336    -2057805.650 5  -1580395.86721        10.500           0.531
  21330639.984     4462419.891 6   3476376.79522        15.500           1.875
 91  6 26 17  4 30.0000000  0  5G18G 2G11G16G19
  23987441.445    16810961.327 5  13099430.28921        10.000           0.438
  21299278.734    -2172982.507 7  -1642367.71623        25.750           2.625
  23069617.008    -6785404.143 6  -5287322.20721        19.500           1.219
  23496446.617    -2037701.304 5  -1564730.21021        10.250           0.563
  21335127.164     4486004.760 6   3494754.60422        15.750           1.719
 91  6 26 17  4 45.0000000  0  5G18G 2G11G16G19
  23997927.547    16866062.673 5  13142366.31421        10.000           0.375
  21294196.055    -2199702.343 7  -1663188.34723        26.250           2.563
  23071511.828    -6775444.179 6  -5279561.19521        19.500           1.063
  23500291.055    -2017484.856 5  -1548977.20021         9.750           0.375
  21339627.047     4509648.775 6   3513178.50222        15.750           1.750
 91  6 26 17  5  0.0000000  0  5G18G 2G11G16G19
  24008417.383    16921192.339 5  13185324.41121        10.000           0.469
  21289125.133    -2226340.456 7  -1683945.29423        26.250           2.500
  23073436.805    -6765332.663 6  -5271682.09021        19.750           1.063
  23504161.383    -1997155.025 5  -1533135.81221        10.000           0.375
  21344138.602     4533352.875 6   3531649.22322        15.750           1.750
 91  6 26 17  5 15.0000000  0  5G18G 2G11G16G19
  24018916.766    16976352.445 5  13228306.21721         9.750           0.438
  21284073.047    -2252894.173 7  -1704636.47923        26.000           2.594
  23075388.766    -6755067.134 6  -5263682.97421        19.000           1.156
  23508051.789    -1976709.744 5  -1517204.48621        10.000           0.375
  21348659.781     4557119.568 6   3550168.71322        15.500           1.656
 91  6 26 17  5 30.0000000  0  5G18G 2G11G16G19
  24029419.367    17031542.269 5  13271311.18421        10.250           0.469
  21279035.531    -2279363.764 7  -1725262.10423        26.250           2.750
  23077372.258    -6744648.004 6  -5255564.17021        19.500           0.906
  23511964.531    -1956149.837 5  -1501183.84621        10.000           0.219
  21353196.484     4580948.486 6   3568736.69722        15.250           1.719
 91  6 26 17  5 45.0000000  0  5G18G 2G11G16G19
  24039929.617    17086763.320 5  13314340.47721        10.250           0.313
  21274014.625    -2305747.722 7  -1745821.00923        26.250           2.719
  23079385.563    -6734073.688 6  -5247324.43721        19.500           1.063
  23515898.008    -1935473.616 5  -1485072.56121         9.250           0.469
  21357740.750     4604841.420 6   3587354.55422        15.500           1.688
 91  6 26 17  6  0.0000000  0  5G18G 2G11G16G19
  24050440.883    17142011.828 5  13357391.16521        10.000           0.375
  21269009.820    -2332049.180 7  -1766315.62723        26.250           2.844
  23081425.656    -6723347.551 6  -5238966.40021        18.750           0.875
  23519855.586    -1914684.646 5  -1468873.41521         8.750           0.344
  21362296.789     4628794.905 6   3606019.59722        16.000           1.625
 91  6 26 17  6 15.0000000  0  5G18G 2G11G16G19
  24060959.070    17197284.519 5  13400460.70121        10.000           0.438
  21264018.813    -2358271.273 7  -1786748.40023        26.000           2.813
  23083493.781    -6712472.742 6  -5230492.53921        18.750           0.844
  23523831.508    -1893786.573 5  -1452589.25121         9.000           0.313
  21366868.414     4652805.956 6   3624729.49922        15.000           1.656
 91  6 26 17  6 30.0000000  0  5G18G 2G11G16G19
  24071481.438    17252582.090 5  13443549.62421        10.000           0.313
  21259045.938    -2384412.996 7  -1807118.54923        26.000           2.781
  23085592.898    -6701448.527 6  -5221902.23321        19.250           0.719
  23527830.695    -1872778.660 5  -1436219.51121         9.000           0.344
  21371449.781     4676875.569 6   3643485.03322        14.500           1.656
 91  6 26 17  6 45.0000000  0  5G18G 2G11G16G19
  24082009.461    17307910.952 5  13486662.93521        10.000           0.250
  21254088.375    -2410467.523 7  -1827420.75723        26.000           2.844
  23087718.953    -6690268.417 6  -5213190.45621        18.000           0.750
  23531852.617    -1851654.584 5  -1419759.25421         9.500           0.438
  21376041.539     4701010.323 6   3662291.32022        15.000           1.625
 91  6 26 17  7  0.0000000  0  5G18G 2G11G16G19
  24092547.164    17363268.906 5  13529798.92621        10.250           0.313
  21249145.820    -2436436.758 7  -1847656.50323        26.000           2.844
  23089877.148    -6678934.400 6  -5204358.76021        17.750           0.719
  23535891.109    -1830416.673 5  -1403210.30821         9.000           0.469
  21380643.773     4725208.192 6   3681146.78822        15.000           1.719
 91  6 26 17  7 15.0000000  0  5G18G 2G11G16G19
  24103085.406    17418652.022 5  13572954.49321        10.250           0.250
  21244219.313    -2462324.596 7  -1867828.82623        25.250           2.719
  23092063.922    -6667450.360 6  -5195410.15421        18.000           0.688
  23539953.781    -1809068.767 5  -1386575.63921         9.000           0.469
  21385260.094     4749465.342 6   3700048.45922        14.500           1.594
 91  6 26 17  7 30.0000000  0  5G18G 2G11G16G19
  24113627.977    17474060.566 5  13616129.89121        10.000           0.313
  21239308.469    -2488130.206 7  -1887937.07423        24.750           2.719
  23094275.820    -6655815.582 6  -5186344.08621        17.250           0.719
  23544033.891    -1787610.390 5  -1369854.88621         9.500           0.469
  21389886.750     4773782.572 6   3718996.94022        16.000           1.656
 91  6 26 17  7 45.0000000  0  5G18G 2G11G16G19
  24124178.703    17529499.536 5  13659328.98221         9.750           0.219
  21234415.156    -2513848.431 7  -1907977.22523        24.750           2.719
  23096520.672    -6644025.022 6  -5177156.64221        17.250           0.813
  23548142.961    -1766036.730 5  -1353044.31421        10.250           0.500
  21394529.641     4798165.041 6   3737996.25522        15.250           1.594
 91  6 26 17  8  0.0000000  0  5G18G 2G11G16G19
  24134733.227    17584966.190 5  13702549.64921         9.500           0.313
  21229536.047    -2539481.717 7  -1927951.19423        24.750           2.719
  23098792.563    -6632081.227 6  -5167849.78421        17.000           0.688
  23552270.820    -1744350.590 5  -1336146.07221        10.500           0.438
  21399179.766     4822610.342 6   3757044.53722        15.500           1.563
 91  6 26 17  8 15.0000000  0  5G18G 2G11G16G19
  24145289.344    17640458.713 5  13745790.46421         9.000           0.313
  21224674.234    -2565031.429 7  -1947860.04023        25.000           2.750
  23101095.461    -6619985.848 6  -5158424.81821        16.500           0.594
  23556419.219    -1722553.588 5  -1319161.43921        10.750           0.375
  21403843.102     4847116.947 6   3776140.58022        15.250           1.531
 91  6 26 17  8 30.0000000  0  5G18G 2G11G16G19
  24155856.867    17695974.464 5  13789049.39621         9.250           0.250
  21219829.047    -2590499.974 7  -1967705.64423        26.000           2.875
  23103424.906    -6607741.299 6  -5148883.61121        16.000           0.625
  23560584.914    -1700648.388 5  -1302092.49321        10.750           0.438
  21408516.672     4871682.412 6   3795282.50122        15.750           1.656
 91  6 26 17  8 45.0000000  0  5G18G 2G11G16G19
  24166429.211    17751521.035 5  13832332.33321         9.750           0.281
  21214998.734    -2615879.776 7  -1987482.09423        26.250           2.906
  23105785.719    -6595340.094 6  -5139220.32621        15.750           0.688
  23564774.836    -1678627.556 5  -1284933.45321        10.250           0.438
  21413205.609     4896314.293 6   3814476.16522        15.750           1.594
 91  6 26 17  9  0.0000000  0  5G18G 2G11G16G19
  24177002.086    17807092.088 5  13875634.35521         9.500           0.219
  21210185.445    -2641176.684 7  -2007193.94923        26.250           2.844
  23108173.094    -6582788.327 6  -5129439.73221        15.250           0.688
  23568990.055    -1656497.480 5  -1267689.29021        10.500           0.469
  21417905.750     4921006.697 6   3833716.99422        15.250           1.750
 91  6 26 17  9 15.0000000  0  5G18G 2G11G16G19
  24187582.859    17862686.608 5  13918954.64721         9.250           0.281
  21205386.086    -2666391.237 7  -2026841.63323        26.250           2.906
  23110590.094    -6570086.779 6  -5119542.42121        15.000           0.656
  23573219.406    -1634259.347 5  -1250360.93521        10.250           0.406
  21422616.094     4945758.924 6   3853004.43722        15.250           1.719
 91  6 26 17  9 30.0000000  0  5G18G 2G11G16G19
  24198165.648    17918307.094 5  13962295.17621         8.500           0.188
  21200604.484    -2691520.648 7  -2046422.96223        26.000           2.938
  23113035.391    -6557232.795 6  -5109526.31921        14.000           0.625
  23577473.414    -1611910.401 5  -1232946.24821        10.750           0.500
  21427335.586     4970573.726 6   3872340.64022        16.000           1.719
 91  6 26 17  9 45.0000000  0  5G18G 2G11G16G19
  24208754.039    17973950.279 5  14005653.40921         8.500           0.250
  21195839.703    -2716567.826 7  -2065940.21823        26.500           2.969
  23115510.656    -6544229.335 6  -5099393.75121        14.250           0.688
  23581745.570    -1589453.610 5  -1215447.51621        10.250           0.500
  21432072.523     4995448.259 6   3891723.39122        16.000           1.656
 91  6 26 17 10  0.0000000  0  5G18G 2G11G16G19
  24219347.555    18029622.179 5  14049033.98621         8.750           0.125
  21191088.555    -2741526.348 7  -2085388.39123        25.750           2.844
  23118014.898    -6531070.314 6  -5089139.95921        14.000           0.531
  23586041.547    -1566883.278 5  -1197860.31821         9.750           0.469
  21436816.820     5020388.667 6   3911157.46422        16.250           1.719
 91  6 26 17 10 15.0000000  0  5G18G 2G11G16G19
  24229946.039    18085317.188 5  14092432.60521         8.500           0.281
  21186356.188    -2766401.612 7  -2104771.69523        25.500           2.844
  23120548.414    -6517761.149 6  -5078769.17421        13.500           0.563
  23590356.203    -1544204.918 5  -1180188.92121         9.750           0.500
  21441575.406     5045389.555 6   3930638.66922        16.250           1.594
 91  6 26 17 10 30.0000000  0  5G18G 2G11G16G19
  24240548.758    18141033.767 5  14135848.02921         8.750           0.281
  21181636.430    -2791194.688 7  -2124090.95223        25.000           2.844
  23123107.977    -6504303.032 6  -5068282.31621        13.250           0.500
  23594692.453    -1521420.065 5  -1162434.55821        10.250           0.531
  21446341.211     5070449.906 6   3950166.20122        16.750           1.719
 91  6 26 17 10 45.0000000  0  5G18G 2G11G16G19
  24251156.508    18196778.858 5  14179285.64821         8.750           0.219
  21176935.289    -2815898.694 7  -2143340.81423        25.500           2.906
  23125697.586    -6490689.364 6  -5057674.26221        13.250           0.469
  23599050.141    -1498522.236 5  -1144592.17121        10.000           0.563
  21451126.422     5095576.565 6   3969745.41122        16.500           1.625
 91  6 26 17 11  0.0000000  0  5G18G 2G11G16G19
  24261768.695    18252551.620 5  14222744.81821         9.000           0.344
  21172252.133    -2840514.220 7  -2162521.72423        25.750           2.875
  23128319.711    -6476920.810 6  -5046945.51921        13.250           0.625
  23603428.125    -1475512.349 5  -1126662.45221        10.250           0.438
  21455917.055     5120768.928 6   3989375.81422        17.000           1.656
 91  6 26 17 11 15.0000000  0  5G18G 2G11G16G19
  24272385.984    18308348.013 5  14266222.42621         8.750           0.281
  21167585.234    -2865044.900 7  -2181636.52423        25.750           2.906
  23130969.188    -6463001.072 6  -5036098.96421        13.250           0.531
  23607826.563    -1452394.166 5  -1108648.34321        10.500           0.438
  21460726.281     5146023.207 6   4009054.46122        16.500           1.531
 91  6 26 17 11 30.0000000  0  5G18G 2G11G16G19
  24283008.555    18364167.093 5  14309717.72721         9.000           0.219
  21162933.484    -2889491.045 7  -2200685.44723        25.500           3.000
  23133646.188    -6448930.748 6  -5025135.06721        13.250           0.625
  23612250.602    -1429168.304 5  -1090550.30921        10.750           0.375
  21465539.438     5171339.030 6   4028781.07022        17.000           1.625
 91  6 26 17 11 45.0000000  0  5G18G 2G11G16G19
  24293633.633    18420010.581 5  14353231.99921         9.250           0.219
  21158296.305    -2913850.816 7  -2219667.06723        26.000           2.875
  23136351.836    -6434708.104 6  -5014052.47921        13.000           0.500
  23616685.602    -1405833.378 5  -1072367.31921        10.250           0.469
  21470372.383     5196718.353 6   4048557.15422        16.500           1.719
 91  6 26 17 12  0.0000000  0  5G18G 2G11G16G19
  24304267.141    18475875.734 5  14396763.18021         9.250           0.281
  21153675.898    -2938126.648 7  -2238583.28123        25.750           3.031
  23139087.820    -6420335.831 6  -5002853.31221        13.750           0.531
  23621148.180    -1382391.989 5  -1054101.34421        10.500           0.500
  21475210.836     5222158.487 6   4068380.62622        17.000           1.656
 91  6 26 17 12 15.0000000  0  5G18G 2G11G16G19
  24314902.547    18531763.234 5  14440311.77421         9.500           0.313
  21149072.398    -2962317.849 7  -2257433.54623        25.250           3.156
  23141848.172    -6405813.327 6  -4991537.06421        12.750           0.469
  23625630.758    -1358843.951 5  -1035752.27521        10.750           0.500
  21480065.328     5247660.121 6   4088252.02022        17.000           1.781
 91  6 26 17 12 30.0000000  0  5G18G 2G11G16G19
  24325543.641    18587674.445 5  14483878.84021         9.750           0.313
  21144485.391    -2986422.629 7  -2276216.46523        24.750           3.188
  23144640.500    -6391139.086 6  -4980102.61921        13.250           0.500
  23630131.047    -1335187.677 5  -1017318.88221         9.750           0.469
  21484929.273     5273224.960 6   4108172.66422        17.500           1.781
 91  6 26 17 12 45.0000000  0  5G18G 2G11G16G19
  24336186.930    18643605.234 5  14527461.15121        10.250           0.219
  21139914.555    -3010444.746 7  -2294934.97323        24.500           3.000
  23147463.445    -6376316.805 6  -4968552.79021        13.500           0.563
  23634654.305    -1311427.217 5   -998804.28421         9.500           0.594
  21489807.617     5298849.414 6   4128139.76322        16.750           1.750
 91  6 26 17 13  0.0000000  0  5G18G 2G11G16G19
  24346832.922    18699551.020 5  14571055.17221        10.250           0.344
  21135357.578    -3034388.274 7  -2313592.24023        25.000           2.969
  23150311.172    -6361350.858 6  -4956891.01321        13.000           0.563
  23639194.008    -1287567.123 5   -980212.05521         9.250           0.500
  21494692.570     5324529.294 6   4148150.05322        17.250           1.781
 91  6 26 17 13 15.0000000  0  5G18G 2G11G16G19
  24357483.164    18755517.546 5  14614665.34021        10.000           0.375
  21130818.555    -3058247.274 7  -2332183.65523        25.500           2.688
  23153187.125    -6346235.491 6  -4945112.81021        13.000           0.656
  23643753.383    -1263601.874 5   -961537.89421         9.000           0.563
  21499591.938     5350270.375 6   4168208.02822        17.000           1.844
 91  6 26 17 13 30.0000000  0  5G18G 2G11G16G19
  24368135.313    18811500.898 5  14658288.61021         9.500           0.313
  21126292.320    -3082025.490 7  -2350712.12023        25.500           2.719
  23156090.734    -6330974.622 6  -4933221.22921        13.000           0.531
  23648331.648    -1239535.373 5   -942784.84721         8.250           0.625
  21504499.797     5376068.972 6   4188310.82522        17.250           1.813
 91  6 26 17 13 45.0000000  0  5G18G 2G11G16G19
  24378792.164    18867505.217 5  14701928.22721         8.750           0.344
  21121784.820    -3105718.578 7  -2369174.24823        25.500           2.719
  23159023.109    -6315564.020 6  -4921212.97321        12.750           0.594
  23652932.820    -1215363.605 5   -923949.76321         7.750           0.531
  21509422.906     5401929.469 6   4208461.85822        17.000           1.688
 91  6 26 17 14  0.0000000  0  5G18G 2G11G16G19
  24389454.641    18923524.118 5  14745579.19021         9.250           0.250
  21117292.148    -3129332.426 7  -2387574.62023        26.000           2.813
  23161984.609    -6300009.813 6  -4909092.81221        13.250           0.469
  23657551.344    -1191092.890 5   -905037.57821         7.750           0.625
  21514351.578     5427845.809 6   4228656.39922        17.500           1.656
 91  6 26 17 14 15.0000000  0  5G18G 2G11G16G19
  24400115.922    18979561.964 5  14789244.93221         9.000           0.281
  21112814.344    -3152862.261 7  -2405909.53523        26.250           2.625
  23164972.172    -6284307.331 6  -4896857.11721        13.750           0.563
  23662189.656    -1166718.812 5   -886044.84021         8.250           0.438
  21519299.281     5453822.562 6   4248898.01322        17.250           1.656
 91  6 26 17 14 30.0000000  0  5G18G 2G11G16G19
  24410787.133    19035619.769 5  14832926.20721         9.250           0.281
  21108353.578    -3176307.035 7  -2424178.16723        26.750           2.750
  23167988.500    -6268455.780 6  -4884505.27121        13.750           0.594
  23666847.859    -1142240.580 5   -866970.96721         8.500           0.469
  21524251.000     5479860.685 6   4269187.44722        17.500           1.594
 91  6 26 17 14 45.0000000  0  5G18G 2G11G16G19
  24421456.586    19091690.496 5  14876617.55321         9.000           0.344
  21103905.383    -3199673.429 7  -2442385.71923        26.750           2.844
  23171032.563    -6252461.852 6  -4872042.46821        14.000           0.594
  23671526.008    -1117665.255 5   -847821.40921         9.000           0.500
  21529217.750     5505953.770 6   4289519.70822        16.500           1.625
 91  6 26 17 15  0.0000000  0  5G18G 2G11G16G19
  24432129.164    19147775.226 5  14920319.81721         8.500           0.219
  21099474.484    -3222959.814 7  -2460530.93923        26.750           2.875
  23174104.430    -6236324.113 6  -4859467.62321        14.250           0.531
  23676220.492    -1092991.481 5   -828595.15121         9.250           0.500
  21534190.797     5532103.328 6   4309895.97822        17.000           1.594
 91  6 26 17 15 15.0000000  0  5G18G 2G11G16G19
  24442803.531    19203881.538 5  14964038.90821         8.750           0.250
  21095061.109    -3246158.569 7  -2478607.87523        27.000           3.000
  23177203.414    -6220035.312 6  -4846775.04721        14.500           0.531
  23680933.898    -1068211.816 5   -809286.36121         8.750           0.438
  21539183.133     5558316.853 6   4330322.09122        16.750           1.625
 91  6 26 17 15 30.0000000  0  4G 2G11G16G19
  21090661.680    -3269272.062 7  -2496618.36823        26.750           3.063
  23180331.578    -6203597.942 6  -4833966.71221        14.250           0.469
  23685667.078    -1043329.135 5   -789897.33021         8.750           0.531
  21544182.375     5584592.080 6   4350796.28122        16.500           1.563
 91  6 26 17 15 45.0000000  0  4G 2G11G16G19
  21086279.906    -3292297.638 7  -2514560.34623        26.000           2.969
  23183487.867    -6187009.360 6  -4821040.55021        14.250           0.531
  23690423.117    -1018341.017 5   -770426.12921         9.000           0.500
  21549193.617     5610931.714 6   4371320.66222        16.500           1.719
 91  6 26 17 16  0.0000000  0  4G 2G11G16G19
  21081913.445    -3315236.971 7  -2532435.12023        26.000           2.906
  23186671.922    -6170271.472 6  -4807998.05221        14.500           0.656
  23695201.617     -993249.875 5   -750874.64421         9.250           0.438
  21554215.461     5637333.986 6   4391893.85622        17.750           1.813
 91  6 26 17 16 15.0000000  0  4G 2G11G16G19
  21077566.711    -3338089.287 7  -2550242.09823        26.500           2.938
  23189886.133    -6153383.765 6  -4794838.80721        14.500           0.594
  23699992.500     -968055.161 5   -731242.46221         9.250           0.375
  21559254.422     5663799.464 6   4412516.29622        16.750           1.750
 91  6 26 17 16 30.0000000  0  4G 2G11G16G19
  21073235.336    -3360853.388 7  -2567980.33823        27.000           2.781
  23193128.508    -6136345.190 6  -4781562.00921        14.500           0.563
  23704810.734     -942755.681 5   -711528.64521         9.750           0.438
  21564302.750     5690329.433 6   4433188.98922        16.750           1.719
 91  6 26 17 16 45.0000000  0  4G 2G11G16G19
  21068919.758    -3383530.221 7  -2585650.57723        27.000           2.750
  23196399.320    -6119156.850 6  -4768168.50021        14.250           0.563
  23709642.875     -917352.853 5   -691734.29921         9.500           0.344
  21569362.836     5716922.727 6   4453911.02222        16.000           1.688
 91  6 26 17 17  0.0000000  0  4G 2G11G16G19
  21064619.484    -3406123.437 7  -2603255.66123        25.750           2.656
  23199698.086    -6101822.546 6  -4754661.25721        14.500           0.563
  23714496.352     -891850.785 5   -671862.59821        10.000           0.313
  21574435.656     5743575.706 6   4474679.56522        16.250           1.656
 91  6 26 17 17 15.0000000  0  4G 2G11G16G19
  21060338.055    -3428627.858 7  -2620791.55223        25.750           2.969
  23203026.180    -6084337.456 6  -4741036.52921        14.750           0.500
  23719368.625     -866244.346 5   -651909.57221        10.000           0.406
  21579519.664     5770293.556 6   4495498.65122        16.000           1.750
 91  6 26 17 17 30.0000000  0  4G 2G11G16G19
  21056070.203    -3451048.003 7  -2638261.77023        26.250           2.875
  23206378.930    -6066706.099 6  -4727297.81021        14.500           0.656
  23724265.094     -840538.325 5   -631878.96421        10.500           0.375
  21584614.820     5797071.793 6   4516364.79622        16.000           1.625
 91  6 26 17 17 45.0000000  0  4G 2G11G16G19
  21051821.945    -3473380.023 7  -2655663.31823        26.250           2.938
  23209764.578    -6048925.027 6  -4713442.43921        14.500           0.594
  23729171.797     -814729.251 5   -611768.04621         9.750           0.406
  21589723.164     5823913.987 6   4537280.77722        15.750           1.594
 91  6 26 17 18  0.0000000  0  4G 2G11G16G19
  21047586.734    -3495626.432 7  -2672998.16223        26.250           2.969
  23213175.508    -6030996.770 6  -4699472.38321        15.250           0.594
  23734103.047     -788820.061 5   -591579.13521         9.500           0.438
  21594845.055     5850817.822 6   4558244.78422        15.500           1.563
 91  6 26 17 18 15.0000000  0  4G 2G11G16G19
  21043369.219    -3517792.970 7  -2690270.77223        26.250           2.938
  23216615.680    -6012927.233 6  -4685392.24421        15.250           0.531
  23739052.031     -762817.162 5   -571317.21821         9.750           0.344
  21599973.656     5877777.565 6   4579252.35322        15.750           1.563
 91  6 26 17 18 30.0000000  0  4G 2G11G16G19
  21039168.320    -3539872.645 7  -2707475.68423        25.750           3.000
  23220080.727    -5994709.501 6  -4671196.61321        15.000           0.594
  23744016.570     -736713.663 5   -550976.88821         9.500           0.469
  21605113.398     5904800.207 6   4600308.94022        16.500           1.594
 91  6 26 17 18 45.0000000  0  4G 2G11G16G19
  21034983.789    -3561867.376 7  -2724614.41123        26.000           2.938
  23223577.047    -5976345.844 6  -4656887.28921        15.250           0.500
  23749005.406     -710511.983 5   -530560.07221         9.750           0.469
  21610269.945     5931883.582 6   4621412.85022        16.000           1.594
 91  6 26 17 19  0.0000000  0  4G 2G11G16G19
  21030814.719    -3583775.701 7  -2741685.81423        26.750           2.781
  23227100.477    -5957835.018 6  -4642463.26321        15.250           0.594
  23754011.633     -684210.906 5   -510065.80521        10.250           0.469
  21615437.688     5959029.145 6   4642565.22222        15.250           1.563
 91  6 26 17 19 15.0000000  0  4G 2G11G16G19
  21026660.234    -3605601.834 7  -2758693.17623        27.250           2.781
  23230650.586    -5939181.416 6  -4627928.00021        15.250           0.563
  23759035.484     -657814.719 5   -489497.40521         9.500           0.531
  21620612.805     5986232.739 6   4663762.80922        16.000           1.719
 91  6 26 17 19 30.0000000  0  4G 2G11G16G19
  21022523.219    -3627340.976 7  -2775632.75823        26.750           2.813
  23234227.156    -5920380.597 6  -4613278.02521        16.000           0.594
  23764073.773     -631319.031 5   -468851.45721         9.500           0.438
  21625799.023     6013498.888 6   4685009.14122        16.750           1.656
 91  6 26 17 19 45.0000000  0  4G 2G11G16G19
  21018402.094    -3648996.160 7  -2792506.90923        26.250           2.938
  23237832.617    -5901435.519 6  -4598515.63821        15.750           0.563
  23769135.008     -604727.279 5   -448130.67321         9.500           0.344
  21631001.219     6040824.650 6   4706301.92822        16.000           1.563
 91  6 26 17 20  0.0000000  0  4G 2G11G16G19
  21014297.586    -3670566.921 7  -2809315.27123        25.750           3.000
  23241463.836    -5882345.920 6  -4583640.63121        16.000           0.531
  23774213.688     -578039.472 5   -427335.02721         9.500           0.375
  21636210.594     6068210.589 6   4727641.60522        17.000           1.688
 91  6 26 17 20 15.0000000  0  4G 2G11G16G19
  21010210.031    -3692047.369 7  -2826053.25523        26.500           2.906
  23245126.438    -5863106.124 6  -4568648.58921        16.000           0.563
  23779311.422     -551250.173 5   -406460.31021         9.500           0.438
  21641435.094     6095662.627 6   4749032.78522        15.750           1.563
 91  6 26 17 20 30.0000000  0  4G 2G11G16G19
  21006139.156    -3713443.116 7  -2842725.24523        27.250           2.969
  23248814.609    -5843722.117 6  -4553544.18621        15.500           0.594
  23784425.805     -524365.313 5   -385511.12521         9.250           0.469
  21646672.195     6123175.048 6   4770471.01722        15.250           1.563
 91  6 26 17 20 45.0000000  0  4G 2G11G16G19
  21002083.891    -3734753.297 7  -2859330.56723        27.750           3.063
  23252530.484    -5824193.077 6  -4538326.78021        16.000           0.688
  23789561.375     -497384.237 5   -364486.97921         9.250           0.375
  21651917.258     6150748.642 6   4791956.91822        14.750           1.563
 91  6 26 17 21  0.0000000  0  4G 2G11G16G19
  20998044.109    -3755978.271 7  -2875869.49223        27.000           2.875
  23256274.602    -5804519.674 6  -4522996.86421        15.750           0.594
  23794713.227     -470307.519 5   -343388.27121         9.250           0.281
  21657175.383     6178382.869 6   4813490.07021        15.750           1.469
 91  6 26 17 21 15.0000000  0  4G 2G11G16G19
  20994021.266    -3777117.243 7  -2892341.39123        25.750           2.813
  23260045.203    -5784701.381 6  -4507554.05821        15.500           0.438
  23799885.047     -443134.880 5   -322214.85121         9.500           0.344
  21662447.148     6206078.573 6   4835071.12121        14.750           1.469
 91  6 26 17 21 30.0000000  0  4G 2G11G16G19
  20990016.070    -3798168.149 7  -2908744.67223        26.250           2.938
  23263843.797    -5764736.210 6  -4491996.79321        15.250           0.469
  23805074.211     -415864.341 5   -300965.15321         9.500           0.313
  21667730.664     6233837.815 6   4856701.68921        14.750           1.469
 91  6 26 17 21 45.0000000  0  4G 2G11G16G19
  20986027.266    -3819128.892 7  -2925077.68723        27.250           2.750
  23267673.844    -5744622.131 6  -4476323.50421        15.500           0.563
  23810284.758     -388494.279 5   -279637.87921         9.500           0.438
  21673024.484     6261662.799 6   4878383.47021        15.000           1.438
 91  6 26 17 22  0.0000000  0  4G 2G11G16G19
  20982056.242    -3840003.647 8  -2941343.72023        28.000           2.875
  23271526.703    -5724363.567 6  -4460537.62921        15.000           0.594
  23815511.195     -361029.202 5   -258236.59021         9.750           0.469
  21678327.844     6289549.177 6   4900113.09321        15.000           1.438
 91  6 26 17 22 15.0000000  0  4G 2G11G16G19
  20978098.906    -3860794.042 7  -2957544.01123        27.500           2.844
  23275407.398    -5703962.118 6  -4444640.40121        14.500           0.563
  23820754.672     -333470.844 5   -236762.61921        10.000           0.281
  21683650.063     6317495.504 6   4921889.44522        14.750           1.500
 91  6 26 17 22 30.0000000  0  4G 2G11G16G19
  20974157.141    -3881500.588 7  -2973678.96923        27.000           2.844
  23279317.430    -5683418.838 6  -4428632.68021        14.500           0.625
  23826016.875     -305820.457 5   -215216.92421         9.750           0.313
  21688976.852     6345500.893 6   4943711.80921        15.000           1.469
 91  6 26 17 22 45.0000000  0  4G 2G11G16G19
  20970234.586    -3902122.760 7  -2989748.17123        27.000           2.844
  23283253.484    -5662733.405 6  -4412514.17121        13.750           0.594
  23831296.859     -278077.908 5   -193599.39921         9.500           0.406
  21694317.172     6373565.962 6   4965580.68022        14.500           1.500
 91  6 26 17 23  0.0000000  0  4G 2G11G16G19
  20966325.758    -3922657.838 7  -3005749.50823        26.500           3.000
  23287217.352    -5641903.341 6  -4396282.96721        13.500           0.438
  23836593.742     -250240.532 5   -171908.00021         9.750           0.250
  21699669.500     6401693.446 6   4987498.18622        15.250           1.625
 91  6 26 17 23 15.0000000  0  4G 2G11G16G19
  20962434.305    -3943108.148 7  -3021684.79023        26.750           2.844
  23291207.031    -5620930.886 6  -4379940.80421        13.500           0.531
  23841906.531     -222310.855 5   -150144.69021         9.500           0.250
  21705034.383     6429881.171 6   5009462.62822        14.750           1.594
 91  6 26 17 23 30.0000000  0  4G 2G11G16G19
  20958559.039    -3963472.141 7  -3037552.81923        27.000           2.906
  23295225.000    -5599814.975 6  -4363486.86421        13.000           0.594
  23847239.359     -194288.138 5   -128308.85821         9.250           0.375
  21710408.891     6458130.258 6   5031474.89622        15.500           1.594
 91  6 26 17 23 45.0000000  0  4G 2G11G16G19
  20954700.523    -3983752.110 7  -3053355.38123        27.250           2.781
  23299268.805    -5578558.067 6  -4346923.06421        12.750           0.500
  23852589.320     -166174.738 5   -106402.37721         8.750           0.281
  21715797.094     6486438.527 6   5053533.27021        15.000           1.469
 91  6 26 17 24  0.0000000  0  4G 2G11G16G19
  20950856.359    -4003944.738 7  -3069089.88223        26.000           2.719
  23303342.281    -5557157.011 6  -4330246.92621        12.750           0.531
  23857956.203     -137967.914 5    -84423.12321         8.500           0.344
  21721194.586     6514809.263 6   5075640.32221        16.000           1.438
 91  6 26 17 24 15.0000000  0  4G 2G11G16G19
  20947033.414    -4024044.422 7  -3084751.95923        26.000           2.719
  23307443.086    -5535606.441 6  -4313454.29321        12.750           0.625
  23863345.117     -109662.174 5    -62366.75021         9.000           0.375
  21726606.555     6543248.036 6   5097800.38321        15.500           1.438
 91  6 26 17 24 30.0000000  0  4G 2G11G16G19
  20943223.039    -4044061.137 7  -3100349.38223        26.000           2.750
  23311572.094    -5513916.584 6  -4296553.12421        13.000           0.531
  23868747.633      -81268.135 5                         9.500
  21732029.414     6571744.854 6                        15.750
 91  6 26 17 24 45.0000000  0  4G 2G11G16G19
  20939431.867    -4063989.752 7  -3115878.15823        26.750           2.969
  23315725.578    -5492082.408 6  -4279539.50321        12.500           0.500
  23874168.195      -52780.617 5                        10.000
  21737463.977     6600304.899 6                        14.750
 91  6 26 17 25  0.0000000  0  4G 2G11G16G19
  20935653.844    -4083836.818 7  -3131343.39023        27.250           2.938
  23319908.492    -5470110.540 6  -4262418.58421        12.250           0.500
  23879607.531      -24206.407 5                        10.250
  21742909.766     6628921.672 6                        15.250
 91  6 26 17 25 15.0000000  0  4G 2G11G16G19
  20931893.984    -4103599.335 7  -3146742.73923        27.500           2.875
  23324116.133    -5447998.459 6  -4245188.42821        12.250           0.500
  23885062.516        4456.834 5                        11.250
  21748367.500     6657598.085 6                        15.000
 91  6 26 17 25 30.0000000  0  4G 2G11G16G19
  20928151.703    -4123272.327 7  -3162072.32523        27.250           2.813
  23328351.727    -5425741.403 6  -4227845.26421        12.500           0.438
  23890535.188       33213.762 5                        11.000
  21753836.938     6686338.993 6   5209299.72622        15.250           1.531
 91  6 26 17 25 45.0000000  0  4G 2G11G16G19
  20924423.570    -4142860.468 7  -3177335.78723        27.250           2.813
  23332613.281    -5403344.248 6  -4210392.96021        12.000           0.531
  23896024.195       62059.137 5                        10.750
  21759317.664     6715139.657 6                        15.000
 91  6 26 17 26  0.0000000  0  4G 2G11G16G19
  20920711.180    -4162361.468 7  -3192531.35423        27.500           2.750
  23336903.500    -5380804.820 6  -4192829.80021        12.000           0.469
  23901529.984       90995.092 5                        10.750
  21764808.289     6744002.507 6                        15.250
 91  6 26 17 26 15.0000000  0  4G 2G11G16G19
  20917017.828    -4181778.783 7  -3207661.72023        27.750           2.688
  23341219.867    -5358126.767 6  -4175158.60921        12.750           0.438
  23907051.633      120018.075 5        -0.18831        10.250           0.219
  21770314.109     6772924.046 6   5276768.53722        15.250           1.500
 91  6 26 17 26 30.0000000  0  4G 2G11G16G19
  20913338.961    -4201110.329 7  -3222725.25323        27.250           2.688
  23345562.813    -5335308.385 6  -4157378.06021        13.000           0.344
  23912592.000      149129.765 5     22684.14521        10.250           0.313
  21775827.211     6801906.416 6   5299352.18422        15.750           1.688
 91  6 26 17 26 45.0000000  0  4G 2G11G16G19
  20909676.852    -4220355.893 7  -3237721.78323        26.750           2.688
  23349930.227    -5312349.710 6  -4139488.19221        12.500           0.250
  23918145.609      178329.963 5     45437.48421        10.500           0.406
  21781356.461     6830949.548 6   5321983.17121        15.250           1.469
 91  6 26 17 27  0.0000000  0  4G 2G11G16G19
  20906029.031    -4239518.033 7  -3252653.30023        27.000           2.781
  23354326.242    -5289253.445 6  -4121491.14421        13.250           0.375
  23923721.531      207615.677 5     68257.46121        10.750           0.375
  21786891.156     6860050.916 6   5344659.53421        15.500           1.469
 91  6 26 17 27 15.0000000  0  4G 2G11G16G19
  20902399.352    -4258595.561 7  -3267518.89123        27.250           2.844
  23358748.250    -5266018.607 6  -4103386.08621        14.250           0.406
  23929305.641      236987.739 5     91144.67421        10.000           0.375
  21792444.000     6889211.751 6   5367382.24222        15.000           1.500
 91  6 26 17 27 30.0000000  0  4G 2G11G16G19
  20898786.219    -4277583.191 7  -3282314.42523        27.750           2.813
  23363195.445    -5242640.192 6  -4085169.15721        13.500           0.344
  23934918.461      266451.024 5    114103.01821         9.750           0.406
  21798002.711     6918437.306 6   5390155.38321        14.750           1.438
 91  6 26 17 27 45.0000000  0  4G 2G11G16G19
  20895190.328    -4296484.625 8  -3297042.80023        28.000           2.969
  23367671.570    -5219121.980 6  -4066843.30121        13.500           0.344
  23940538.531      296001.794 5    137129.51421         9.000           0.438
  21803577.063     6947723.763 6   5412975.98421        14.500           1.375
 91  6 26 17 28  0.0000000  0  4G 2G11G16G19
  20891609.461    -4315298.280 7  -3311702.77323        26.750           2.906
  23372174.805    -5195462.729 6  -4048407.54521        14.750           0.375
  23946179.883      325641.199 5    160225.07921         8.750           0.344
  21809163.883     6977072.720 6   5435845.27821        14.750           1.438
 91  6 26 17 28 15.0000000  0  4G 2G11G16G19
  20888045.586    -4334026.000 7  -3326295.78023        26.500           2.906
  23376702.594    -5171664.617 6  -4029863.57721        15.000           0.344
  23951837.164      355366.675 5    183387.69721         8.250           0.406
  21814760.523     7006482.259 6   5458761.78021        15.500           1.438
 91  6 26 17 28 30.0000000  0  4G 2G11G16G19
  20884497.164    -4352668.054 7  -3340822.04023        26.500           2.688
  23381258.398    -5147728.066 6  -4011211.72921        14.500           0.219
  23957508.508      385177.664 5    206616.97721         8.000           0.344
  21820365.641     7035952.076 6   5481725.25421        17.000           1.438
 91  6 26 17 28 45.0000000  0  4G 2G11G16G19
  20880966.953    -4371225.159 7  -3355282.10123        26.750           2.563
  23385838.148    -5123653.791 6  -3992452.58521        14.500           0.375
  23963192.867      415073.445 4    229912.26821         6.750           0.250
  21825987.883     7065481.639 6   5504735.27822        15.750           1.531
 91  6 26 17 29  0.0000000  0  4G 2G11G16G19
  20877452.047    -4389695.627 7  -3369674.66423        26.750           2.531
  23390446.156    -5099440.462 6  -3973585.07121        15.000           0.406
  23968899.453      445054.983 4    253274.47621         7.250           0.250
  21831617.891     7095072.351 6   5527792.96221        15.750           1.438
 91  6 26 17 29 15.0000000  0  4G 2G11G16G19
  20873951.672    -4408082.659 7  -3384002.20723        26.500           2.656
  23395078.359    -5075091.494 6  -3954611.88321        15.250           0.500
  23974624.914      475119.024 5    276700.95921         8.000           0.250
  21837260.695     7124721.167 6   5550895.90921        16.000           1.438
 91  6 26 17 29 30.0000000  0  4G 2G11G16G19
  20870469.961    -4426384.954 7  -3398263.72323        26.750           2.719
  23399739.563    -5050605.847 6  -3935532.18421        15.250           0.375
  23980360.984      505266.474 5    300192.37021         8.750           0.281
  21842913.891     7154429.379 6   5574045.14321        16.000           1.375
 91  6 26 17 29 45.0000000  0  4G 2G11G16G19
  20867002.703    -4444597.901 7  -3412455.61023        26.250           2.750
  23404424.602    -5025979.282 6  -3916342.68021        15.250           0.375
  23986116.242      535501.535 5    323752.11821         9.000           0.281
  21848578.328     7184201.467 6   5597244.15021        15.500           1.344
 91  6 26 17 30  0.0000000  0  4G 2G11G16G19
  20863556.297    -4462719.900 7  -3426576.63023        26.750           2.875
  23409137.289    -5001210.234 6  -3897042.14421        15.500           0.250
  23991891.063      565825.622 5    347381.19421        10.000           0.156
  21854257.875     7214039.176 6   5620494.29621        15.250           1.344
 91  6 26 17 30 15.0000000  0  4G 2G11G16G19
  20860125.148    -4480752.664 7  -3440628.11723        27.000           2.750
  23413876.438    -4976300.711 6  -3877632.14221        15.500           0.344
  23997673.828      596236.594 5    371077.98421         9.500           0.250
  21859947.617     7243940.695 6   5643794.16121        15.000           1.281
 91  6 26 17 30 30.0000000  0  4G 2G11G16G19
  20856707.930    -4498703.305 7  -3454615.61723        27.250           2.813
  23418643.438    -4951258.191 6  -3858118.51521        15.750           0.375
  24003474.680      626726.726 5    394836.47721         9.250           0.281
  21865648.078     7273898.859 6   5667138.16121        14.750           1.344
 91  6 26 17 30 45.0000000  0  4G 2G11G16G19
  20853307.875    -4516570.572 7  -3468538.14523        27.000           2.719
  23423434.219    -4926081.425 6  -3838500.28721        16.250           0.438
  24009296.133      657297.160 5    418657.50821         9.750           0.313
  21871358.867     7303914.976 6   5690527.32121        15.500           1.313
 91  6 26 17 31  0.0000000  0  4G 2G11G16G19
  20849926.094    -4534349.343 7  -3482391.72323        27.000           2.594
  23428251.820    -4900765.540 6  -3818773.65421        16.500           0.438
  24015123.055      687952.653 5    442544.83121         8.750           0.188
  21877079.359     7333994.032 6   5713965.52821        15.750           1.313
 91  6 26 17 31 15.0000000  0  4G 2G11G16G19
  20846557.531    -4552045.809 7  -3496181.16423        26.500           2.594
  23433093.234    -4875317.107 6  -3798943.71021        16.250           0.469
  24020976.516      718686.723 5    466493.36921         8.500           0.219
  21882816.547     7364129.655 6   5737447.81321        15.500           1.406
 91  6 26 17 31 30.0000000  0  4G 2G11G16G19
  20843207.336    -4569652.907 7  -3509900.97023        27.000           2.594
  23437962.195    -4849729.283 6  -3779005.18221        15.750           0.531
  24026839.953      749506.168 5    490508.45421         8.250           0.281
  21888568.086     7394329.081 6   5760979.81421        15.000           1.375
 91  6 26 17 31 45.0000000  0  4G 2G11G16G19
  20839873.781    -4587172.243 7  -3523552.39123        27.250           2.625
  23442859.508    -4824004.077 6  -3758959.59121        16.500           0.625
  24032717.453      780408.765 5    514588.32821         8.000           0.250
  21894323.266     7424590.455 6   5784560.08621        15.250           1.438
 91  6 26 17 32  0.0000000  0  4G 2G11G16G19
  20836555.758    -4604603.365 7  -3537135.07623        26.750           2.781
  23447781.492    -4798140.928 6  -3738806.51921        16.500           0.594
  24038617.758      811394.765 5    538733.17921         7.750           0.219
  21900091.547     7454914.615 6   5808189.28421        15.750           1.375
 91  6 26 17 32 15.0000000  0  4G 2G11G16G19
  20833254.578    -4621951.850 7  -3550653.36023        26.250           2.906
  23452728.461    -4772145.810 6  -3718550.60321        16.250           0.688
  24044526.563      842458.115 5    562938.30621         7.750           0.313
  21905875.008     7485295.792 6   5831862.91021        15.250           1.406
 91  6 26 17 32 30.0000000  0  4G 2G11G16G19
  20829969.844    -4639215.586 7  -3564105.60723        26.500           2.844
  23457700.344    -4746016.704 6  -3698190.29521        16.250           0.531
  24050454.102      873600.872 5    587205.33421         7.750           0.125
  21911666.516     7515736.042 6   5855582.56821        16.000           1.313
 91  6 26 17 32 45.0000000  0  4G 2G11G16G19
  20826701.727    -4656389.241 7  -3577487.65623        26.250           2.844
  23462700.156    -4719748.668 6  -3677721.72021        16.750           0.594
  24056395.555      904827.898 5    611537.98821         8.000           0.281
  21917473.930     7546240.568 6   5879352.31121        15.500           1.344
 91  6 26 17 33  0.0000000  0  4G 2G11G16G19
  20823449.008    -4673473.261 7  -3590799.86423        25.750           2.844
  23467724.047    -4693342.456 6  -3657145.47221        16.250           0.813
  24062355.852      936138.344 5    635935.65921         7.750           0.250
  21923288.648     7576808.980 6   5903171.83521        15.500           1.281
 91  6 26 17 33 15.0000000  0  4G 2G11G16G19
  20820216.859    -4690467.201 7  -3604041.88523        25.750           2.719
  23472774.281    -4666797.756 6  -3636461.31521        16.000           0.781
  24068326.078      967532.421 4    660398.49721         7.250           0.344
  21929118.258     7607441.803 6   5927041.54721        15.500           1.406
 91  6 26 17 33 30.0000000  0  4G 2G11G16G19
  20816998.195    -4707377.015 7  -3617218.35023        26.000           2.656
  23477850.898    -4640120.647 6  -3615673.99421        16.000           0.750
  24074314.109      999003.517 4    684921.35221         7.000           0.469
  21934958.383     7638133.101 6   5950956.82222        15.750           1.531
 91  6 26 17 33 45.0000000  0  4G 2G11G16G19
  20813797.141    -4724201.925 7  -3630328.65523        26.500           2.688
  23482953.984    -4613310.708 6  -3594783.14921        16.250           0.563
  24080321.172     1030552.233 5    709504.69021         7.750           0.375
  21940810.688     7668883.440 6   5974918.10121        15.000           1.438
 91  6 26 17 34  0.0000000  0  4G 2G11G16G19
  20810611.844    -4740939.911 7  -3643371.22723        25.500           2.688
  23488080.375    -4586366.119 6  -3573787.39321        16.250           0.750
  24086339.727     1062180.485 4    734149.99421         7.250           0.375
  21946675.609     7699695.040 6   5998927.12821        14.000           1.469
 91  6 26 17 34 15.0000000  0  4G 2G11G16G19
  20807443.070    -4757593.860 7  -3656348.31223        25.750           2.813
  23493234.477    -4559290.037 6  -3552689.17521        16.000           0.813
  24092373.086     1093884.820 4    758854.59321         7.250           0.406
  21952548.211     7730565.007 6   6022981.62921        14.500           1.469
 91  6 26 17 34 30.0000000  0  4G 2G11G16G19
  20804289.352    -4774162.210 7  -3669258.70423        26.000           2.844
  23498409.867    -4532081.234 6  -3531487.52921        15.500           0.750
  24098423.930     1125666.279 4    783619.26621         7.250           0.438
  21958432.328     7761494.784 6   6047082.73621        14.750           1.406
 91  6 26 17 34 45.0000000  0  4G 2G11G16G19
  20801154.813    -4790646.362 7  -3682103.48523        26.250           2.844
  23503614.117    -4504741.154 6  -3510183.60121        15.750           0.781
  24104481.203     1157523.377 4    808442.87921         7.000           0.469
  21964330.852     7792482.919 6   6071229.32321        14.750           1.375
 91  6 26 17 35  0.0000000  0  4G 2G11G16G19
  20798032.750    -4807045.991 7  -3694882.39623        25.500           2.969
  23508841.680    -4477269.790 6  -3488777.36921        15.250           0.781
  24110559.039     1189455.890 5    833325.25621         7.750           0.313
  21970236.992     7823529.742 6   6095421.63221        15.250           1.375
 91  6 26 17 35 15.0000000  0  4G 2G11G16G19
  20794927.461    -4823361.914 7  -3707596.09123        25.250           2.875
  23514092.477    -4449668.312 6  -3467269.74521        15.250           0.625
  24116652.367     1221462.600 5    858265.46821         8.000           0.375
  21976158.508     7854634.241 6   6119658.88521        14.750           1.250
 91  6 26 17 35 30.0000000  0  4G 2G11G16G19
  20791838.070    -4839591.305 7  -3720242.36023        26.000           2.969
  23519369.625    -4421934.188 6  -3445658.75621        15.250           0.688
  24122755.008     1253546.073 5    883265.49021         8.000           0.344
  21982088.836     7885799.316 6   6143943.33321        15.500           1.188
 91  6 26 17 35 45.0000000  0  4G 2G11G16G19
  20788767.625    -4855735.339 7  -3732822.11823        26.750           2.938
  23524673.266    -4394068.762 6  -3423945.45721        14.750           0.594
  24128874.422     1285704.927 5    908324.26221         7.750           0.375
  21988029.344     7917023.831 6   6168274.09721        15.000           1.281
 91  6 26 17 36  0.0000000  0  4G 2G11G16G19
  20785711.508    -4871790.023 7  -3745332.24123        26.500           2.813
  23530002.070    -4366068.310 6  -3402126.93821        14.250           0.688
  24135008.219     1317942.770 5    933444.56221         8.250           0.344
  21993983.133     7948311.843 6   6192654.35321        15.500           1.250
 91  6 26 17 36 15.0000000  0  4G 2G11G16G19
  20782671.469    -4887763.568 7  -3757779.14623        26.000           2.688
  23535355.531    -4337941.289 6  -3380209.81221        15.000           0.656
  24141155.352     1350251.249 5    958619.95021         8.000           0.344
  21999947.047     7979655.116 6   6217077.66821        14.750           1.313
 91  6 26 17 36 30.0000000  0  4G 2G11G16G19
  20779648.523    -4903652.456 7  -3770160.08823        26.750           2.563
  23540732.063    -4309684.424 6  -3358191.49021        14.750           0.594
  24147321.164     1382633.396 5    983852.68621         8.250           0.313
  22005919.219     8011057.166 6   6241546.78321        15.500           1.281
 91  6 26 17 36 45.0000000  0  4G 2G11G16G19
  20776643.023    -4919453.281 7  -3782472.40823        27.250           2.906
  23546133.141    -4281294.775 6  -3336069.69821        14.250           0.688
  24153498.969     1415091.906 5   1009144.95021         8.250           0.406
  22011912.086     8042521.026 6   6266064.07021        15.000           1.281
 91  6 26 17 37  0.0000000  0  4G 2G11G16G19
  20773653.352    -4935163.270 7  -3794713.95523        26.750           2.844
  23551562.211    -4252769.748 6  -3313842.43521        13.750           0.625
  24159690.281     1447629.169 5   1034498.56721         8.250           0.313
  22017909.055     8074049.531 6   6290631.71821        15.750           1.438
 91  6 26 17 37 15.0000000  0  4G 2G11G16G19
  20770679.031    -4950788.325 7  -3806889.30823        26.000           3.031
  23557014.266    -4224115.261 6  -3291514.29621        13.500           0.500
  24165893.633     1480239.290 5   1059908.98421         8.750           0.313
  22023921.531     8105637.008 6   6315245.32821        15.750           1.344
 91  6 26 17 37 30.0000000  0  4G 2G11G16G19
  20767721.195    -4966326.356 7  -3818996.85123        25.500           2.906
  23562491.844    -4195329.586 6  -3269083.92621        13.750           0.563
  24172116.633     1512923.654 5   1085377.26021         9.250           0.375
  22029943.406     8137285.498 6   6339906.47521        16.750           1.281
 91  6 26 17 37 45.0000000  0  4G 2G11G16G19
  20764780.445    -4981780.151 7  -3831038.75223        25.000           2.969
  23567994.953    -4166415.760 6  -3246553.70021        14.250           0.563
  24178350.336     1545679.455 5   1110901.12421         9.250           0.344
  22035979.734     8168992.133 6   6364612.92721        16.000           1.281
 91  6 26 17 38  0.0000000  0  4G 2G11G16G19
  20761855.570    -4997152.103 7  -3843016.88223        25.250           2.844
  23573519.781    -4137376.277 6  -3223925.54021        13.750           0.531
  24184598.375     1578504.006 5   1136478.63321         9.000           0.250
  22042022.219     8200754.680 6   6389362.94421        15.750           1.313
 91  6 26 17 38 15.0000000  0  4G 2G11G16G19
  20758948.102    -5012438.221 7  -3854928.13123        26.250           2.688
  23579071.227    -4108207.586 6  -3201196.73121        13.500           0.594
  24190855.563     1611400.741 5   1162112.35921         9.500           0.375
  22048078.680     8232577.084 6   6414159.59721        14.750           1.188
 91  6 26 17 38 30.0000000  0  4G 2G11G16G19
  20756055.859    -5027638.108 7  -3866772.18723        26.750           2.719
  23584646.414    -4078909.496 6  -3178367.07521        14.000           0.594
  24197126.133     1644369.684 5   1187802.38021         8.750           0.281
  22054142.195     8264459.682 6   6439003.16921        14.250           1.313
 91  6 26 17 38 45.0000000  0  4G 2G11G16G19
  20753177.828    -5042755.758 7  -3878552.16723        26.250           2.750
  23590245.000    -4049486.148 6  -3155439.82021        13.750           0.563
  24203416.469     1677406.715 5   1213545.45021         8.250           0.188
  22060221.945     8296398.455 6   6463890.50721        14.000           1.219
 91  6 26 17 39  0.0000000  0  4G 2G11G16G19
  20750318.125    -5057786.768 7  -3890264.63323        26.250           2.906
  23595870.930    -4019933.509 6  -3132411.81021        13.750           0.438
  24209715.453     1710515.756 5   1239344.59521         7.750           0.313
  22066308.500     8328397.800 6   6488825.03721        15.000           1.375
 91  6 26 17 39 15.0000000  0  4G 2G11G16G19
  20747474.164    -5072730.042 7  -3901908.72523        25.500           2.750
  23601519.695    -3990250.726 6  -3109282.38421        13.750           0.469
  24216029.430     1743697.606 5   1265200.52621         7.750           0.219
  22072413.664     8360458.738 6   6513807.56721        15.000           1.125
 91  6 26 17 39 30.0000000  0  4G 2G11G16G19
  20744647.609    -5087586.077 7  -3913484.83523        25.250           2.750
  23607195.031    -3960438.595 6  -3086052.17321        14.500           0.500
  24222358.203     1776951.340 5   1291112.45221         7.750           0.250
  22078522.945     8392580.586 6   6538837.55321        16.000           1.313
 91  6 26 17 39 45.0000000  0  4G 2G11G16G19
  20741837.461    -5102355.684 7  -3924993.60023        26.000           2.813
  23612890.914    -3930498.132 6  -3062721.96721        14.000           0.438
  24228699.914     1810275.937 5   1317079.60421         7.500           0.250
  22084650.594     8424762.624 6   6563914.44621        15.500           1.188
 91  6 26 17 40  0.0000000  0  4G 2G11G16G19
  20739041.727    -5117039.189 7  -3936435.27723        26.500           2.781
  23618613.063    -3900429.858 6  -3039292.16621        14.000           0.375
  24235051.656     1843670.529 4   1343101.27221         6.750           0.125
  22090784.531     8457004.626 6   6589038.05921        15.750           1.219
 91  6 26 17 40 15.0000000  0  4G 2G11G16G19
  20736265.164    -5131639.354 7  -3947812.01723        27.000           2.781
  23624359.398    -3870236.802 6  -3015765.12221        14.000           0.469
  24241420.750     1877132.352 4   1369175.32021         6.500           0.281
  22096930.586     8489303.787 6   6614206.21721        14.500           1.188
 91  6 26 17 40 30.0000000  0  4G 2G11G16G19
  20733502.703    -5146154.915 7  -3959122.83523        27.250           2.781
  23630127.625    -3839918.277 6  -2992140.32621        14.250           0.438
  24247801.594     1910661.929 4   1395302.19021         6.750           0.250
  22103089.672     8521661.212 6   6639419.77821        14.250           1.250
 91  6 26 17 40 45.0000000  0  4G 2G11G16G19
  20730754.992    -5160589.161 7  -3970370.28423        26.750           2.813
  23635916.836    -3809477.561 6  -2968420.32921        14.000           0.406
  24254193.266     1944255.770 4   1421479.10621         7.000           0.188
  22109258.320     8554073.797 6   6664676.32121        14.750           1.188
 91  6 26 17 41  0.0000000  0  3G 2G11G19
  20728024.742    -5174937.962 7  -3981551.15723        26.000           2.844
  23641738.484    -3778910.787 6  -2944602.09021        13.750           0.438
  22115432.484     8586545.786 6   6689979.15321        16.250           1.219
 91  6 26 17 41 15.0000000  0  3G 2G11G19
  20725309.969    -5189196.812 7  -3992661.93123        25.250           2.688
  23647580.227    -3748213.676 6  -2920682.27521        13.500           0.344
  22121627.977     8619081.570 6   6715331.68721        15.250           1.063
 91  6 26 17 41 30.0000000  0  3G 2G11G19
  20722615.070    -5203371.757 7  -4003707.33023        25.500           2.844
  23653442.250    -3717392.731 6  -2896665.98821        13.000           0.250
  22127829.859     8651674.824 6   6740729.00021        15.750           1.063
 91  6 26 17 41 45.0000000  0  3G 2G11G19
  20719933.203    -5217460.416 7  -4014685.49923        25.750           2.813
  23659330.438    -3686445.832 6  -2872551.56621        12.750           0.375
  22134044.641     8684327.924 6   6766172.95121        16.000           0.938
 91  6 26 17 42  0.0000000  0  3G 2G11G19
  20717265.438    -5231464.787 7  -4025597.98723        25.750           2.969
  23665240.016    -3655375.098 5  -2848340.61921        10.750           0.406
  22140268.055     8717039.050 6   6791662.12121        16.000           1.031
 91  6 26 17 42 15.0000000  0  3G 2G11G19
  20714619.359    -5245381.555 7  -4036442.21023        26.000           2.906
  23671177.461    -3624177.558 5  -2824030.87821        11.250           0.375
  22146506.047     8749811.374 6   6817198.97221        15.750           1.094
 91  6 26 17 42 30.0000000  0  3G 2G11G19
  20711987.453    -5259209.436 7  -4047217.16923        26.000           2.813
  23677138.563    -3592852.051 5  -2799621.41221        11.000           0.375
  22152753.125     8782646.403 6   6842784.68921        15.250           1.156
 91  6 26 17 42 45.0000000  0  3G 2G11G19
  20709373.344    -5272952.948 7  -4057926.38823        26.500           2.781
  23683122.719    -3561403.385 5  -2775115.98621        10.250           0.438
  22159013.773     8815539.548 6   6868415.70021        15.250           1.063
 91  6 26 17 43  0.0000000  0  3G 2G11G19
  20706773.633    -5286608.395 7  -4068566.98323        27.000           2.750
  23689131.977    -3529828.272 5  -2750512.03021        10.500           0.313
  22165285.453     8848494.198 6   6894094.64121        14.750           1.031
 91  6 26 17 43 15.0000000  0  3G 2G11G19
  20704193.219    -5300177.042 7  -4079139.94623        27.500           2.781
  23695161.156    -3498128.184 5  -2725810.66921        10.000           0.344
  22171566.664     8881509.187 6   6919820.59021        15.250           1.125
 91  6 26 17 43 30.0000000  0  3G 2G11G19
  20701626.266    -5313664.043 7  -4089649.28023        27.500           2.844
  23701220.594    -3466308.593 5  -2701016.20721        10.000           0.500
  22177855.688     8914579.276 6   6945589.46921        16.000           1.156
 91  6 26 17 43 45.0000000  0  3G 2G11G19
  20699075.688    -5327067.497 8  -4100093.52023        28.000           2.781
  23707298.039    -3434367.782 5  -2676127.31021         9.750           0.375
  22184164.555     8947706.676 6   6971403.01721        14.750           1.094
 91  6 26 17 44  0.0000000  0  3G 2G11G19
  20696540.594    -5340383.987 8  -4110469.99523        28.250           2.813
  23713400.305    -3402302.501 5  -2651141.43221        10.250           0.406
  22190480.188     8980894.713 6   6997263.79921        14.000           1.094
 91  6 26 17 44 15.0000000  0  3G 2G11G19
  20694022.445    -5353618.646 8  -4120782.70223        28.000           2.719
  23719523.438    -3370118.270 5  -2626062.83121        10.500           0.406
  22196803.539     9014138.100 6   7023167.72021        14.250           1.063
 91  6 26 17 44 30.0000000  0  3G 2G11G19
  20691521.273    -5366762.752 7  -4131024.84623        27.250           2.750
  23725672.109    -3337806.718 5  -2600885.03221        10.750           0.313
  22203139.234     9047445.659 6   7049121.64721        14.500           1.094
 91  6 26 17 44 45.0000000  0  3G 2G11G19
  20689036.680    -5379821.598 7  -4141200.55923        27.250           2.563
  23731841.727    -3305373.409 5  -2575612.34821        10.500           0.469
  22209492.195     9080811.985 6   7075121.36421        13.750           1.000
 91  6 26 17 45  0.0000000  0  3G 2G11G19
  20686567.039    -5392797.408 7  -4151311.56623        27.000           2.594
  23738039.820    -3272820.648 5  -2550246.60921        10.250           0.438
  22215848.383     9114234.935 6   7101165.19221        14.750           1.125
 91  6 26 17 45 15.0000000  0  3G 2G11G19
  20684113.609    -5405688.883 7  -4161356.86023        27.250           2.594
  23744255.453    -3240147.705 5  -2524787.19821        10.500           0.531
  22222224.086     9147715.667 6   7127254.05021        14.250           1.188
 91  6 26 17 45 30.0000000  0  3G 2G11G19
  20681675.984    -5418495.446 7  -4171335.99223        27.250           2.500
  23750498.203    -3207354.173 5  -2499233.83721        10.500           0.469
  22228602.805     9181254.829 6   7153388.43921        14.000           1.125
 91  6 26 17 45 45.0000000  0  3G 2G11G19
  20679256.500    -5431213.440 7  -4181246.10623        26.500           2.531
  23756763.438    -3174436.467 5  -2473583.70821        11.500           0.406
  22234999.727     9214856.161 6   7179571.27721        14.000           1.281
 91  6 26 17 46  0.0000000  0  3G 2G11G19
  20676852.648    -5443845.633 7  -4191089.35823        26.250           2.500
  23763049.570    -3141397.702 5  -2447839.24921        11.500           0.406
  22241404.930     9248516.879 6   7205800.38221        14.750           1.188
 91  6 26 17 46 15.0000000  0  3G 2G11G19
  20674464.563    -5456395.182 7  -4200868.21022        26.500           2.375
  23769359.875    -3108241.342 5  -2422003.15521        11.500           0.625
  22247821.828     9282233.617 6   7232073.14421        14.250           1.250
 91  6 26 17 46 30.0000000  0  3G 2G11G19
  20672094.539    -5468853.610 7  -4210576.06822        26.750           2.469
  23775690.797    -3074959.284 5  -2396069.11521        11.750           0.469
  22254251.258     9316014.960 6   7258396.24121        13.750           1.188
 91  6 26 17 46 45.0000000  0  3G 2G11G19
  20669739.914    -5481225.645 7  -4220216.60622        27.250           2.469
  23782048.422    -3041556.403 6  -2370040.92721        12.000           0.531
  22260691.203     9349856.196 6   7284766.01421        14.500           1.219
 91  6 26 17 47  0.0000000  0  3G 2G11G19
  20667401.922    -5493509.437 8  -4229788.38523        28.000           2.625
  23788427.766    -3008031.120 5  -2343917.36521        11.750           0.406
  22267139.578     9383759.084 6   7311183.81921        14.750           1.219
 91  6 26 17 47 15.0000000  0  3G 2G11G19
  20665079.828    -5505711.651 8  -4239296.59423        28.000           2.594
  23794831.688    -2974390.502 6  -2317703.92621        12.500           0.438
  22273603.711     9417716.945 6   7337644.46121        14.750           1.188
 91  6 26 17 47 30.0000000  0  3G 2G11G19
  20662775.641    -5517826.842 7  -4248736.99023        27.750           2.563
  23801255.352    -2940629.410 6  -2291396.59921        13.250           0.469
  22280077.641     9451735.231 6   7364152.19021        15.250           1.188
 91  6 26 17 47 45.0000000  0  3G 2G11G19
  20660486.477    -5529854.720 7  -4258109.34722        27.250           2.469
  23807704.617    -2906747.598 6  -2264995.22221        13.500           0.531
  22286563.703     9485814.373 6   7390707.33121        14.750           1.219
 91  6 26 17 48  0.0000000  0  3G 2G11G19
  20658212.852    -5541801.371 7  -4267418.41623        27.000           2.563
  23814171.898    -2872751.486 6  -2238504.76821        13.250           0.375
  22293057.156     9519948.140 6   7417305.04421        15.250           1.313
 91  6 26 17 48 15.0000000  0  3G 2G11G19
  20655955.641    -5553662.745 7  -4276661.03122        27.500           2.438
  23820664.539    -2838637.404 6                        13.750
  22299564.539     9554140.453 6                        14.250
 91  6 26 17 48 30.0000000  0  3G 2G11G19
  20653713.977    -5565441.597 8  -4285839.34623        28.250           2.500
  23827180.781    -2804408.411 6                        13.250
  22306080.813     9588388.652 6                        14.500
 91  6 26 17 48 45.0000000  0  3G 2G11G19
  20651488.234    -5577138.697 8  -4294953.96022        28.750           2.469
  23833714.398    -2770065.525 6                        13.000
  22312610.227     9622691.991 6                        14.500
 91  6 26 17 49  0.0000000  0  3G 2G11G19
  20649279.000    -5588746.781 8  -4303999.21123        29.250           2.563
  23840272.523    -2735601.916 6  -2131635.09321        13.000           0.406
  22319146.914     9657057.624 6   7524143.49521        15.000           1.219
 91  6 26 17 49 15.0000000  0  3G 2G11G19
  20647088.438    -5600265.615 8  -4312974.91823        28.250           2.500
  23846855.336    -2701017.640 6  -2104686.33321        13.000           0.344
  22325700.883     9691485.654 6   7550970.50321        14.750           1.250
 91  6 26 17 49 30.0000000  0  3G 2G11G19
  20644911.359    -5611698.214 7  -4321883.42923        26.750           2.563
  23853455.828    -2666315.789 6  -2077645.95621        12.500           0.313
  22332262.727     9725973.225 6   7577843.90221        15.500           1.250
 91  6 26 17 49 45.0000000  0  3G 2G11G19
  20642751.320    -5623044.329 7  -4330724.54223        26.750           2.594
  23860085.703    -2631496.230 6  -2050513.85421        12.500           0.344
  22338835.383     9760520.678 6   7604763.95821        15.000           1.344
 91  6 26 17 50  0.0000000  0  3G 2G11G19
  20640608.773    -5634301.717 7  -4339496.51523        26.750           2.594
  23866732.328    -2596557.118 5  -2023288.60421        11.750           0.313
  22345421.219     9795130.315 6   7631732.47221        15.250           1.344
 91  6 26 17 50 15.0000000  0  3G 2G11G19
  20638484.945    -5645471.156 8  -4348199.96123        28.250           2.500
  23873401.133    -2561499.515 5  -1995971.03521        11.000           0.281
  22352020.531     9829801.277 6   7658748.77521        14.000           1.406
 91  6 26 17 50 30.0000000  0  3G 2G11G19
  20636374.945    -5656559.559 8  -4356840.26623        28.500           2.563
  23880092.453    -2526330.747 5  -1968566.82221        10.250           0.344
  22358628.578     9864526.587 6   7685807.44221        14.250           1.375
 91  6 26 17 50 45.0000000  0  3G 2G11G19
  20634280.133    -5667563.871 8  -4365415.04323        28.000           2.500
  23886808.398    -2491047.982 5  -1941073.79421         9.750           0.313
  22365249.641     9899309.382 6   7712910.89521        14.500           1.406
 91  6 26 17 51  0.0000000  0  3G 2G11G19
  20632202.102    -5678483.660 7  -4373923.95622        27.250           2.438
  23893541.695    -2455651.084 5  -1913491.84921         9.500           0.250
  22371874.555     9934150.102 6   7740059.48421        15.000           1.281
 91  6 26 17 51 15.0000000  0  3G 2G11G19
  20630140.445    -5689319.061 7  -4382367.11122        27.000           2.313
  23900299.266    -2420140.502 5  -1885821.28921         9.000           0.313
  22378518.148     9969048.389 6   7767252.92521        14.750           1.250
 91  6 26 17 51 30.0000000  0  3G 2G11G19
  20628095.500    -5700067.992 7  -4390742.88922        27.000           2.406
  23907076.367    -2384514.380 5  -1858060.68921         8.750           0.281
  22385169.734    10004006.446 6   7794492.93821        15.250           1.188
 91  6 26 17 51 45.0000000  0  3G 2G11G19
  20626064.563    -5710734.686 7  -4399054.58922        27.500           2.438
  23913875.320    -2348777.251 5  -1830213.58621         8.250           0.219
  22391834.156    10039019.890 6   7821776.10521        15.000           1.250
 91  6 26 17 52  0.0000000  0  3G 2G11G19
  20624050.727    -5721321.696 8  -4407304.19923        28.250           2.531
  23920700.508    -2312931.823 5  -1802282.10021         8.500           0.250
  22398503.320    10074086.302 6   7849100.55221        14.750           1.313
 91  6 26 17 52 15.0000000  0  3G 2G11G19
  20622050.977    -5731824.791 8  -4415488.42122        28.500           2.406
  23927543.586    -2276974.278 5  -1774263.26321         9.000           0.313
  22405191.617    10109209.898 6   7876469.56221        14.750           1.313
 91  6 26 17 52 30.0000000  0  3G 2G11G19
  20620070.023    -5742240.549 8  -4423604.58322        28.750           2.375
  23934407.719    -2240901.497 5  -1746154.64121         8.750           0.281
  22411884.570    10144393.874 6   7903885.62021        15.000           1.188
 91  6 26 17 52 45.0000000  0  3G 2G11G19
  20618103.055    -5752578.070 8  -4431659.78523        28.750           2.500
  23941292.367    -2204722.868 5  -1717963.53821         9.000           0.344
  22418589.156    10179629.143 6   7931341.65421        14.500           1.313
 91  6 26 17 53  0.0000000  0  3G 2G11G19
  20616153.172    -5762827.929 8  -4439646.67923        29.250           2.531
  23948199.000    -2168429.181 5  -1689682.79221         9.000           0.188
  22425308.563    10214925.394 6   7958845.20921        14.500           1.375
 91  6 26 17 53 15.0000000  0  3G 2G11G19
  20614216.719    -5772998.164 8  -4447571.52723        28.500           2.500
  23955127.828    -2132028.854 5  -1661318.94221         9.500           0.250
  22432033.914    10250274.262 6   7986389.75221        15.250           1.281
 91  6 26 17 53 30.0000000  0  3G 2G11G19
  20612296.688    -5783085.323 8  -4455431.63222        28.250           2.469
  23962078.703    -2095518.692 5  -1632869.47021         9.750           0.219
  22438770.180    10285679.277 6   8013978.04921        16.500           1.250
 91  6 26 17 53 45.0000000  0  3G 2G11G19
  20610394.758    -5793086.680 8  -4463224.88522        29.000           2.313
  23969041.383    -2058896.338 5  -1604332.62521         9.750           0.219
  22445522.313    10321143.355 6   8041612.36821        14.750           1.219
 91  6 26 17 54  0.0000000  0  3G 2G11G19
  20608508.133    -5803001.638 8  -4470950.82322        29.250           2.344
  23976033.039    -2022161.453 5  -1575708.05421         9.500           0.156
  22452280.430    10356667.064 6   8069293.15621        14.250           1.188
 91  6 26 17 54 15.0000000  0  3G 2G11G19
  20606637.664    -5812832.104 8  -4478610.92122        28.750           2.438
  23983046.602    -1985316.107 5  -1546997.43721         9.250           0.188
  22459051.453    10392248.360 6   8097018.80521        14.250           1.031
 91  6 26 17 54 30.0000000  0  3G 2G11G19
  20604781.984    -5822577.326 8  -4486204.59022        28.500           2.375
  23990079.094    -1948359.885 5  -1518200.45621         9.500           0.219
  22465831.203    10427888.046 6   8124789.95621        13.750           1.188
 91  6 26 17 54 45.0000000  0  3G 2G11G19
  20602944.031    -5832238.801 8  -4493732.98922        28.250           2.469
  23997134.250    -1911294.719 5  -1489318.54221        10.000           0.219
  22472624.859    10463584.552 6   8152605.39021        13.750           1.125
 91  6 26 17 55  0.0000000  0  3G 2G11G19
  20601121.867    -5841813.776 8  -4501193.99423        28.500           2.656
  24004207.477    -1874117.975 5  -1460349.65921         9.750           0.188
  22479430.258    10499340.760 6   8180467.34121        14.000           1.250
 91  6 26 17 55 15.0000000  0  3G 2G11G19
  20599315.766    -5851307.719 8  -4508591.86722        29.250           2.469
  24011302.789    -1836835.412 5  -1431298.35121        10.000           0.125
  22486245.133    10535150.972 6   8208371.36521        14.000           1.250
 91  6 26 17 55 30.0000000  0  3G 2G11G19
  20597524.695    -5860717.857 8  -4515924.43023        28.000           2.531
  24018416.586    -1799444.654 5  -1402162.74221         9.250           0.188
  22493072.352    10571018.124 6   8236319.77721        13.500           1.281
 91  6 26 17 55 45.0000000  0  3G 2G11G19
  20595749.250    -5870042.020 7  -4523190.01723        27.750           2.594
  24025552.984    -1761943.711 5  -1372941.31921         9.500           0.125
  22499905.820    10606944.472 6   8264314.30921        13.750           1.125
 91  6 26 17 56  0.0000000  0  3G 2G11G19
  20593990.234    -5879281.151 7  -4530389.33123        27.000           2.594
  24032711.281    -1724333.857 5  -1343634.95021         9.500           0.156
  22506750.594    10642928.925 6   8292354.12221        14.500           1.063
 91  6 26 17 56 15.0000000  0  3G 2G11G19
  20592249.523    -5888436.217 7  -4537523.14223        27.500           2.625
  24039887.000    -1686616.436 5  -1314244.78321         9.250           0.125
  22513615.242    10678970.385 6   8320438.34821        14.000           1.063
 91  6 26 17 56 30.0000000  0  3G 2G11G19
  20590523.938    -5897505.355 8  -4544589.99623        28.250           2.750
  24047087.047    -1648789.769 5  -1284769.51021         9.000           0.031
  22520483.547    10715070.798 6   8348568.50021        13.000           0.875
 91  6 26 17 56 45.0000000  0  3G 2G11G19
  20588814.586    -5906488.817 8  -4551590.09823        29.250           2.625
  24054303.891    -1610854.406 5  -1255209.52721         8.000           0.031
  22527363.398    10751229.903 6   8376744.38821        13.750           1.000
 91  6 26 17 57  0.0000000  0  3G 2G11G19
  20587122.195    -5915387.355 8  -4558524.02323        29.000           2.563
  24061544.711    -1572811.355 5  -1225565.63721         8.500           0.281
  22534253.195    10787447.024 6   8404965.48721        14.500           1.063
 91  6 26 17 57 15.0000000  0  3G 2G11G19
  20585443.688    -5924205.351 8  -4565395.18423        28.250           2.625
  24068802.344    -1534665.329 5  -1195841.49421         8.500           0.063
  22541158.656    10823717.718 6   8433228.34021        14.250           1.000
 91  6 26 17 57 30.0000000  0  3G 2G11G19
  20583780.867    -5932939.764 8  -4572201.21222        28.000           2.469
  24076084.773    -1496413.551 5  -1166034.96021         8.000           0.031
  22548067.031    10860045.057 6   8461535.32921        14.750           1.188
 91  6 26 17 57 45.0000000  0  3G 2G11G19
  20582134.219    -5941589.189 7  -4578941.01723        27.250           2.594
  24083384.148    -1458054.925 4  -1136145.16021         7.250           0.063
  22554996.227    10896430.364 6   8489887.49521        14.000           1.156
 91  6 26 17 58  0.0000000  0  3G 2G11G19
  20580504.414    -5950153.601 8  -4585614.57123        28.000           2.563
  24090702.102    -1419589.882 4  -1106172.43721         6.750           0.031
  22561930.305    10932873.536 6   8518284.74721        13.750           1.156
 91  6 26 17 58 15.0000000  0  3G 2G11G19
  20578890.422    -5958634.779 7  -4592223.27323        27.750           2.531
  24098044.070    -1381020.528 4                         7.000
  22568874.609    10969372.768 6   8546725.68021        13.500           1.094
 91  6 26 17 58 30.0000000  0  3G 2G11G19
  20577293.984    -5967029.872 8  -4598764.90022        28.500           2.375
  24105399.734    -1342344.109 4                         6.500
  22575829.602    11005931.180 6   8575212.73021        14.250           1.000
 91  6 26 17 58 45.0000000  0  3G 2G11G19
  20575711.781    -5975340.906 8  -4605241.02522        28.500           2.313
  24112782.422    -1303563.025 3        -0.02931         5.750           0.156
  22582799.164    11042546.555 6   8603744.14721        14.000           1.094
 91  6 26 17 59  0.0000000  0  3G 2G11G19
  20574146.375    -5983568.711 8  -4611652.30022        28.500           2.344
  24120180.570    -1264678.207 3     30299.76221         5.250           0.250
  22589781.992    11079218.130 6   8632319.37021        14.250           1.094
 91  6 26 17 59 15.0000000  0  3G 2G11G19
  20572596.367    -5991711.579 8  -4617997.39022        28.250           2.438
  24127595.750    -1225688.325 3     60681.42421         5.000           0.313
  22596766.984    11115947.671 6   8660939.74721        14.250           1.063
 91  6 26 17 59 30.0000000  0  3G 2G11G19
  20571063.727    -5999774.172 8  -4624279.91223        28.500           2.688
  24135035.922    -1186598.449 3     91141.03921         5.000           0.156
  22603763.805    11152730.430 6   8689601.59521        13.500           1.063
 91  6 26 17 59 45.0000000  0  3G 2G11G19
  20569545.109    -6007750.090 8  -4630494.89823        29.000           2.594
  24142497.570    -1147402.325 3    121683.43221         5.250           0.156
  22610773.305    11189572.739 6   8718309.86521        12.500           1.156
 91  6 26 18  0  0.0000000  0  3G 2G11G19
  20568044.156    -6015641.503 8  -4636644.04423        29.750           2.563
  24149980.008    -1108102.506 3    152306.63421         5.000           0.219
  22617798.828    11226472.373 6   8747062.79921        12.750           1.344
 91  6 26 18  0 15.0000000  0  3G 2G11G19
  20566557.102    -6023450.610 8  -4642729.06223        28.750           2.531
  24157472.750    -1068701.465 2    183008.70421         4.500           0.188
  22624827.742    11263427.101 6   8775858.65921        13.750           1.219
 91  6 26 18  0 30.0000000  0  3G 2G11G19
  20565087.102    -6031174.878 8  -4648747.97323        28.250           2.500
  24164990.344    -1029196.978 2    213791.35621         4.500           0.219
  22631874.305    11300439.472 6   8804699.43821        14.000           1.188
 91  6 26 18  0 45.0000000  0  3G 2G11G19
  20563633.938    -6038812.191 8  -4654699.12522        28.000           2.438
  24172528.977     -989587.374 2    244655.91321         4.500           0.188
  22638926.758    11337511.641 6   8833586.81321        15.250           1.188
 91  6 26 18  1  0.0000000  0  3G 2G11G19
  20562196.727    -6046365.621 8  -4660584.90722        28.500           2.438
  24180089.719     -949875.739 2    275600.02321         4.750           0.125
  22645993.516    11374640.610 6   8862518.43921        13.750           1.156
 91  6 26 18  1 15.0000000  0  3G 2G11G19
  20560775.242    -6053834.864 8  -4666405.09423        29.000           2.500
  24187660.430     -910062.232 3    306623.47221         5.000           0.188
  22653066.977    11411826.565 6   8891494.47521        13.750           1.063
 91  6 26 18  1 30.0000000  0  3G 2G11G19
  20559369.688    -6061220.627 8  -4672160.23023        29.000           2.531
  24195253.930     -870147.934 2    337725.48721         4.500           0.188
  22660156.484    11449068.766 6   8920514.32321        13.250           0.938
 91  6 26 18  1 45.0000000  0  3G 2G11G19
  20557981.359    -6068520.121 8  -4677848.14523        28.750           2.531
  24202870.047     -830130.292 2    368908.01621         4.750           0.156
  22667250.695    11486369.973 6   8949580.15621        13.750           1.000
 91  6 26 18  2  0.0000000  0  3G 2G11G19
  20556607.758    -6075734.228 8  -4683469.52322        28.500           2.406
  24210503.938     -790010.519 2    400170.15121         4.750           0.156
  22674363.180    11523729.233 6   8978691.24521        12.750           1.031
 91  6 26 18  2 15.0000000  0  3G 2G11G19
  20555251.875    -6082865.889 8  -4689026.65623        28.750           2.500
  24218151.742     -749791.745 3    431509.38321         5.000           0.188
  22681481.063    11561143.695 6   9007845.32621        14.000           0.938
 91  6 26 18  2 30.0000000  0  3G 2G11G19
  20553909.555    -6089912.335 8  -4694517.38522        28.250           2.375
  24225828.438     -709471.557 3    462927.65321         5.500           0.094
  22688615.242    11598616.232 6   9037044.69321        13.750           0.969
 91  6 26 18  2 45.0000000  0  3G 2G11G19
  20552584.805    -6096875.215 8  -4699943.00422        28.500           2.469
  24233520.047     -669051.829 3    494423.48821         5.500           0.219
  22695752.953    11636145.224 6   9066288.03721        14.750           0.938
 91  6 26 18  3  0.0000000  0  3G 2G11G19
  20551275.875    -6103755.128 8  -4705303.97222        31.500           2.438
  24241230.219     -628533.544 3    525996.15021         5.750           0.125
  22702908.070    11673729.819 6   9095574.70221        15.250           0.906
 91  6 26 18  3 15.0000000  0  3G 2G11G19
  20549982.875    -6110548.917 8  -4710597.83022        31.500           2.438
  24248959.852     -587913.849 4    557647.77121         6.250           0.188
  22710071.938    11711373.365 6   9124907.30621        16.000           0.844
 91  6 26 18  3 30.0000000  0  3G 2G11G19
  20548705.969    -6117256.854 8  -4715824.79022        31.000           2.375
  24256712.523     -547193.249 4    589378.06921         7.250           0.188
  22717248.422    11749075.621 6   9154285.65321        14.750           0.656
 91  6 26 18  3 45.0000000  0  3G 2G11G19
  20547445.516    -6123880.187 8  -4720985.82122        31.000           2.344
  24264481.047     -506373.298 5    621185.78321         7.500           0.125
  22724427.734    11786835.261 6   9183708.71621        15.000           0.500
 91  6 26 18  4  0.0000000  0  3G 2G11G19
  20546201.250    -6130423.331 8  -4726084.37422        31.500           2.375
  24272263.250     -465458.764 4    653067.16921         7.250           0.156
  22731627.180    11824647.737 6   9213172.94621        14.250           0.656
 91  6 26 18  4 15.0000000  0  3G 2G11G19
  20544973.484    -6136881.153 8  -4731116.43622        31.250           2.313
  24280070.539     -424444.780 5    685026.08021         7.500           0.188
  22738831.469    11862518.311 6   9242682.45821        15.500           0.656
 91  6 26 18  4 30.0000000  0  3G 2G11G19
  20543759.375    -6143252.329 8  -4736080.98222        31.250           2.406
  24287894.383     -383330.381 5    717063.21621         8.000           0.063
  22746051.641    11900448.253 6   9272238.21721        15.250           0.781
 91  6 26 18  4 45.0000000  0  3G 2G11G19
  20542562.047    -6149545.727 8  -4740984.92922        31.500           2.375
  24295736.922     -342124.609 5    749171.56421         8.250           0.156
  22753278.430    11938428.681 6   9301833.32221        16.250           0.875
 91  6 26 18  5  0.0000000  0  3G 2G11G19
  20541380.906    -6155756.229 8  -4745824.28422        31.750           2.250
  24303598.172     -300822.793 5    781354.75021         8.500           0.094
  22760515.883    11976464.421 6   9331471.53521        15.500           0.969
 91  6 26 18  5 15.0000000  0  3G 2G11G19
  20540214.055    -6161885.717 8  -4750600.50922        30.250           2.250
  24311475.563     -259427.181 5    813610.98221         9.250           0.219
  22767761.617    12014553.700 6   9361151.46621        15.250           0.906
 91  6 26 18  5 30.0000000  0  3G 2G11G19
  20539064.250    -6167928.069 8  -4755308.84022        30.000           2.406
  24319370.234     -217931.652 5    845945.10221         9.250           0.188
  22775029.055    12052702.766 6   9390877.98521        14.250           0.781
 91  6 26 18  5 45.0000000  0  3G 2G11G19
  20537928.367    -6173891.042 8  -4759955.30222        30.250           2.406
  24327285.820     -176344.408 5    878350.68921         9.250           0.188
  22782292.289    12090903.938 6   9420645.09521        15.000           0.750
 91  6 26 18  6  0.0000000  0  3G 2G11G19
  20536811.625    -6179769.166 8  -4764535.65322        31.250           2.438
  24335219.453     -134660.301 5    910831.72721         9.500           0.125
  22789572.164    12129162.552 6   9450456.97021        14.500           0.688
 91  6 26 18  6 15.0000000  0  3G 2G11G19
  20535709.328    -6185564.382 8  -4769051.39723        32.000           2.531
  24343168.586      -92881.588 5                         9.250
  22796863.461    12167476.714 6   9480312.13721        14.000           0.781
 91  6 26 18  6 30.0000000  0  3G 2G11G19
  20534622.063    -6191274.285 8  -4773500.67222        32.000           2.375
  24351135.594      -51006.277 5                         9.250
  22804168.766    12205848.605 6   9510212.27121        13.000           0.906
 91  6 26 18  6 45.0000000  0  3G 2G11G19
  20533550.742    -6196903.101 8  -4777886.76322        30.750           2.406
  24359123.242       -9038.771 5                         9.000
  22811478.555    12244274.123 6   9540154.20421        14.250           0.813
 91  6 26 18  7  0.0000000  0  3G 2G11G19
  20532493.219    -6202450.556 8  -4782209.44922        29.750           2.375
  24367125.930       33020.836 5                        10.000
  22818802.961    12282753.652 6   9570138.21221        13.000           0.969
 91  6 26 18  7 15.0000000  0  3G 2G11G19
  20531455.125    -6207913.748 8  -4786466.47823        30.750           2.500
  24375149.531       75175.265 5        -0.31731        10.000           0.125
  22826131.938    12321290.254 6   9600166.70421        13.250           0.906
 91  6 26 18  7 30.0000000  0  3G 2G11G19
  20530431.367    -6213294.396 8  -4790659.18822        32.000           2.469
  24383187.430      117422.499 5     32919.59721         9.500           0.094
  22833482.445    12359881.946 6   9630238.13521        12.250           0.938
 91  6 26 18  7 45.0000000  0  3G 2G11G19
  20529423.539    -6218589.808 8  -4794785.48323        32.250           2.594
  24391245.984      159765.015 5     65913.68021         9.000           0.188
  22840829.578    12398531.454 6   9660354.62321        12.750           0.844
 91  6 26 18  8  0.0000000  0  3G 2G11G19
  20528432.141    -6223800.801 8  -4798845.98923        31.750           2.500
  24399321.820      202201.444 5     98980.93421         9.750           0.125
  22848200.359    12437237.878 5   9690515.43721        11.500           0.781
 91  6 26 18  8 15.0000000  0  3G 2G11G19
  20527456.102    -6228930.344 8  -4802843.03322        31.500           2.406
  24407410.930      244728.485 5    132118.87021         9.000           0.188
  22855571.805    12475998.206 6   9720718.25221        13.000           0.844
 91  6 26 18  8 30.0000000  0  3G 2G11G19
  20526495.461    -6233973.756 8  -4806772.96422        31.250           2.406
  24415521.570      287350.550 5    165330.80721         8.500           0.094
  22862963.422    12514817.040 6   9750966.66021        13.000           0.781
 91  6 26 18  8 45.0000000  0  3G 2G11G19
  20525551.211    -6238936.967 8  -4810640.39722        31.000           2.313
  24423649.953      330061.563 5    198612.08221         8.750           0.156
  22870355.422    12553688.590 6   9781256.14021        13.000           0.813
 91  6 26 18  9  0.0000000  0  3G 2G11G19
  20524622.430    -6243821.127 8  -4814446.22923        31.750           2.500
  24431794.102      372859.985 5    231961.46221         8.250           0.188
  22877771.125    12592611.565 5   9811585.69021        11.500           0.875
 91  6 26 18  9 15.0000000  0  3G 2G11G19
  20523707.961    -6248625.188 8  -4818189.65323        32.000           2.656
  24439955.531      415746.461 5    265379.43121         8.250           0.031
  22885177.859    12631587.036 6   9841956.16821        12.750           0.813
 91  6 26 18  9 30.0000000  0  3G 2G11G19
  20522810.352    -6253342.693 8  -4821865.63222        31.750           2.375
  24448135.000      458727.343 5    298870.96121         8.250           0.125
  22892609.188    12670621.616 6   9872372.68521        13.250           1.000
 91  6 26 18  9 45.0000000  0  3G 2G11G19
  20521928.719    -6257978.211 8  -4825477.72022        32.000           2.250
  24456327.891      501797.771 5    332432.32221         8.000           0.156
  22900045.000    12709710.533 6   9902831.55221        13.250           0.781
 91  6 26 18 10  0.0000000  0  3G 2G11G19
  20521061.031    -6262531.472 8  -4829025.71822        31.250           2.219
  24464540.406      544957.587 5    366063.27921         7.500           0.219
  22907497.484    12748854.185 6   9933333.06621        13.500           0.781
 91  6 26 18 10 15.0000000  0  3G 2G11G19
  20520211.195    -6267000.058 8  -4832507.72622        31.500           2.344
  24472771.914      588208.925 3    399765.59121         5.750           0.188
  22914956.367    12788054.842 6   9963878.98921        14.250           0.750
 91  6 26 18 10 30.0000000  0  3G 2G11G19
  20519375.367    -6271391.026 8  -4835929.25522        31.250           2.469
  24481015.711      631544.435 3    433533.43821         5.750           0.125
  22922429.695    12827305.415 6   9994463.81221        13.500           0.688
 91  6 26 18 10 45.0000000  0  3G 2G11G19
  20518556.031    -6275699.766 8  -4839286.70722        31.250           2.438
  24489282.469      674968.475 4    467370.30721         6.250           0.094
  22929905.297    12866610.589 6  10025091.18321        14.250           0.656
 91  6 26 18 11  0.0000000  0  3G 2G11G19
  20517752.453    -6279924.372 8  -4842578.60222        31.750           2.281
  24497561.742      718482.633 4    501277.39121         7.000           0.219
  22937397.469    12905972.076 6  10055762.42621        13.250           0.656
 91  6 26 18 11 15.0000000  0  3G 2G11G19
  20516963.820    -6284065.644 8  -4845805.56322        32.000           2.250
  24505864.195      762085.768 5    535253.77821         7.500           0.156
  22944894.602    12945389.355 6  10086477.15421        13.500           0.688
 91  6 26 18 11 30.0000000  0  3G 2G11G19
  20516190.938    -6288128.401 8  -4848971.34422        32.000           2.156
  24514175.758      805772.846 4    569295.60821         7.000           0.094
  22952410.727    12984857.565 6  10117231.55721        12.500           0.656
 91  6 26 18 11 45.0000000  0  3G 2G11G19
  20515433.469    -6292109.635 8  -4852073.60022        32.250           2.156
  24522504.500      849546.633 4    603405.00021         6.750           0.250
  22959928.594    13024379.576 6  10148027.88821        14.500           0.656
 91  6 26 18 12  0.0000000  0  3G 2G11G19
  20514691.531    -6296006.268 8  -4855109.93022        32.250           2.313
  24530849.633      893409.768 4    637583.99521         6.750           0.250
  22967462.586    13063958.449 6  10178868.53321        13.750           0.656
 91  6 26 18 12 15.0000000  0  2G 2G19
  20513966.430    -6299824.842 8  -4858085.43422        33.000           2.438
  22975001.375    13103587.519 6  10209748.27321        13.750           0.625
 91  6 26 18 12 30.0000000  0  2G 2G19
  20513254.266    -6303562.384 8  -4860997.80023        33.000           2.531
  22982555.008    13143269.942 6  10240669.61821        12.750           0.563
 91  6 26 18 12 45.0000000  0  2G 2G19
  20512558.016    -6307219.142 8  -4863847.21822        32.000           2.406
  22990111.766    13183005.588 6  10271632.41521        12.500           0.563
 91  6 26 18 13  0.0000000  0  2G 2G19
  20511877.867    -6310790.930 8  -4866630.43022        31.500           2.469
  22997683.305    13222798.479 5  10302639.81421        11.750           0.531
 91  6 26 18 13 15.0000000  0  2G 2G19
  20511212.391    -6314285.176 8  -4869353.21322        31.250           2.344
  23005265.664    13262641.088 5  10333685.95221        11.750           0.625
 91  6 26 18 13 30.0000000  0  2G 2G19
  20510563.039    -6317701.821 8  -4872015.53222        31.500           2.406
  23012859.320    13302533.493 5  10364770.89921        11.250           0.500
 91  6 26 18 13 45.0000000  0  2G 2G19
  20509928.836    -6321035.539 8  -4874613.23122        32.250           2.313
  23020460.164    13342480.943 5  10395898.73821        11.750           0.469
 91  6 26 18 14  0.0000000  0  2G 2G19
  20509309.648    -6324288.766 8  -4877148.21622        32.250           2.281
  23028068.313    13382480.964 5  10427067.54321        11.250           0.500
 91  6 26 18 14 15.0000000  0  2G 2G19
  20508706.586    -6327460.991 8  -4879620.07922        32.000           2.219
  23035692.867    13422534.216 6  10458277.83721        12.000           0.531
 91  6 26 18 14 30.0000000  0  2G 2G19
  20508117.906    -6330549.826 8  -4882026.95922        31.250           2.125
  23043327.555    13462643.108 5  10489531.48421        11.750           0.594
 91  6 26 18 14 45.0000000  0  2G 2G19
  20507546.625    -6333557.470 8  -4884370.57222        31.250           2.125
  23050966.289    13502805.271 6  10520826.64721        12.000           0.594
 91  6 26 18 15  0.0000000  0  2G 2G19
  20506989.992    -6336485.393 8  -4886652.06422        31.250           2.063
  23058622.820    13543019.139 5  10552162.10221        11.250           0.594
 91  6 26 18 15 15.0000000  0  2G 2G19
  20506448.047    -6339332.981 8  -4888870.96422        31.750           2.125
  23066285.023    13583285.471 6  10583538.42621        13.250           0.531
 91  6 26 18 15 30.0000000  0  2G 2G19
  20505920.031    -6342101.616 8  -4891028.33722        31.500           2.188
  23073960.508    13623602.673 6  10614954.38421        13.000           0.656
 91  6 26 18 15 45.0000000  0  2G 2G19
  20505408.320    -6344788.138 8  -4893121.71922        30.750           2.188
  23081639.023    13663973.946 6  10646412.47821        14.500           0.594
 91  6 26 18 16  0.0000000  0  2G 2G19
  20504912.836    -6347395.900 8  -4895153.72422        31.250           2.094
  23089336.063    13704396.205 6  10677910.30821        14.250           0.656
 91  6 26 18 16 15.0000000  0  2G 2G19
  20504432.297    -6349919.871 8  -4897120.44422        31.000           2.281
  23097035.109    13744874.329 6  10709451.67121        14.750           0.719
 91  6 26 18 16 30.0000000  0  2G 2G19
  20503966.227    -6352365.615 8  -4899026.21522        31.250           2.094
  23104747.164    13785402.591 6  10741032.10521        13.750           0.813
 91  6 26 18 16 45.0000000  0  2G 2G19
  20503516.570    -6354733.706 8  -4900871.47222        30.750           2.063
  23112469.914    13825980.436 6  10772651.17421        14.750           0.781
 91  6 26 18 17  0.0000000  0  2G 2G19
  20503082.680    -6357016.571 8  -4902650.32322        31.500           2.188
  23120203.602    13866615.428 6  10804314.76321        14.250           0.781
 91  6 26 18 17 15.0000000  0  2G 2G19
  20502662.344    -6359223.292 8  -4904369.84622        30.750           2.156
  23127943.719    13907298.375 6  10836015.72721        15.000           0.844
 91  6 26 18 17 30.0000000  0  2G 2G19
  20502256.906    -6361348.756 8  -4906026.04322        30.000           2.281
  23135694.969    13948034.413 6  10867758.06021        13.750           0.875
 91  6 26 18 17 45.0000000  0  2G 2G19
  20501868.055    -6363391.260 8  -4907617.60222        29.750           2.406
  23143456.453    13988825.290 6  10899543.13821        14.250           0.719
 91  6 26 18 18  0.0000000  0  2G 2G19
  20501495.383    -6365354.981 8  -4909147.76922        30.500           2.469
  23151231.961    14029666.942 6  10931367.75521        12.500           0.844
 91  6 26 18 18 15.0000000  0  2G 2G19
  20501137.031    -6367236.977 8  -4910614.25522        31.250           2.250
  23159010.117    14070562.317 6  10963234.23821        12.750           0.750
 91  6 26 18 18 30.0000000  0  2G 2G19
  20500793.789    -6369037.991 8  -4912017.64422        32.000           2.281
  23166800.859    14111510.467 6  10995141.84221        12.250           0.688
 91  6 26 18 18 45.0000000  0  2G 2G19
  20500467.563    -6370758.792 8  -4913358.53022        32.250           2.281
  23174602.234    14152510.601 5  11027089.95721        11.750           0.719
 91  6 26 18 19  0.0000000  0  2G 2G19
  20500154.516    -6372399.399 8  -4914636.92022        31.750           2.219
  23182418.383    14193562.847 5  11059078.68021        10.500           0.719
 91  6 26 18 19 15.0000000  0  2G 2G19
  20499856.898    -6373960.576 8  -4915853.41422        31.500           2.188
  23190234.898    14234666.317 5  11091107.32421        11.000           0.656
 91  6 26 18 19 30.0000000  0  2G 2G19
  20499575.977    -6375443.185 8  -4917008.68822        32.250           2.313
  23198071.281    14275820.031 5  11123175.11921        10.750           0.625
 91  6 26 18 19 45.0000000  0  2G 2G19
  20499309.234    -6376844.618 8  -4918100.70922        32.500           2.250
  23205913.258    14317026.682 6  11155284.15421        12.250           0.719
 91  6 26 18 20  0.0000000  0  2G 2G19
  20499059.086    -6378163.868 8  -4919128.68922        32.500           2.125
  23213766.578    14358287.087 5  11187435.07821        11.000           0.594
 91  6 26 18 20 15.0000000  0  2G 2G19
  20498822.047    -6379401.500 8  -4920093.07922        32.000           2.219
  23221624.313    14399600.659 6  11219627.43921        12.000           0.531
 91  6 26 18 20 30.0000000  0  2G 2G19
  20498600.641    -6380558.575 8  -4920994.68822        31.250           2.000
  23229501.141    14440966.381 5  11251860.42321        10.750           0.531
 91  6 26 18 20 45.0000000  0  2G 2G19
  20498398.039    -6381635.049 8  -4921833.49722        31.000           2.219
  23237376.953    14482384.411 5  11284134.15421        11.750           0.469
 91  6 26 18 21  0.0000000  0  2G 2G19
  20498204.844    -6382635.831 8  -4922613.32022        30.750           2.219
  23245269.445    14523849.833 5  11316444.83621        11.500           0.563
 91  6 26 18 21 15.0000000  0  2G 2G19
  20498032.844    -6383557.834 8  -4923331.76522        32.000           2.281
  23253168.758    14565365.667 6  11348794.78321        12.250           0.563
 91  6 26 18 21 30.0000000  0  2G 2G19
  20497868.039    -6384408.891 8  -4923994.93222        31.250           2.344
  23261082.219    14606924.209 5  11381178.00521        11.250           0.531
 91  6 26 18 21 45.0000000  0  2G 2G19
  20497720.445    -6385185.341 8  -4924599.96422        30.750           2.406
  23268993.328    14648529.000 6  11413597.28121        13.250           0.469
 91  6 26 18 22  0.0000000  0  2G 2G19
  20497588.766    -6385882.301 8  -4925143.05223        29.750           2.500
  23276921.188    14690184.571 6  11446056.11521        12.750           0.500
 91  6 26 18 22 15.0000000  0  2G 2G19
  20497469.453    -6386499.539 8  -4925624.01322        29.250           2.438
  23284858.586    14731891.407 6  11478554.88821        13.250           0.500
 91  6 26 18 22 30.0000000  0  2G 2G19
  20497368.102    -6387038.851 8  -4926044.24822        29.750           2.375
  23292804.148    14773647.666 6  11511092.17121        12.750           0.531
 91  6 26 18 22 45.0000000  0  2G 2G19
  20497279.820    -6387497.281 8  -4926401.47222        30.750           2.375
  23300758.367    14815456.123 6  11543670.13821        12.750           0.563
 91  6 26 18 23  0.0000000  0  2G 2G19
  20497208.773    -6387875.732 8  -4926696.38422        32.250           2.406
  23308728.766    14857315.930 5  11576288.11721        11.500           0.438
 91  6 26 18 23 15.0000000  0  2G 2G19
  20497154.883    -6388175.566 8  -4926930.01622        32.250           2.344
  23316700.836    14899225.864 6  11608945.15321        12.250           0.625
 91  6 26 18 23 30.0000000  0  2G 2G19
  20497111.313    -6388395.992 8  -4927101.77822        32.250           2.313
  23324685.664    14941186.655 5  11641641.83921        11.250           0.594
 91  6 26 18 23 45.0000000  0  2G 2G19
  20497084.414    -6388540.111 8                        31.250
  23332679.875    14983194.942 5  11674375.52021        11.750           0.594
 91  6 26 18 24  0.0000000  0  2G 2G19
  20497067.383    -6388609.781 8                        30.250
  23340687.094    15025249.169 5  11707145.00421        10.500           0.656
 91  6 26 18 24 15.0000000  0  2G 2G19
  20497069.875    -6388601.846 8                        29.750
  23348691.711    15067352.335 5  11739952.61121        11.000           0.594
 91  6 26 18 24 30.0000000  0  2G 2G19
  20497087.742    -6388516.061 8                        30.250
  23356717.633    15109504.808 5  11772798.64021        10.500           0.469
 91  6 26 18 24 45.0000000  0  2G 2G19
  20497121.633    -6388352.338 8                        31.250
  23364747.508    15151706.511 5  11805683.03221        10.500           0.625
 91  6 26 18 25  0.0000000  0  2G 2G19
  20497163.813    -6388112.344 8                        31.500
  23372789.320    15193955.744 5  11838604.46821         9.750           0.375
 91  6 26 18 25 15.0000000  0  2G 2G19
  20497227.664    -6387791.936 8  -4926631.08722        31.500           2.156
  23380836.063    15236256.600 5  11871566.13821        10.250           0.469
 91  6 26 18 25 30.0000000  0  2G 2G19
  20497302.016    -6387394.563 8  -4926321.44822        31.250           2.188
  23388896.672    15278605.463 5  11904565.21521        10.500           0.438
 91  6 26 18 25 45.0000000  0  2G 2G19
  20497389.211    -6386916.981 8  -4925949.29822        30.000           2.219
  23396963.109    15321005.818 5  11937604.41021        11.250           0.563
 91  6 26 18 26  0.0000000  0  2G 2G19
  20497495.688    -6386363.585 8  -4925518.07822        31.250           2.250
  23405043.914    15363453.155 5  11970680.20021        10.500           0.469
 91  6 26 18 26 15.0000000  0  2G 2G19
  20497616.109    -6385734.394 8  -4925027.79522        32.000           2.250
  23413126.750    15405947.181 5  12003792.37921        10.750           0.500
 91  6 26 18 26 30.0000000  0  2G 2G19
  20497752.570    -6385023.618 8  -4924473.95022        32.750           2.281
  23421227.102    15448493.824 5  12036945.56821        11.250           0.406
 91  6 26 18 26 45.0000000  0  2G 2G19
  20497902.430    -6384230.190 8  -4923855.69622        32.000           2.281
  23429330.852    15491094.236 6  12070140.64121        12.000           0.563
 91  6 26 18 27  0.0000000  0  2G 2G19
  20498068.469    -6383363.820 8  -4923180.60822        30.500           2.313
  23437448.031    15533738.689 6  12103370.03821        12.000           0.500
 91  6 26 18 27 15.0000000  0  2G 2G19
  20498246.297    -6382423.673 8  -4922448.01922        29.500           2.406
  23445567.977    15576428.100 6  12136634.45421        12.500           0.500
 91  6 26 18 27 30.0000000  0  2G 2G19
  20498441.070    -6381403.708 8  -4921653.23322        30.250           2.438
  23453703.328    15619168.342 6  12169938.46821        12.000           0.500
 91  6 26 18 27 45.0000000  0  2G 2G19
  20498651.227    -6380303.776 8  -4920796.14322        31.250           2.469
  23461842.414    15661959.570 6  12203282.21221        12.000           0.438
 91  6 26 18 28  0.0000000  0  2G 2G19
  20498875.195    -6379127.275 8  -4919879.39523        31.500           2.563
  23469998.055    15704798.123 5  12236662.85021        11.000           0.438
 91  6 26 18 28 15.0000000  0  2G 2G19
  20499111.992    -6377877.389 8  -4918905.47322        31.250           2.344
  23478154.055    15747680.978 5  12270078.00321        11.250           0.563
 91  6 26 18 28 30.0000000  0  2G 2G19
  20499361.891    -6376559.425 8  -4917878.49022        30.250           2.344
  23486323.180    15790602.740 5  12303523.46921        10.250           0.438
 91  6 26 18 28 45.0000000  0  3G13G 2G19
  24108830.266          -0.94715                         8.500
  20499627.953    -6375164.627 8  -4916791.63322        30.500           2.469
  23494498.117    15833572.108 5  12337006.03921        10.750           0.594
 91  6 26 18 29  0.0000000  0  3G13G 2G19
  24097085.813      -61719.509 5                         8.250
  20499908.844    -6373691.338 8  -4915643.61322        31.000           2.313
  23502686.672    15876590.683 5  12370526.94421        10.000           0.594
 91  6 26 18 29 15.0000000  0  3G13G 2G19
  24085345.969     -123414.709 5                         8.250
  20500203.563    -6372143.245 8  -4914437.30322        31.250           2.344
  23510878.828    15919654.811 5  12404083.35021        10.250           0.594
 91  6 26 18 29 30.0000000  0  3G13G 2G19
  24073606.992     -185085.044 5                         8.000
  20500512.039    -6370519.370 8  -4913171.94622        31.750           2.250
  23519085.023    15962765.542 5  12437676.06321        10.000           0.594
 91  6 26 18 29 45.0000000  0  3G13G 2G19
  24061877.461     -246730.276 5                         7.750
  20500835.102    -6368819.750 8  -4911847.56322        31.000           2.188
  23527299.641    16005922.660 5  12471304.93121        10.750           0.656
 91  6 26 18 30  0.0000000  0  3G13G 2G19
  24050148.977     -308350.117 5                         7.500
  20501173.828    -6367044.611 8  -4910464.33122        30.750           2.125
  23535522.500    16049125.943 5  12504969.77521        10.250           0.531
 91  6 26 18 30 15.0000000  0  3G13G 2G19
  24038430.281     -369943.536 5        -0.18731         7.750           0.063
  20501525.820    -6365193.756 8  -4909022.10922        30.750           2.031
  23543749.781    16092375.742 5  12538670.87721        10.000           0.563
 91  6 26 18 30 30.0000000  0  3G13G 2G19
  24026712.234     -431510.323 5    -47974.14821         7.750           0.094
  20501892.461    -6363267.257 8  -4907520.94322        31.000           2.188
  23551995.055    16135671.765 5  12572408.00121         9.500           0.688
 91  6 26 18 30 45.0000000  0  3G13G 2G19
  24015003.070     -493049.137 5    -95926.31321         7.750           0.094
  20502274.367    -6361264.290 8  -4905960.19222        31.500           2.375
  23560238.211    16179014.718 5  12606181.69521        10.000           0.656
 91  6 26 18 31  0.0000000  0  4G13G 2G15G19
  24003296.875     -554565.507 5   -143860.97421         7.750           0.156
  20502669.188    -6359190.851 8  -4904344.52722        31.500           2.313
  24214237.016          -0.21516                        13.250
  23568492.578    16222398.853 5  12639987.47221         9.750           0.625
 91  6 26 18 31 15.0000000  0  4G13G 2G15G19
  23991597.883     -616053.935 5   -191773.86621         8.000           0.094
  20503077.727    -6357041.722 8  -4902669.88122        31.000           2.469
  24209485.047      -24970.888 6                        13.500
  23576761.445    16265829.324 5  12673829.36121        10.250           0.500
 91  6 26 18 31 30.0000000  0  4G13G 2G15G19
  23979903.898     -677513.035 5   -239663.91321         8.250           0.156
  20503500.070    -6354815.981 8  -4900935.54122        30.750           2.469
  24204754.398      -49835.334 6        -0.08231        13.500           0.250
  23585036.313    16309306.959 5  12707707.99021         9.750           0.625
 91  6 26 18 31 45.0000000  0  4G13G 2G15G19
  23968211.828     -738945.623 5   -287533.30721         7.500           0.156
  20503937.813    -6352516.790 8  -4899143.96722        30.750           2.313
  24200041.016      -74596.486 6    -19294.44821        13.250           0.125
  23593312.641    16352828.450 5  12741620.78121        10.250           0.594
 91  6 26 18 32  0.0000000  0  4G13G 2G15G19
  23956528.516     -800348.889 5   -335379.84021         8.000           0.094
  20504390.383    -6350141.935 8  -4897293.43322        30.250           2.406
  24195351.813      -99251.474 6    -38506.11221        13.500           0.219
  23601609.422    16396396.045 5  12775569.51221        10.000           0.500
 91  6 26 18 32 15.0000000  0  4G13G 2G15G19
  23944847.773     -861721.460 5   -383202.44721         8.000           0.031
  20504856.266    -6347690.516 8  -4895383.24322        30.250           2.375
  24190681.539     -123799.303 6    -57634.28521        13.500           0.281
  23609903.500    16440010.677 5  12809554.90221        10.250           0.438
 91  6 26 18 32 30.0000000  0  4G13G 2G15G19
  23933173.680     -923067.646 5   -431004.48921         8.250           0.188
  20505337.219    -6345167.241 8  -4893417.05822        30.750           2.406
  24186027.578     -148244.264 6    -76682.29521        13.250           0.375
  23618213.430    16483667.401 5  12843573.08121         9.750           0.500
 91  6 26 18 32 45.0000000  0  4G13G 2G15G19
  23921505.953     -984385.414 5   -478784.38621         8.250           0.125
  20505830.641    -6342570.458 8  -4891393.59722        31.000           2.406
  24181395.078     -172584.425 6    -95648.62921        12.750           0.406
  23626528.938    16527367.851 5  12877625.31421        11.000           0.406
 91  6 26 18 33  0.0000000  0  4G13G 2G15G19
  23909843.508    -1045675.003 5   -526542.31221         8.250           0.188
  20506339.852    -6339900.835 8  -4889313.37422        30.750           2.406
  24176785.602     -196819.910 6   -114533.42221        13.250           0.406
  23634857.039    16571111.475 5  12911711.18721        10.250           0.281
 91  6 26 18 33 15.0000000  0  4G13G 2G15G19
  23898183.180    -1106929.353 5                         8.500
  20506861.188    -6337151.812 8  -4887171.27622        30.500           2.313
  24172195.891     -220943.891 6   -133331.32021        12.750           0.469
  23643185.766    16614904.833 5  12945835.80621        11.000           0.406
 91  6 26 18 33 30.0000000  0  4G13G 2G15G19
  23886535.313    -1168153.530 5                         8.750
  20507399.391    -6334328.959 8  -4884971.65122        30.750           2.313
  24167626.617     -244961.497 6   -152046.32521        12.750           0.406
  23651527.867    16658742.131 5  12979994.65421        11.000           0.375
 91  6 26 18 33 45.0000000  0  4G13G 2G15G19
  23874890.023    -1229345.139 5                         8.750
  20507950.328    -6331430.483 8  -4882713.09622        30.750           2.313
  24163074.625     -268870.529 6   -170676.72221        12.500           0.375
  23659879.102    16702625.290 5  13014189.25321        11.500           0.438
 91  6 26 18 34  0.0000000  0  4G13G 2G15G19
  23863254.609    -1290506.089 5                         9.500
  20508516.141    -6328458.449 8  -4880397.22522        31.250           2.281
  24158541.961     -292672.742 5   -189223.89121        11.000           0.500
  23668243.469    16746552.010 5  13048417.80021        10.250           0.375
 91  6 26 18 34 15.0000000  0  4G13G 2G15G19
  23851619.469    -1351633.621 5        -0.30231         9.250           0.031
  20509096.148    -6325410.403 8  -4878022.12522        31.000           2.188
  24154035.047     -316365.467 5   -207685.74221        11.500           0.500
  23676607.266    16790524.705 5  13082682.18921        11.000           0.281
 91  6 26 18 34 30.0000000  0  4G13G 2G15G19
  23839993.000    -1412737.067 5    -47613.18921         9.250           0.094
  20509689.430    -6322296.189 8  -4875595.46922        31.500           2.313
  24149545.953     -339958.077 5   -226069.55921        11.250           0.406
  23684982.422    16834533.697 5  13116974.81521        10.750           0.344
 91  6 26 18 34 45.0000000  0  4G13G 2G15G19
  23828371.078    -1473813.430 5    -95204.98421         9.750           0.031
  20510295.133    -6319113.379 8  -4873115.36222        30.750           2.344
  24145076.000     -363447.899 5   -244373.31121        11.750           0.531
  23693362.531    16878581.316 5  13151297.58421        10.500           0.281
 91  6 26 18 35  0.0000000  0  4G13G 2G15G19
  23816754.188    -1534860.027 5   -142773.57721         9.750           0.063
  20510912.820    -6315859.848 8  -4870580.15022        29.750           2.250
  24140627.031     -386832.239 5   -262594.86021        11.750           0.531
  23701749.188    16922669.772 5  13185652.14921         9.750           0.313
 91  6 26 18 35 15.0000000  0  4G13G 2G15G19
  23805144.727    -1595870.211 5   -190313.79821        10.250           0.094
  20511546.328    -6312529.416 8  -4867985.00922        29.250           2.344
  24136192.820     -410104.354 5   -280728.95021        10.000           0.500
  23710151.539    16966805.359 5  13220043.47121        10.250           0.344
 91  6 26 18 35 30.0000000  0  4G13G 2G15G19
  23793538.594    -1656851.350 5   -237831.41421        10.500           0.125
  20512194.281    -6309129.721 8  -4865335.89922        30.000           2.469
  24131786.633     -433271.765 5   -298781.44221        10.500           0.438
  23718562.219    17010980.087 5  13254465.27021         9.250           0.313
 91  6 26 18 35 45.0000000  0  4G13G 2G15G19
  23781942.000    -1717796.402 5   -285320.86521         9.750           0.219
  20512855.563    -6305654.218 8  -4862627.71922        30.250           2.469
  24127402.141     -456327.437 5   -316746.87521        11.000           0.531
  23726969.102    17055200.355 5  13288922.57321         9.250           0.406
 91  6 26 18 36  0.0000000  0  4G13G 2G15G19
  23770350.555    -1778706.307 5   -332782.95621         9.750           0.125
  20513532.352    -6302104.467 8  -4859861.68722        30.750           2.406
  24123032.234     -479272.658 5   -334626.25121        10.750           0.438
  23735395.031    17099464.834 5  13323414.33921         8.750           0.375
 91  6 26 18 36 15.0000000  0  4G13G 2G15G19
  23758765.648    -1839580.407 5   -380217.15521        10.000           0.094
  20514221.656    -6298479.888 8  -4857037.34822        30.750           2.375
  24118692.039     -502106.513 5   -352418.85721        11.500           0.500
  23743824.648    17143773.934 5  13357940.84821         8.750           0.406
 91  6 26 18 36 30.0000000  0  4G13G 2G15G19
  23747186.961    -1900423.045 5   -427626.80521        10.000           0.125
  20514924.898    -6294785.409 8  -4854158.54222        31.500           2.344
  24114364.688     -524833.588 5   -370128.24621        11.750           0.500
  23752266.734    17188122.752 5  13392498.30721         7.750           0.375
 91  6 26 18 36 45.0000000  0  4G13G 2G15G19
  23735616.898    -1961230.027 5   -475008.69021        10.500           0.125
  20515640.688    -6291017.485 8  -4851222.50022        31.750           2.375
  24110060.414     -547449.769 6   -387751.22221        12.000           0.406
  23760707.656    17232514.961 5  13427089.57021         8.250           0.344
 91  6 26 18 37  0.0000000  0  4G13G 2G15G19
  23724053.594    -2022001.740 5                        10.500
  20516371.555    -6287176.769 8  -4848229.74022        31.750           2.469
  24105778.477     -569955.374 5   -405288.02421        11.750           0.406
  23769167.906    17276949.772 5  13461714.02621         8.500           0.344
 91  6 26 18 37 15.0000000  0  4G13G 2G15G19
  23712494.422    -2082737.183 5                        10.250
  20517116.828    -6283262.659 8  -4845179.78422        31.500           2.438
  24101520.094     -592349.792 6   -422738.20321        12.750           0.500
  23777629.906    17321427.613 5  13496372.02521         9.000           0.406
 91  6 26 18 37 30.0000000  0  4G13G 2G15G19
  23700944.469    -2143436.009 5                        10.250
  20517875.883    -6279275.195 8  -4842072.66523        31.500           2.500
  24097279.242     -614632.476 6   -440101.31221        13.000           0.438
  23786105.359    17365948.313 5  13531063.42721         8.250           0.500
 91  6 26 18 37 45.0000000  0  4G13G 2G15G19
  23689400.094    -2204097.212 5        -0.19131        10.250           0.094
  20518648.273    -6275213.970 8  -4838908.07322        31.250           2.438
  24093060.516     -636802.550 6   -457376.68221        12.750           0.500
  23794586.680    17410512.301 5  13565788.55921         9.500           0.406
 91  6 26 18 38  0.0000000  0  4G13G 2G15G19
  23677864.922    -2264717.298 5    -47236.43221        10.000           0.156
  20519436.484    -6271075.843 8  -4835683.55822        31.500           2.344
  24088864.281     -658856.691 6   -474561.71121        12.750           0.438
  23803075.680    17455122.579 5  13600549.75021         9.250           0.281
 91  6 26 18 38 15.0000000  0  4G13G 2G15G19
  23666332.383    -2325302.106 5    -94445.23121         9.500           0.156
  20520237.781    -6266867.177 8  -4832404.08122        32.000           2.313
  24084685.914     -680801.012 5   -491661.17521        11.750           0.563
  23811569.266    17499772.806 5  13635342.06921         9.500           0.375
 91  6 26 18 38 30.0000000  0  4G13G 2G15G19
  23654811.508    -2385852.822 5   -141627.46621         9.250           0.250
  20521052.164    -6262589.769 8  -4829071.04222        32.000           2.344
  24080531.172     -702636.796 6   -508676.05221        12.250           0.563
  23820074.523    17544461.362 5  13670164.24321         9.250           0.438
 91  6 26 18 38 45.0000000  0  4G13G 2G15G19
  23643297.742    -2446365.396 5   -188779.93221         9.000           0.063
  20521879.289    -6258239.647 8  -4825681.34222        31.000           2.344
  24076397.367     -724359.659 6   -525602.94121        12.500           0.500
  23828582.883    17589191.978 5  13705019.21421         9.250           0.500
 91  6 26 18 39  0.0000000  0  4G13G 2G15G19
  23631789.141    -2506839.119 5   -235902.17121         9.250           0.156
  20522719.398    -6253816.789 8  -4822234.95822        29.750           2.281
  24072283.734     -745969.183 6   -542441.51221        12.250           0.406
  23837105.844    17633964.803 5  13739907.07321         9.500           0.469
 91  6 26 18 39 15.0000000  0  4G13G 2G15G19
  23620289.023    -2567276.679 5   -282996.24121         9.250           0.063
  20523574.305    -6249324.335 8  -4818734.33322        29.500           2.375
  24068190.758     -767468.347 6   -559194.08621        12.000           0.438
  23845634.820    17678776.569 5  13774825.28821         9.750           0.500
 91  6 26 18 39 30.0000000  0  4G13G 2G15G19
  23608795.016    -2627674.351 5   -330059.20821         9.500           0.094
  20524443.539    -6244758.834 8  -4815176.79822        30.250           2.375
  24064122.250     -788853.382 6   -575857.71521        12.000           0.500
  23854168.711    17723630.620 5  13809776.44221         8.750           0.469
 91  6 26 18 39 45.0000000  0  4G13G 2G15G19
  23597308.594    -2688033.707 5   -377092.29221        10.000           0.125
  20525327.180    -6240122.502 8  -4811564.07122        31.250           2.406
  24060071.258     -810125.935 5   -592433.69121        11.500           0.531
  23862711.148    17768524.836 5  13844758.88821         8.750           0.313
 91  6 26 18 40  0.0000000  0  4G13G 2G15G19
  23585830.773    -2748349.972 5   -424091.85521        10.750           0.250
  20526223.039    -6235410.733 8  -4807892.56522        31.250           2.313
  24056047.297     -831281.449 5   -608918.48721        11.750           0.531
  23871263.000    17813463.604 5  13879776.03521         8.000           0.375
 91  6 26 18 40 15.0000000  0  4G13G 2G15G19
  23574360.945    -2808624.291 5   -471058.73421        11.250           0.250
  20527133.820    -6230625.068 8  -4804163.48322        31.500           2.469
  24052045.805     -852321.167 5   -625313.04221        11.500           0.531
  23879823.375    17858445.262 5  13914826.60421         8.500           0.406
 91  6 26 18 40 30.0000000  0  4G13G 2G15G19
  23562899.547    -2868860.297 5   -517995.75621        11.250           0.219
  20528056.945    -6225770.011 8  -4800380.32823        32.000           2.500
  24048063.313     -873248.852 5   -641620.31321        11.750           0.500
  23888394.766    17903465.505 5  13949907.25421         7.750           0.375
 91  6 26 18 40 45.0000000  0  4G13G 2G15G19
  23551445.313    -2929052.396 5   -564898.54621        11.250           0.094
  20528995.117    -6220840.074 8  -4796538.82423        31.750           2.563
  24044102.484     -894058.741 6   -657835.79721        12.000           0.688
  23896964.539    17948529.645 5  13985022.10621         7.750           0.500
 91  6 26 18 41  0.0000000  0  4G13G 2G15G19
  23539997.922    -2989200.013 5   -611766.68421        11.500           0.094
  20529947.273    -6215835.365 8  -4792639.05123        31.250           2.719
  24040167.922     -914750.531 6   -673959.24921        12.500           0.500
  23905552.672    17993637.580 5  14020171.06821         7.500           0.469
 91  6 26 18 41 15.0000000  0  4G13G 2G15G19
  23528562.930    -3049307.232 6   -658603.36221        12.000           0.063
  20530912.828    -6210760.501 8  -4788684.60923        30.750           2.750
  24036252.563     -935328.464 6   -689993.97621        12.500           0.563
  23914141.125    18038784.740 5  14055350.59721         8.000           0.500
 91  6 26 18 41 30.0000000  0  4G13G 2G15G19
  23517133.172    -3109373.595 6   -705408.18521        12.250           0.094
  20531892.656    -6205615.390 8  -4784675.43223        31.000           2.781
  24032357.867     -955792.123 6   -705939.67821        12.250           0.469
  23922741.414    18083971.215 5  14090560.75821         7.750           0.438
 91  6 26 18 41 45.0000000  0  4G13G 2G15G19
  23505711.070    -3169398.518 6   -752180.68121        12.500           0.125
  20532885.570    -6200399.667 8  -4780611.23323        31.250           2.563
  24028485.672     -976141.059 6   -721795.97721        12.750           0.625
  23931347.641    18129197.127 5  14125801.66221         8.250           0.344
 91  6 26 18 42  0.0000000  0  4G13G 2G15G19
  23494295.641    -3229384.183 6   -798922.65721        12.250           0.031
  20533891.719    -6195116.133 8  -4776494.20523        31.000           2.531
  24024635.898     -996377.529 6   -737564.64721        13.500           0.531
  23939962.070    18174459.756 5  14161071.15821         8.250           0.375
 91  6 26 18 42 15.0000000  0  4G13G 2G15G19
  23482891.688    -3289325.476 6   -845630.03521        12.500           0.063
  20534911.242    -6189760.116 8  -4772320.69222        31.000           2.469
  24020807.406    -1016496.470 6   -753241.73621        13.250           0.406
  23948579.664    18219763.707 5  14196372.88021         9.000           0.375
 91  6 26 18 42 30.0000000  0  4G13G 2G15G19
  23471490.727    -3349220.196 6   -892301.06921        12.250           0.125
  20535943.328    -6184329.610 8  -4768089.13723        30.750           2.500
  24017000.164    -1036495.717 6   -768825.54421        12.750           0.531
  23957211.094    18265110.834 5  14231708.23021         8.750           0.500
 91  6 26 18 42 45.0000000  0  4G13G 2G15G19
  23460100.094    -3409066.413 6   -938934.37921        12.000           0.125
  20536991.344    -6178823.184 8  -4763798.41622        30.750           2.438
  24013216.227    -1056373.448 6   -784314.67121        12.250           0.438
  23965847.586    18310502.697 5  14267078.42821         9.500           0.500
 91  6 26 18 43  0.0000000  0  4G13G 2G15G19
  23448721.492    -3468869.846 6   -985534.32521        12.000           0.125
  20538052.141    -6173247.361 8  -4759453.62622        30.250           2.406
  24009456.555    -1076135.784 6   -799713.87321        12.000           0.438
  23974498.398    18355932.725 5  14302478.35621         9.500           0.344
 91  6 26 18 43 15.0000000  0  4G13G 2G15G19
  23437348.367    -3528629.089 5  -1032099.84721        11.500           0.219
  20539126.164    -6167600.913 8  -4755053.80022        30.250           2.406
  24005717.258    -1095781.240 5   -815022.01121        11.500           0.469
  23983146.305    18401402.040 5  14337908.92321        10.250           0.250
 91  6 26 18 43 30.0000000  0  4G13G 2G15G19
  23425985.938    -3588342.303 5  -1078629.45621        11.250           0.156
  20540214.547    -6161882.353 8  -4750597.77022        31.000           2.469
  24001999.852    -1115308.093 5   -830237.72921        11.500           0.469
  23991804.969    18446912.070 5  14373371.19721         9.500           0.375
 91  6 26 18 43 45.0000000  0  4G13G 2G15G19
  23414629.875    -3648010.568 5  -1125124.10721        11.000           0.188
  20541317.117    -6156093.270 8  -4746086.79622        32.000           2.469
  23998305.742    -1134717.390 5   -845361.84921        11.250           0.469
  24000471.156    18492461.153 5  14408863.91021         8.750           0.375
 91  6 26 18 44  0.0000000  0  4G13G 2G15G19
  23403284.633    -3707628.288 5  -1171579.35421        10.750           0.094
  20542433.000    -6150228.529 8  -4741516.86923        32.000           2.563
  23994635.109    -1154003.837 5   -860390.22921        11.000           0.563
  24009152.867    18538054.359 5  14444391.03021         8.250           0.313
 91  6 26 18 44 15.0000000  0  4G13G 2G15G19
  23391949.398    -3767197.350 5  -1217996.66021        10.500           0.281
  20543562.195    -6144290.465 8  -4736889.80823        32.250           2.563
  23990986.547    -1173169.433 5   -875324.43521        10.500           0.563
  24017834.234    18583689.203 5  14479950.58421         8.750           0.438
 91  6 26 18 44 30.0000000  0  4G13G 2G15G19
  23380621.070    -3826720.557 5  -1264378.25921        10.500           0.156
  20544705.648    -6138282.135 8  -4732207.98923        32.500           2.656
  23987360.102    -1192216.812 5   -890166.53221        10.750           0.531
  24026526.258    18629362.499 5  14515540.09121         7.500           0.313
 91  6 26 18 44 45.0000000  0  4G13G 2G15G19
  23369304.758    -3886199.035 5  -1310724.96321        10.500           0.125
  20545863.469    -6132205.647 8  -4727473.07223        32.750           2.750
  23983760.164    -1211147.620 5   -904917.78421        11.000           0.500
  24035222.758    18675072.425 5  14551158.14121         7.750           0.250
